<?xml version="1.0" encoding="UTF-8" standalone="no" ?>
<gpx xmlns="http://www.topografix.com/GPX/1/1" xmlns:xsi="http://www.w3.org/2001/XMLSchema-instance" xsi:schemaLocation="http://www.topografix.com/GPX/1/1 http://www.topografix.com/GPX/1/1/gpx.xsd" version="1.1" creator="VisuGPX - https://www.visugpx.com">
  <metadata>
    <name>VTT XC/AM GRABELS</name>
    <desc><![CDATA[Sortie typée XC/AM autour de Grabels. Aujourd'hui les températures sont un poil plus clémentes alors on en profite pour sortir le vélo à la pause déjeuner ! Tour habituel et vu qu'il fait quand même un peu chaud on évite les raidillons qui agitent le cardio. L'esprit est donc dans l'effort moins violent cette fois ci. On profite quand même des petits passages techniques et des sentiers ludiques tout en s'entrainant.]]></desc>
  </metadata>
  <trk>
    <name><![CDATA[VTT XC/AM GRABELS_1]]></name>
    <trkseg>
      <trkpt lat="43.63782" lon="3.82841">
        <ele>121.5</ele>
        <time>2017-07-05T10:08:11Z</time>
      </trkpt>
      <trkpt lat="43.63782" lon="3.82841">
        <ele>121.5</ele>
        <time>2017-07-05T10:08:26Z</time>
      </trkpt>
      <trkpt lat="43.63772" lon="3.82852">
        <ele>110.5</ele>
        <time>2017-07-05T10:08:32Z</time>
      </trkpt>
      <trkpt lat="43.63766" lon="3.82852">
        <ele>119.9</ele>
        <time>2017-07-05T10:08:39Z</time>
      </trkpt>
      <trkpt lat="43.6376" lon="3.82855">
        <ele>117.4</ele>
        <time>2017-07-05T10:08:55Z</time>
      </trkpt>
      <trkpt lat="43.63768" lon="3.8285">
        <ele>117.2</ele>
        <time>2017-07-05T10:09:40Z</time>
      </trkpt>
      <trkpt lat="43.63769" lon="3.82855">
        <ele>117.3</ele>
        <time>2017-07-05T10:09:50Z</time>
      </trkpt>
      <trkpt lat="43.63777" lon="3.82848">
        <ele>117.5</ele>
        <time>2017-07-05T10:09:55Z</time>
      </trkpt>
      <trkpt lat="43.63777" lon="3.82839">
        <ele>117.7</ele>
        <time>2017-07-05T10:10:02Z</time>
      </trkpt>
      <trkpt lat="43.63773" lon="3.82828">
        <ele>117.7</ele>
        <time>2017-07-05T10:10:05Z</time>
      </trkpt>
      <trkpt lat="43.63777" lon="3.8282">
        <ele>118.1</ele>
        <time>2017-07-05T10:10:08Z</time>
      </trkpt>
      <trkpt lat="43.63787" lon="3.82816">
        <ele>118.4</ele>
        <time>2017-07-05T10:10:11Z</time>
      </trkpt>
      <trkpt lat="43.63796" lon="3.82811">
        <ele>118.4</ele>
        <time>2017-07-05T10:10:14Z</time>
      </trkpt>
      <trkpt lat="43.63805" lon="3.82806">
        <ele>118.7</ele>
        <time>2017-07-05T10:10:17Z</time>
      </trkpt>
      <trkpt lat="43.63814" lon="3.82802">
        <ele>119</ele>
        <time>2017-07-05T10:10:20Z</time>
      </trkpt>
      <trkpt lat="43.63823" lon="3.82797">
        <ele>119.1</ele>
        <time>2017-07-05T10:10:23Z</time>
      </trkpt>
      <trkpt lat="43.63834" lon="3.82797">
        <ele>119.9</ele>
        <time>2017-07-05T10:10:26Z</time>
      </trkpt>
      <trkpt lat="43.63844" lon="3.82797">
        <ele>120.9</ele>
        <time>2017-07-05T10:10:28Z</time>
      </trkpt>
      <trkpt lat="43.63854" lon="3.82791">
        <ele>121.7</ele>
        <time>2017-07-05T10:10:30Z</time>
      </trkpt>
      <trkpt lat="43.63862" lon="3.82785">
        <ele>122</ele>
        <time>2017-07-05T10:10:32Z</time>
      </trkpt>
      <trkpt lat="43.63871" lon="3.82778">
        <ele>122.1</ele>
        <time>2017-07-05T10:10:35Z</time>
      </trkpt>
      <trkpt lat="43.63879" lon="3.82771">
        <ele>122.5</ele>
        <time>2017-07-05T10:10:38Z</time>
      </trkpt>
      <trkpt lat="43.63885" lon="3.8278">
        <ele>123.1</ele>
        <time>2017-07-05T10:10:41Z</time>
      </trkpt>
      <trkpt lat="43.63889" lon="3.82792">
        <ele>123.5</ele>
        <time>2017-07-05T10:10:43Z</time>
      </trkpt>
      <trkpt lat="43.63895" lon="3.828">
        <ele>123.9</ele>
        <time>2017-07-05T10:10:46Z</time>
      </trkpt>
      <trkpt lat="43.63903" lon="3.82802">
        <ele>124</ele>
        <time>2017-07-05T10:10:48Z</time>
      </trkpt>
      <trkpt lat="43.6391" lon="3.82806">
        <ele>124.2</ele>
        <time>2017-07-05T10:10:50Z</time>
      </trkpt>
      <trkpt lat="43.63918" lon="3.8281">
        <ele>124.7</ele>
        <time>2017-07-05T10:10:52Z</time>
      </trkpt>
      <trkpt lat="43.63923" lon="3.82818">
        <ele>124.9</ele>
        <time>2017-07-05T10:10:54Z</time>
      </trkpt>
      <trkpt lat="43.63928" lon="3.82818">
        <ele>125.3</ele>
        <time>2017-07-05T10:11:01Z</time>
      </trkpt>
      <trkpt lat="43.63936" lon="3.82813">
        <ele>125.2</ele>
        <time>2017-07-05T10:11:07Z</time>
      </trkpt>
      <trkpt lat="43.63943" lon="3.8281">
        <ele>125.6</ele>
        <time>2017-07-05T10:11:10Z</time>
      </trkpt>
      <trkpt lat="43.63949" lon="3.82804">
        <ele>127</ele>
        <time>2017-07-05T10:11:13Z</time>
      </trkpt>
      <trkpt lat="43.63957" lon="3.82799">
        <ele>127.5</ele>
        <time>2017-07-05T10:11:17Z</time>
      </trkpt>
      <trkpt lat="43.63967" lon="3.82793">
        <ele>127.7</ele>
        <time>2017-07-05T10:11:20Z</time>
      </trkpt>
      <trkpt lat="43.63974" lon="3.82792">
        <ele>127.8</ele>
        <time>2017-07-05T10:11:22Z</time>
      </trkpt>
      <trkpt lat="43.63982" lon="3.8279">
        <ele>127.9</ele>
        <time>2017-07-05T10:11:24Z</time>
      </trkpt>
      <trkpt lat="43.63989" lon="3.82789">
        <ele>128</ele>
        <time>2017-07-05T10:11:26Z</time>
      </trkpt>
      <trkpt lat="43.63997" lon="3.82787">
        <ele>127.9</ele>
        <time>2017-07-05T10:11:28Z</time>
      </trkpt>
      <trkpt lat="43.64003" lon="3.82779">
        <ele>127.4</ele>
        <time>2017-07-05T10:11:30Z</time>
      </trkpt>
      <trkpt lat="43.6401" lon="3.82773">
        <ele>127.5</ele>
        <time>2017-07-05T10:11:33Z</time>
      </trkpt>
      <trkpt lat="43.64018" lon="3.82767">
        <ele>127.7</ele>
        <time>2017-07-05T10:11:36Z</time>
      </trkpt>
      <trkpt lat="43.64027" lon="3.82764">
        <ele>127.8</ele>
        <time>2017-07-05T10:11:38Z</time>
      </trkpt>
      <trkpt lat="43.64036" lon="3.82759">
        <ele>128.1</ele>
        <time>2017-07-05T10:11:41Z</time>
      </trkpt>
      <trkpt lat="43.64043" lon="3.82753">
        <ele>128.5</ele>
        <time>2017-07-05T10:11:43Z</time>
      </trkpt>
      <trkpt lat="43.64049" lon="3.82749">
        <ele>128.7</ele>
        <time>2017-07-05T10:11:45Z</time>
      </trkpt>
      <trkpt lat="43.64056" lon="3.82743">
        <ele>129</ele>
        <time>2017-07-05T10:11:47Z</time>
      </trkpt>
      <trkpt lat="43.64063" lon="3.82736">
        <ele>129.2</ele>
        <time>2017-07-05T10:11:49Z</time>
      </trkpt>
      <trkpt lat="43.64069" lon="3.8273">
        <ele>129.3</ele>
        <time>2017-07-05T10:11:51Z</time>
      </trkpt>
      <trkpt lat="43.64078" lon="3.82722">
        <ele>129.5</ele>
        <time>2017-07-05T10:11:54Z</time>
      </trkpt>
      <trkpt lat="43.64084" lon="3.82718">
        <ele>129.6</ele>
        <time>2017-07-05T10:11:56Z</time>
      </trkpt>
      <trkpt lat="43.64091" lon="3.82713">
        <ele>129.8</ele>
        <time>2017-07-05T10:11:58Z</time>
      </trkpt>
      <trkpt lat="43.64098" lon="3.82704">
        <ele>130.2</ele>
        <time>2017-07-05T10:12:01Z</time>
      </trkpt>
      <trkpt lat="43.64103" lon="3.82697">
        <ele>130.5</ele>
        <time>2017-07-05T10:12:03Z</time>
      </trkpt>
      <trkpt lat="43.64109" lon="3.82691">
        <ele>130.7</ele>
        <time>2017-07-05T10:12:05Z</time>
      </trkpt>
      <trkpt lat="43.64116" lon="3.82684">
        <ele>130.9</ele>
        <time>2017-07-05T10:12:07Z</time>
      </trkpt>
      <trkpt lat="43.64122" lon="3.82677">
        <ele>131.1</ele>
        <time>2017-07-05T10:12:09Z</time>
      </trkpt>
      <trkpt lat="43.6413" lon="3.8267">
        <ele>132.2</ele>
        <time>2017-07-05T10:12:12Z</time>
      </trkpt>
      <trkpt lat="43.64138" lon="3.8266">
        <ele>133.3</ele>
        <time>2017-07-05T10:12:15Z</time>
      </trkpt>
      <trkpt lat="43.64144" lon="3.82654">
        <ele>133.7</ele>
        <time>2017-07-05T10:12:17Z</time>
      </trkpt>
      <trkpt lat="43.6415" lon="3.82647">
        <ele>133.8</ele>
        <time>2017-07-05T10:12:19Z</time>
      </trkpt>
      <trkpt lat="43.64157" lon="3.8264">
        <ele>133.9</ele>
        <time>2017-07-05T10:12:21Z</time>
      </trkpt>
      <trkpt lat="43.64163" lon="3.82633">
        <ele>133.9</ele>
        <time>2017-07-05T10:12:23Z</time>
      </trkpt>
      <trkpt lat="43.64168" lon="3.82626">
        <ele>134.1</ele>
        <time>2017-07-05T10:12:25Z</time>
      </trkpt>
      <trkpt lat="43.64176" lon="3.82617">
        <ele>134.4</ele>
        <time>2017-07-05T10:12:28Z</time>
      </trkpt>
      <trkpt lat="43.64181" lon="3.82609">
        <ele>134.3</ele>
        <time>2017-07-05T10:12:30Z</time>
      </trkpt>
      <trkpt lat="43.64186" lon="3.82602">
        <ele>133.6</ele>
        <time>2017-07-05T10:12:32Z</time>
      </trkpt>
      <trkpt lat="43.64193" lon="3.82595">
        <ele>133.1</ele>
        <time>2017-07-05T10:12:34Z</time>
      </trkpt>
      <trkpt lat="43.64198" lon="3.82586">
        <ele>133.1</ele>
        <time>2017-07-05T10:12:36Z</time>
      </trkpt>
      <trkpt lat="43.64204" lon="3.82577">
        <ele>133.8</ele>
        <time>2017-07-05T10:12:38Z</time>
      </trkpt>
      <trkpt lat="43.64209" lon="3.82569">
        <ele>134.5</ele>
        <time>2017-07-05T10:12:40Z</time>
      </trkpt>
      <trkpt lat="43.64214" lon="3.82561">
        <ele>135.7</ele>
        <time>2017-07-05T10:12:42Z</time>
      </trkpt>
      <trkpt lat="43.64219" lon="3.82552">
        <ele>136</ele>
        <time>2017-07-05T10:12:44Z</time>
      </trkpt>
      <trkpt lat="43.64224" lon="3.82543">
        <ele>136.4</ele>
        <time>2017-07-05T10:12:46Z</time>
      </trkpt>
      <trkpt lat="43.6423" lon="3.82531">
        <ele>136.7</ele>
        <time>2017-07-05T10:12:49Z</time>
      </trkpt>
      <trkpt lat="43.64236" lon="3.8252">
        <ele>137.2</ele>
        <time>2017-07-05T10:12:52Z</time>
      </trkpt>
      <trkpt lat="43.6424" lon="3.82511">
        <ele>137.5</ele>
        <time>2017-07-05T10:12:54Z</time>
      </trkpt>
      <trkpt lat="43.64246" lon="3.82498">
        <ele>137.8</ele>
        <time>2017-07-05T10:12:57Z</time>
      </trkpt>
      <trkpt lat="43.6425" lon="3.82488">
        <ele>138</ele>
        <time>2017-07-05T10:12:59Z</time>
      </trkpt>
      <trkpt lat="43.64254" lon="3.82477">
        <ele>139.8</ele>
        <time>2017-07-05T10:13:01Z</time>
      </trkpt>
      <trkpt lat="43.64258" lon="3.82468">
        <ele>140</ele>
        <time>2017-07-05T10:13:03Z</time>
      </trkpt>
      <trkpt lat="43.64262" lon="3.82455">
        <ele>140.4</ele>
        <time>2017-07-05T10:13:05Z</time>
      </trkpt>
      <trkpt lat="43.64268" lon="3.82442">
        <ele>140.2</ele>
        <time>2017-07-05T10:13:08Z</time>
      </trkpt>
      <trkpt lat="43.64272" lon="3.82431">
        <ele>140.2</ele>
        <time>2017-07-05T10:13:11Z</time>
      </trkpt>
      <trkpt lat="43.64277" lon="3.82417">
        <ele>140.2</ele>
        <time>2017-07-05T10:13:14Z</time>
      </trkpt>
      <trkpt lat="43.64282" lon="3.82406">
        <ele>140.3</ele>
        <time>2017-07-05T10:13:17Z</time>
      </trkpt>
      <trkpt lat="43.64288" lon="3.82396">
        <ele>140.5</ele>
        <time>2017-07-05T10:13:19Z</time>
      </trkpt>
      <trkpt lat="43.64295" lon="3.8239">
        <ele>141.3</ele>
        <time>2017-07-05T10:13:21Z</time>
      </trkpt>
      <trkpt lat="43.64302" lon="3.82387">
        <ele>141.5</ele>
        <time>2017-07-05T10:13:23Z</time>
      </trkpt>
      <trkpt lat="43.64306" lon="3.82378">
        <ele>141.7</ele>
        <time>2017-07-05T10:13:25Z</time>
      </trkpt>
      <trkpt lat="43.64311" lon="3.82366">
        <ele>141.9</ele>
        <time>2017-07-05T10:13:28Z</time>
      </trkpt>
      <trkpt lat="43.64312" lon="3.82355">
        <ele>141.9</ele>
        <time>2017-07-05T10:13:30Z</time>
      </trkpt>
      <trkpt lat="43.64318" lon="3.82345">
        <ele>141.8</ele>
        <time>2017-07-05T10:13:33Z</time>
      </trkpt>
      <trkpt lat="43.64324" lon="3.82334">
        <ele>141.6</ele>
        <time>2017-07-05T10:13:36Z</time>
      </trkpt>
      <trkpt lat="43.6433" lon="3.82321">
        <ele>139.6</ele>
        <time>2017-07-05T10:13:39Z</time>
      </trkpt>
      <trkpt lat="43.64334" lon="3.82308">
        <ele>139.5</ele>
        <time>2017-07-05T10:13:42Z</time>
      </trkpt>
      <trkpt lat="43.64339" lon="3.82296">
        <ele>139.5</ele>
        <time>2017-07-05T10:13:45Z</time>
      </trkpt>
      <trkpt lat="43.64344" lon="3.82283">
        <ele>139.5</ele>
        <time>2017-07-05T10:13:48Z</time>
      </trkpt>
      <trkpt lat="43.64349" lon="3.82273">
        <ele>139.7</ele>
        <time>2017-07-05T10:13:51Z</time>
      </trkpt>
      <trkpt lat="43.64357" lon="3.82269">
        <ele>140.4</ele>
        <time>2017-07-05T10:13:57Z</time>
      </trkpt>
      <trkpt lat="43.64367" lon="3.8227">
        <ele>140.4</ele>
        <time>2017-07-05T10:14:00Z</time>
      </trkpt>
      <trkpt lat="43.64368" lon="3.82257">
        <ele>140.5</ele>
        <time>2017-07-05T10:14:03Z</time>
      </trkpt>
      <trkpt lat="43.64367" lon="3.82245">
        <ele>140.5</ele>
        <time>2017-07-05T10:14:07Z</time>
      </trkpt>
      <trkpt lat="43.64368" lon="3.82231">
        <ele>140.5</ele>
        <time>2017-07-05T10:14:10Z</time>
      </trkpt>
      <trkpt lat="43.64367" lon="3.82219">
        <ele>140.5</ele>
        <time>2017-07-05T10:14:13Z</time>
      </trkpt>
      <trkpt lat="43.6436" lon="3.82212">
        <ele>140.8</ele>
        <time>2017-07-05T10:14:16Z</time>
      </trkpt>
      <trkpt lat="43.64354" lon="3.82206">
        <ele>141.2</ele>
        <time>2017-07-05T10:14:19Z</time>
      </trkpt>
      <trkpt lat="43.64348" lon="3.82201">
        <ele>141.9</ele>
        <time>2017-07-05T10:14:23Z</time>
      </trkpt>
      <trkpt lat="43.64344" lon="3.82188">
        <ele>142.9</ele>
        <time>2017-07-05T10:14:28Z</time>
      </trkpt>
      <trkpt lat="43.6434" lon="3.82178">
        <ele>143.7</ele>
        <time>2017-07-05T10:14:31Z</time>
      </trkpt>
      <trkpt lat="43.64335" lon="3.8217">
        <ele>144.2</ele>
        <time>2017-07-05T10:14:33Z</time>
      </trkpt>
      <trkpt lat="43.6433" lon="3.82159">
        <ele>144.6</ele>
        <time>2017-07-05T10:14:36Z</time>
      </trkpt>
      <trkpt lat="43.6433" lon="3.82146">
        <ele>145.1</ele>
        <time>2017-07-05T10:14:39Z</time>
      </trkpt>
      <trkpt lat="43.6433" lon="3.82134">
        <ele>145.4</ele>
        <time>2017-07-05T10:14:41Z</time>
      </trkpt>
      <trkpt lat="43.6433" lon="3.82121">
        <ele>145.8</ele>
        <time>2017-07-05T10:14:44Z</time>
      </trkpt>
      <trkpt lat="43.64333" lon="3.82108">
        <ele>146.1</ele>
        <time>2017-07-05T10:14:46Z</time>
      </trkpt>
      <trkpt lat="43.64333" lon="3.82096">
        <ele>146.5</ele>
        <time>2017-07-05T10:14:49Z</time>
      </trkpt>
      <trkpt lat="43.64334" lon="3.82085">
        <ele>146.5</ele>
        <time>2017-07-05T10:14:52Z</time>
      </trkpt>
      <trkpt lat="43.64336" lon="3.82076">
        <ele>146.7</ele>
        <time>2017-07-05T10:14:57Z</time>
      </trkpt>
      <trkpt lat="43.6434" lon="3.82067">
        <ele>147</ele>
        <time>2017-07-05T10:14:59Z</time>
      </trkpt>
      <trkpt lat="43.64344" lon="3.82055">
        <ele>147.8</ele>
        <time>2017-07-05T10:15:03Z</time>
      </trkpt>
      <trkpt lat="43.64349" lon="3.82044">
        <ele>148.4</ele>
        <time>2017-07-05T10:15:06Z</time>
      </trkpt>
      <trkpt lat="43.64353" lon="3.82035">
        <ele>148.8</ele>
        <time>2017-07-05T10:15:08Z</time>
      </trkpt>
      <trkpt lat="43.64357" lon="3.82026">
        <ele>149.2</ele>
        <time>2017-07-05T10:15:10Z</time>
      </trkpt>
      <trkpt lat="43.64361" lon="3.82018">
        <ele>151</ele>
        <time>2017-07-05T10:15:12Z</time>
      </trkpt>
      <trkpt lat="43.64368" lon="3.82005">
        <ele>153</ele>
        <time>2017-07-05T10:15:14Z</time>
      </trkpt>
      <trkpt lat="43.64373" lon="3.81993">
        <ele>153.6</ele>
        <time>2017-07-05T10:15:16Z</time>
      </trkpt>
      <trkpt lat="43.64379" lon="3.81983">
        <ele>153.7</ele>
        <time>2017-07-05T10:15:19Z</time>
      </trkpt>
      <trkpt lat="43.64385" lon="3.81969">
        <ele>154</ele>
        <time>2017-07-05T10:15:22Z</time>
      </trkpt>
      <trkpt lat="43.6439" lon="3.81959">
        <ele>154.8</ele>
        <time>2017-07-05T10:15:24Z</time>
      </trkpt>
      <trkpt lat="43.64396" lon="3.81951">
        <ele>155.2</ele>
        <time>2017-07-05T10:15:26Z</time>
      </trkpt>
      <trkpt lat="43.64398" lon="3.81942">
        <ele>155.3</ele>
        <time>2017-07-05T10:15:29Z</time>
      </trkpt>
      <trkpt lat="43.64399" lon="3.81931">
        <ele>155.4</ele>
        <time>2017-07-05T10:15:33Z</time>
      </trkpt>
      <trkpt lat="43.64404" lon="3.81922">
        <ele>155.3</ele>
        <time>2017-07-05T10:15:36Z</time>
      </trkpt>
      <trkpt lat="43.64406" lon="3.8191">
        <ele>155.2</ele>
        <time>2017-07-05T10:15:40Z</time>
      </trkpt>
      <trkpt lat="43.64406" lon="3.81898">
        <ele>155</ele>
        <time>2017-07-05T10:15:45Z</time>
      </trkpt>
      <trkpt lat="43.64406" lon="3.81885">
        <ele>155.2</ele>
        <time>2017-07-05T10:15:49Z</time>
      </trkpt>
      <trkpt lat="43.64406" lon="3.81872">
        <ele>155.4</ele>
        <time>2017-07-05T10:15:52Z</time>
      </trkpt>
      <trkpt lat="43.64406" lon="3.81863">
        <ele>155.6</ele>
        <time>2017-07-05T10:15:54Z</time>
      </trkpt>
      <trkpt lat="43.64408" lon="3.81849">
        <ele>155.8</ele>
        <time>2017-07-05T10:15:57Z</time>
      </trkpt>
      <trkpt lat="43.64405" lon="3.81837">
        <ele>156.1</ele>
        <time>2017-07-05T10:16:01Z</time>
      </trkpt>
      <trkpt lat="43.64404" lon="3.81827">
        <ele>156.1</ele>
        <time>2017-07-05T10:16:03Z</time>
      </trkpt>
      <trkpt lat="43.64412" lon="3.81817">
        <ele>157</ele>
        <time>2017-07-05T10:16:05Z</time>
      </trkpt>
      <trkpt lat="43.6442" lon="3.81805">
        <ele>157.2</ele>
        <time>2017-07-05T10:16:08Z</time>
      </trkpt>
      <trkpt lat="43.64418" lon="3.81794">
        <ele>157.4</ele>
        <time>2017-07-05T10:16:11Z</time>
      </trkpt>
      <trkpt lat="43.64414" lon="3.81784">
        <ele>157.8</ele>
        <time>2017-07-05T10:16:14Z</time>
      </trkpt>
      <trkpt lat="43.64408" lon="3.81776">
        <ele>158.2</ele>
        <time>2017-07-05T10:16:17Z</time>
      </trkpt>
      <trkpt lat="43.64403" lon="3.81767">
        <ele>158.5</ele>
        <time>2017-07-05T10:16:20Z</time>
      </trkpt>
      <trkpt lat="43.64397" lon="3.81756">
        <ele>159.1</ele>
        <time>2017-07-05T10:16:23Z</time>
      </trkpt>
      <trkpt lat="43.64391" lon="3.81746">
        <ele>159.8</ele>
        <time>2017-07-05T10:16:26Z</time>
      </trkpt>
      <trkpt lat="43.64383" lon="3.81735">
        <ele>161.1</ele>
        <time>2017-07-05T10:16:29Z</time>
      </trkpt>
      <trkpt lat="43.64379" lon="3.81727">
        <ele>161.2</ele>
        <time>2017-07-05T10:16:31Z</time>
      </trkpt>
      <trkpt lat="43.64375" lon="3.81715">
        <ele>161.4</ele>
        <time>2017-07-05T10:16:34Z</time>
      </trkpt>
      <trkpt lat="43.64372" lon="3.81706">
        <ele>161.7</ele>
        <time>2017-07-05T10:16:36Z</time>
      </trkpt>
      <trkpt lat="43.64368" lon="3.81694">
        <ele>162.2</ele>
        <time>2017-07-05T10:16:39Z</time>
      </trkpt>
      <trkpt lat="43.64365" lon="3.81684">
        <ele>162.5</ele>
        <time>2017-07-05T10:16:41Z</time>
      </trkpt>
      <trkpt lat="43.64361" lon="3.81673">
        <ele>162.8</ele>
        <time>2017-07-05T10:16:43Z</time>
      </trkpt>
      <trkpt lat="43.64356" lon="3.8166">
        <ele>163.3</ele>
        <time>2017-07-05T10:16:46Z</time>
      </trkpt>
      <trkpt lat="43.64353" lon="3.81651">
        <ele>164.8</ele>
        <time>2017-07-05T10:16:48Z</time>
      </trkpt>
      <trkpt lat="43.64349" lon="3.8164">
        <ele>167.1</ele>
        <time>2017-07-05T10:16:50Z</time>
      </trkpt>
      <trkpt lat="43.64345" lon="3.8163">
        <ele>168.2</ele>
        <time>2017-07-05T10:16:52Z</time>
      </trkpt>
      <trkpt lat="43.64342" lon="3.8162">
        <ele>168.8</ele>
        <time>2017-07-05T10:16:54Z</time>
      </trkpt>
      <trkpt lat="43.64339" lon="3.81611">
        <ele>168.9</ele>
        <time>2017-07-05T10:16:56Z</time>
      </trkpt>
      <trkpt lat="43.64336" lon="3.81601">
        <ele>168.7</ele>
        <time>2017-07-05T10:16:58Z</time>
      </trkpt>
      <trkpt lat="43.64333" lon="3.81591">
        <ele>167.9</ele>
        <time>2017-07-05T10:17:00Z</time>
      </trkpt>
      <trkpt lat="43.6433" lon="3.81582">
        <ele>167.8</ele>
        <time>2017-07-05T10:17:02Z</time>
      </trkpt>
      <trkpt lat="43.64327" lon="3.81566">
        <ele>167.1</ele>
        <time>2017-07-05T10:17:05Z</time>
      </trkpt>
      <trkpt lat="43.64326" lon="3.81556">
        <ele>166.1</ele>
        <time>2017-07-05T10:17:07Z</time>
      </trkpt>
      <trkpt lat="43.64323" lon="3.81544">
        <ele>166.8</ele>
        <time>2017-07-05T10:17:09Z</time>
      </trkpt>
      <trkpt lat="43.6432" lon="3.81532">
        <ele>166.3</ele>
        <time>2017-07-05T10:17:11Z</time>
      </trkpt>
      <trkpt lat="43.64317" lon="3.8152">
        <ele>167.6</ele>
        <time>2017-07-05T10:17:13Z</time>
      </trkpt>
      <trkpt lat="43.64314" lon="3.81505">
        <ele>167.9</ele>
        <time>2017-07-05T10:17:15Z</time>
      </trkpt>
      <trkpt lat="43.64309" lon="3.8149">
        <ele>169</ele>
        <time>2017-07-05T10:17:17Z</time>
      </trkpt>
      <trkpt lat="43.64305" lon="3.81475">
        <ele>169.1</ele>
        <time>2017-07-05T10:17:19Z</time>
      </trkpt>
      <trkpt lat="43.643" lon="3.81457">
        <ele>168.1</ele>
        <time>2017-07-05T10:17:21Z</time>
      </trkpt>
      <trkpt lat="43.64298" lon="3.81447">
        <ele>168.3</ele>
        <time>2017-07-05T10:17:22Z</time>
      </trkpt>
      <trkpt lat="43.64293" lon="3.81431">
        <ele>170.1</ele>
        <time>2017-07-05T10:17:24Z</time>
      </trkpt>
      <trkpt lat="43.64287" lon="3.81413">
        <ele>170.2</ele>
        <time>2017-07-05T10:17:26Z</time>
      </trkpt>
      <trkpt lat="43.64284" lon="3.81404">
        <ele>170.3</ele>
        <time>2017-07-05T10:17:27Z</time>
      </trkpt>
      <trkpt lat="43.6428" lon="3.81394">
        <ele>171</ele>
        <time>2017-07-05T10:17:28Z</time>
      </trkpt>
      <trkpt lat="43.64276" lon="3.81385">
        <ele>171.2</ele>
        <time>2017-07-05T10:17:29Z</time>
      </trkpt>
      <trkpt lat="43.64269" lon="3.81366">
        <ele>170.8</ele>
        <time>2017-07-05T10:17:31Z</time>
      </trkpt>
      <trkpt lat="43.64265" lon="3.81357">
        <ele>171.2</ele>
        <time>2017-07-05T10:17:32Z</time>
      </trkpt>
      <trkpt lat="43.64261" lon="3.81348">
        <ele>171.2</ele>
        <time>2017-07-05T10:17:33Z</time>
      </trkpt>
      <trkpt lat="43.64253" lon="3.8133">
        <ele>169.8</ele>
        <time>2017-07-05T10:17:35Z</time>
      </trkpt>
      <trkpt lat="43.64249" lon="3.81323">
        <ele>169.1</ele>
        <time>2017-07-05T10:17:36Z</time>
      </trkpt>
      <trkpt lat="43.6424" lon="3.81309">
        <ele>168.3</ele>
        <time>2017-07-05T10:17:38Z</time>
      </trkpt>
      <trkpt lat="43.6423" lon="3.81296">
        <ele>168.3</ele>
        <time>2017-07-05T10:17:40Z</time>
      </trkpt>
      <trkpt lat="43.64222" lon="3.81283">
        <ele>168.1</ele>
        <time>2017-07-05T10:17:42Z</time>
      </trkpt>
      <trkpt lat="43.64214" lon="3.81269">
        <ele>168.6</ele>
        <time>2017-07-05T10:17:44Z</time>
      </trkpt>
      <trkpt lat="43.64207" lon="3.81256">
        <ele>168.9</ele>
        <time>2017-07-05T10:17:46Z</time>
      </trkpt>
      <trkpt lat="43.642" lon="3.81243">
        <ele>169.4</ele>
        <time>2017-07-05T10:17:48Z</time>
      </trkpt>
      <trkpt lat="43.64192" lon="3.81231">
        <ele>168.1</ele>
        <time>2017-07-05T10:17:50Z</time>
      </trkpt>
      <trkpt lat="43.64184" lon="3.81218">
        <ele>166.7</ele>
        <time>2017-07-05T10:17:52Z</time>
      </trkpt>
      <trkpt lat="43.64178" lon="3.81207">
        <ele>165.4</ele>
        <time>2017-07-05T10:17:54Z</time>
      </trkpt>
      <trkpt lat="43.64168" lon="3.81194">
        <ele>163.6</ele>
        <time>2017-07-05T10:17:56Z</time>
      </trkpt>
      <trkpt lat="43.64158" lon="3.81182">
        <ele>162.2</ele>
        <time>2017-07-05T10:17:58Z</time>
      </trkpt>
      <trkpt lat="43.64148" lon="3.8117">
        <ele>162.9</ele>
        <time>2017-07-05T10:18:00Z</time>
      </trkpt>
      <trkpt lat="43.64138" lon="3.8116">
        <ele>162.9</ele>
        <time>2017-07-05T10:18:02Z</time>
      </trkpt>
      <trkpt lat="43.64127" lon="3.81149">
        <ele>163.5</ele>
        <time>2017-07-05T10:18:04Z</time>
      </trkpt>
      <trkpt lat="43.64122" lon="3.81143">
        <ele>164.3</ele>
        <time>2017-07-05T10:18:05Z</time>
      </trkpt>
      <trkpt lat="43.64112" lon="3.8113">
        <ele>164.9</ele>
        <time>2017-07-05T10:18:07Z</time>
      </trkpt>
      <trkpt lat="43.64104" lon="3.8112">
        <ele>166.2</ele>
        <time>2017-07-05T10:18:09Z</time>
      </trkpt>
      <trkpt lat="43.64095" lon="3.8111">
        <ele>167.3</ele>
        <time>2017-07-05T10:18:11Z</time>
      </trkpt>
      <trkpt lat="43.64089" lon="3.81102">
        <ele>167.7</ele>
        <time>2017-07-05T10:18:13Z</time>
      </trkpt>
      <trkpt lat="43.64087" lon="3.8109">
        <ele>167.7</ele>
        <time>2017-07-05T10:18:15Z</time>
      </trkpt>
      <trkpt lat="43.6409" lon="3.81078">
        <ele>167</ele>
        <time>2017-07-05T10:18:17Z</time>
      </trkpt>
      <trkpt lat="43.64097" lon="3.81063">
        <ele>166.1</ele>
        <time>2017-07-05T10:18:19Z</time>
      </trkpt>
      <trkpt lat="43.64101" lon="3.81055">
        <ele>165.3</ele>
        <time>2017-07-05T10:18:20Z</time>
      </trkpt>
      <trkpt lat="43.64106" lon="3.81045">
        <ele>164.4</ele>
        <time>2017-07-05T10:18:21Z</time>
      </trkpt>
      <trkpt lat="43.6411" lon="3.81035">
        <ele>163.3</ele>
        <time>2017-07-05T10:18:22Z</time>
      </trkpt>
      <trkpt lat="43.64115" lon="3.81025">
        <ele>161.5</ele>
        <time>2017-07-05T10:18:23Z</time>
      </trkpt>
      <trkpt lat="43.64119" lon="3.81013">
        <ele>159.6</ele>
        <time>2017-07-05T10:18:24Z</time>
      </trkpt>
      <trkpt lat="43.64123" lon="3.81003">
        <ele>158.4</ele>
        <time>2017-07-05T10:18:25Z</time>
      </trkpt>
      <trkpt lat="43.64128" lon="3.80995">
        <ele>156.9</ele>
        <time>2017-07-05T10:18:26Z</time>
      </trkpt>
      <trkpt lat="43.64133" lon="3.80987">
        <ele>155.3</ele>
        <time>2017-07-05T10:18:27Z</time>
      </trkpt>
      <trkpt lat="43.64138" lon="3.80975">
        <ele>154.2</ele>
        <time>2017-07-05T10:18:28Z</time>
      </trkpt>
      <trkpt lat="43.64143" lon="3.80964">
        <ele>153.4</ele>
        <time>2017-07-05T10:18:29Z</time>
      </trkpt>
      <trkpt lat="43.64147" lon="3.80955">
        <ele>152.7</ele>
        <time>2017-07-05T10:18:30Z</time>
      </trkpt>
      <trkpt lat="43.64152" lon="3.80946">
        <ele>153.5</ele>
        <time>2017-07-05T10:18:32Z</time>
      </trkpt>
      <trkpt lat="43.64159" lon="3.80936">
        <ele>153.6</ele>
        <time>2017-07-05T10:18:35Z</time>
      </trkpt>
      <trkpt lat="43.64165" lon="3.80926">
        <ele>153.9</ele>
        <time>2017-07-05T10:18:38Z</time>
      </trkpt>
      <trkpt lat="43.64168" lon="3.80916">
        <ele>154.2</ele>
        <time>2017-07-05T10:18:41Z</time>
      </trkpt>
      <trkpt lat="43.64174" lon="3.80904">
        <ele>156.1</ele>
        <time>2017-07-05T10:18:44Z</time>
      </trkpt>
      <trkpt lat="43.64177" lon="3.80895">
        <ele>157.2</ele>
        <time>2017-07-05T10:18:46Z</time>
      </trkpt>
      <trkpt lat="43.64173" lon="3.80887">
        <ele>156.2</ele>
        <time>2017-07-05T10:18:48Z</time>
      </trkpt>
      <trkpt lat="43.64168" lon="3.80874">
        <ele>155.1</ele>
        <time>2017-07-05T10:18:50Z</time>
      </trkpt>
      <trkpt lat="43.64166" lon="3.80856">
        <ele>154</ele>
        <time>2017-07-05T10:18:52Z</time>
      </trkpt>
      <trkpt lat="43.64164" lon="3.80846">
        <ele>153.7</ele>
        <time>2017-07-05T10:18:53Z</time>
      </trkpt>
      <trkpt lat="43.64161" lon="3.80835">
        <ele>152.5</ele>
        <time>2017-07-05T10:18:54Z</time>
      </trkpt>
      <trkpt lat="43.6416" lon="3.80815">
        <ele>151.1</ele>
        <time>2017-07-05T10:18:56Z</time>
      </trkpt>
      <trkpt lat="43.64162" lon="3.80798">
        <ele>149.8</ele>
        <time>2017-07-05T10:18:58Z</time>
      </trkpt>
      <trkpt lat="43.64161" lon="3.80781">
        <ele>148.1</ele>
        <time>2017-07-05T10:19:00Z</time>
      </trkpt>
      <trkpt lat="43.64161" lon="3.80762">
        <ele>146.6</ele>
        <time>2017-07-05T10:19:02Z</time>
      </trkpt>
      <trkpt lat="43.64161" lon="3.8075">
        <ele>144.5</ele>
        <time>2017-07-05T10:19:03Z</time>
      </trkpt>
      <trkpt lat="43.64161" lon="3.80739">
        <ele>142.6</ele>
        <time>2017-07-05T10:19:04Z</time>
      </trkpt>
      <trkpt lat="43.6416" lon="3.80725">
        <ele>140.9</ele>
        <time>2017-07-05T10:19:05Z</time>
      </trkpt>
      <trkpt lat="43.64158" lon="3.80713">
        <ele>139.5</ele>
        <time>2017-07-05T10:19:06Z</time>
      </trkpt>
      <trkpt lat="43.64157" lon="3.80698">
        <ele>138.7</ele>
        <time>2017-07-05T10:19:07Z</time>
      </trkpt>
      <trkpt lat="43.64155" lon="3.80682">
        <ele>137.1</ele>
        <time>2017-07-05T10:19:08Z</time>
      </trkpt>
      <trkpt lat="43.64153" lon="3.80668">
        <ele>136</ele>
        <time>2017-07-05T10:19:09Z</time>
      </trkpt>
      <trkpt lat="43.64151" lon="3.80653">
        <ele>134.9</ele>
        <time>2017-07-05T10:19:10Z</time>
      </trkpt>
      <trkpt lat="43.6415" lon="3.80643">
        <ele>133.7</ele>
        <time>2017-07-05T10:19:11Z</time>
      </trkpt>
      <trkpt lat="43.64141" lon="3.80632">
        <ele>131.8</ele>
        <time>2017-07-05T10:19:13Z</time>
      </trkpt>
      <trkpt lat="43.64134" lon="3.80626">
        <ele>131</ele>
        <time>2017-07-05T10:19:15Z</time>
      </trkpt>
      <trkpt lat="43.64126" lon="3.80617">
        <ele>130.6</ele>
        <time>2017-07-05T10:19:17Z</time>
      </trkpt>
      <trkpt lat="43.6412" lon="3.8061">
        <ele>130.1</ele>
        <time>2017-07-05T10:19:19Z</time>
      </trkpt>
      <trkpt lat="43.64112" lon="3.80613">
        <ele>129</ele>
        <time>2017-07-05T10:19:22Z</time>
      </trkpt>
      <trkpt lat="43.64105" lon="3.80615">
        <ele>128.8</ele>
        <time>2017-07-05T10:19:24Z</time>
      </trkpt>
      <trkpt lat="43.64094" lon="3.80624">
        <ele>128.3</ele>
        <time>2017-07-05T10:19:26Z</time>
      </trkpt>
      <trkpt lat="43.64084" lon="3.8062">
        <ele>126.3</ele>
        <time>2017-07-05T10:19:28Z</time>
      </trkpt>
      <trkpt lat="43.64076" lon="3.80622">
        <ele>125</ele>
        <time>2017-07-05T10:19:30Z</time>
      </trkpt>
      <trkpt lat="43.64067" lon="3.8062">
        <ele>123.2</ele>
        <time>2017-07-05T10:19:32Z</time>
      </trkpt>
      <trkpt lat="43.64057" lon="3.80624">
        <ele>119.8</ele>
        <time>2017-07-05T10:19:34Z</time>
      </trkpt>
      <trkpt lat="43.64049" lon="3.80627">
        <ele>119</ele>
        <time>2017-07-05T10:19:36Z</time>
      </trkpt>
      <trkpt lat="43.64041" lon="3.80626">
        <ele>118.7</ele>
        <time>2017-07-05T10:19:38Z</time>
      </trkpt>
      <trkpt lat="43.64033" lon="3.80629">
        <ele>118.3</ele>
        <time>2017-07-05T10:19:40Z</time>
      </trkpt>
      <trkpt lat="43.64026" lon="3.80632">
        <ele>116.1</ele>
        <time>2017-07-05T10:19:42Z</time>
      </trkpt>
      <trkpt lat="43.64016" lon="3.8064">
        <ele>115.9</ele>
        <time>2017-07-05T10:19:45Z</time>
      </trkpt>
      <trkpt lat="43.64009" lon="3.80644">
        <ele>114.8</ele>
        <time>2017-07-05T10:19:47Z</time>
      </trkpt>
      <trkpt lat="43.64" lon="3.80647">
        <ele>114.1</ele>
        <time>2017-07-05T10:19:49Z</time>
      </trkpt>
      <trkpt lat="43.6399" lon="3.8065">
        <ele>113.6</ele>
        <time>2017-07-05T10:19:51Z</time>
      </trkpt>
      <trkpt lat="43.63981" lon="3.80655">
        <ele>111.7</ele>
        <time>2017-07-05T10:19:53Z</time>
      </trkpt>
      <trkpt lat="43.63969" lon="3.80659">
        <ele>110.6</ele>
        <time>2017-07-05T10:19:55Z</time>
      </trkpt>
      <trkpt lat="43.63962" lon="3.80661">
        <ele>109.4</ele>
        <time>2017-07-05T10:19:56Z</time>
      </trkpt>
      <trkpt lat="43.63951" lon="3.80663">
        <ele>108.3</ele>
        <time>2017-07-05T10:19:58Z</time>
      </trkpt>
      <trkpt lat="43.63946" lon="3.80671">
        <ele>108.3</ele>
        <time>2017-07-05T10:20:01Z</time>
      </trkpt>
      <trkpt lat="43.63939" lon="3.80671">
        <ele>107</ele>
        <time>2017-07-05T10:20:03Z</time>
      </trkpt>
      <trkpt lat="43.63929" lon="3.80673">
        <ele>105.9</ele>
        <time>2017-07-05T10:20:05Z</time>
      </trkpt>
      <trkpt lat="43.63922" lon="3.80674">
        <ele>106</ele>
        <time>2017-07-05T10:20:07Z</time>
      </trkpt>
      <trkpt lat="43.63913" lon="3.80677">
        <ele>106.4</ele>
        <time>2017-07-05T10:20:09Z</time>
      </trkpt>
      <trkpt lat="43.63906" lon="3.80687">
        <ele>106.6</ele>
        <time>2017-07-05T10:20:11Z</time>
      </trkpt>
      <trkpt lat="43.63905" lon="3.80701">
        <ele>104.2</ele>
        <time>2017-07-05T10:20:14Z</time>
      </trkpt>
      <trkpt lat="43.63902" lon="3.80711">
        <ele>104.1</ele>
        <time>2017-07-05T10:20:16Z</time>
      </trkpt>
      <trkpt lat="43.63895" lon="3.80714">
        <ele>103.8</ele>
        <time>2017-07-05T10:20:18Z</time>
      </trkpt>
      <trkpt lat="43.63887" lon="3.80721">
        <ele>103.5</ele>
        <time>2017-07-05T10:20:22Z</time>
      </trkpt>
      <trkpt lat="43.63885" lon="3.8072">
        <ele>102.9</ele>
        <time>2017-07-05T10:20:29Z</time>
      </trkpt>
      <trkpt lat="43.63877" lon="3.80725">
        <ele>102</ele>
        <time>2017-07-05T10:20:42Z</time>
      </trkpt>
      <trkpt lat="43.63866" lon="3.80736">
        <ele>100.8</ele>
        <time>2017-07-05T10:20:56Z</time>
      </trkpt>
      <trkpt lat="43.63857" lon="3.80739">
        <ele>100.2</ele>
        <time>2017-07-05T10:21:04Z</time>
      </trkpt>
      <trkpt lat="43.63846" lon="3.80737">
        <ele>99.8</ele>
        <time>2017-07-05T10:21:12Z</time>
      </trkpt>
      <trkpt lat="43.6384" lon="3.80732">
        <ele>99.8</ele>
        <time>2017-07-05T10:21:19Z</time>
      </trkpt>
      <trkpt lat="43.6383" lon="3.80731">
        <ele>100.1</ele>
        <time>2017-07-05T10:21:24Z</time>
      </trkpt>
      <trkpt lat="43.6382" lon="3.80734">
        <ele>100.2</ele>
        <time>2017-07-05T10:21:27Z</time>
      </trkpt>
      <trkpt lat="43.6381" lon="3.80739">
        <ele>100.3</ele>
        <time>2017-07-05T10:21:30Z</time>
      </trkpt>
      <trkpt lat="43.63803" lon="3.80742">
        <ele>100.3</ele>
        <time>2017-07-05T10:21:32Z</time>
      </trkpt>
      <trkpt lat="43.63792" lon="3.80747">
        <ele>99.3</ele>
        <time>2017-07-05T10:21:35Z</time>
      </trkpt>
      <trkpt lat="43.63785" lon="3.80748">
        <ele>101.2</ele>
        <time>2017-07-05T10:21:37Z</time>
      </trkpt>
      <trkpt lat="43.63777" lon="3.8075">
        <ele>102.5</ele>
        <time>2017-07-05T10:21:39Z</time>
      </trkpt>
      <trkpt lat="43.63769" lon="3.80753">
        <ele>103.2</ele>
        <time>2017-07-05T10:21:41Z</time>
      </trkpt>
      <trkpt lat="43.63761" lon="3.80755">
        <ele>103.8</ele>
        <time>2017-07-05T10:21:43Z</time>
      </trkpt>
      <trkpt lat="43.63752" lon="3.80758">
        <ele>104.2</ele>
        <time>2017-07-05T10:21:45Z</time>
      </trkpt>
      <trkpt lat="43.63744" lon="3.80756">
        <ele>105.5</ele>
        <time>2017-07-05T10:21:47Z</time>
      </trkpt>
      <trkpt lat="43.63735" lon="3.80753">
        <ele>105.2</ele>
        <time>2017-07-05T10:21:49Z</time>
      </trkpt>
      <trkpt lat="43.63724" lon="3.8075">
        <ele>103.9</ele>
        <time>2017-07-05T10:21:51Z</time>
      </trkpt>
      <trkpt lat="43.63715" lon="3.80748">
        <ele>102.9</ele>
        <time>2017-07-05T10:21:53Z</time>
      </trkpt>
      <trkpt lat="43.63706" lon="3.80747">
        <ele>101.6</ele>
        <time>2017-07-05T10:21:55Z</time>
      </trkpt>
      <trkpt lat="43.63698" lon="3.80742">
        <ele>101.4</ele>
        <time>2017-07-05T10:21:57Z</time>
      </trkpt>
      <trkpt lat="43.63691" lon="3.80738">
        <ele>101.1</ele>
        <time>2017-07-05T10:21:59Z</time>
      </trkpt>
      <trkpt lat="43.63681" lon="3.80733">
        <ele>100.1</ele>
        <time>2017-07-05T10:22:02Z</time>
      </trkpt>
      <trkpt lat="43.63673" lon="3.80732">
        <ele>100.6</ele>
        <time>2017-07-05T10:22:04Z</time>
      </trkpt>
      <trkpt lat="43.63665" lon="3.80733">
        <ele>101.6</ele>
        <time>2017-07-05T10:22:06Z</time>
      </trkpt>
      <trkpt lat="43.63655" lon="3.80732">
        <ele>102.4</ele>
        <time>2017-07-05T10:22:08Z</time>
      </trkpt>
      <trkpt lat="43.63647" lon="3.80732">
        <ele>102.7</ele>
        <time>2017-07-05T10:22:10Z</time>
      </trkpt>
      <trkpt lat="43.63638" lon="3.80731">
        <ele>101.8</ele>
        <time>2017-07-05T10:22:12Z</time>
      </trkpt>
      <trkpt lat="43.63628" lon="3.80728">
        <ele>101.4</ele>
        <time>2017-07-05T10:22:14Z</time>
      </trkpt>
      <trkpt lat="43.63618" lon="3.80723">
        <ele>101.3</ele>
        <time>2017-07-05T10:22:16Z</time>
      </trkpt>
      <trkpt lat="43.63608" lon="3.8072">
        <ele>101.4</ele>
        <time>2017-07-05T10:22:18Z</time>
      </trkpt>
      <trkpt lat="43.63597" lon="3.80717">
        <ele>101.8</ele>
        <time>2017-07-05T10:22:20Z</time>
      </trkpt>
      <trkpt lat="43.63586" lon="3.80713">
        <ele>101.8</ele>
        <time>2017-07-05T10:22:22Z</time>
      </trkpt>
      <trkpt lat="43.63576" lon="3.80712">
        <ele>101.1</ele>
        <time>2017-07-05T10:22:24Z</time>
      </trkpt>
      <trkpt lat="43.63566" lon="3.8071">
        <ele>101.5</ele>
        <time>2017-07-05T10:22:26Z</time>
      </trkpt>
      <trkpt lat="43.63555" lon="3.80709">
        <ele>101.6</ele>
        <time>2017-07-05T10:22:28Z</time>
      </trkpt>
      <trkpt lat="43.63543" lon="3.80708">
        <ele>101.6</ele>
        <time>2017-07-05T10:22:30Z</time>
      </trkpt>
      <trkpt lat="43.63535" lon="3.80706">
        <ele>101.9</ele>
        <time>2017-07-05T10:22:31Z</time>
      </trkpt>
      <trkpt lat="43.63523" lon="3.80702">
        <ele>101.1</ele>
        <time>2017-07-05T10:22:33Z</time>
      </trkpt>
      <trkpt lat="43.63514" lon="3.80693">
        <ele>100.8</ele>
        <time>2017-07-05T10:22:35Z</time>
      </trkpt>
      <trkpt lat="43.63504" lon="3.80685">
        <ele>100.3</ele>
        <time>2017-07-05T10:22:37Z</time>
      </trkpt>
      <trkpt lat="43.63495" lon="3.80678">
        <ele>98.9</ele>
        <time>2017-07-05T10:22:39Z</time>
      </trkpt>
      <trkpt lat="43.63485" lon="3.8067">
        <ele>98.3</ele>
        <time>2017-07-05T10:22:41Z</time>
      </trkpt>
      <trkpt lat="43.63477" lon="3.80666">
        <ele>98.5</ele>
        <time>2017-07-05T10:22:43Z</time>
      </trkpt>
      <trkpt lat="43.6347" lon="3.80659">
        <ele>99.5</ele>
        <time>2017-07-05T10:22:45Z</time>
      </trkpt>
      <trkpt lat="43.63461" lon="3.80659">
        <ele>99.5</ele>
        <time>2017-07-05T10:22:48Z</time>
      </trkpt>
      <trkpt lat="43.63451" lon="3.80657">
        <ele>98.5</ele>
        <time>2017-07-05T10:22:52Z</time>
      </trkpt>
      <trkpt lat="43.63442" lon="3.80658">
        <ele>98</ele>
        <time>2017-07-05T10:22:54Z</time>
      </trkpt>
      <trkpt lat="43.63429" lon="3.80657">
        <ele>98.7</ele>
        <time>2017-07-05T10:22:56Z</time>
      </trkpt>
      <trkpt lat="43.63421" lon="3.80654">
        <ele>98.4</ele>
        <time>2017-07-05T10:22:58Z</time>
      </trkpt>
      <trkpt lat="43.63413" lon="3.8065">
        <ele>98.5</ele>
        <time>2017-07-05T10:23:00Z</time>
      </trkpt>
      <trkpt lat="43.63403" lon="3.80648">
        <ele>98.9</ele>
        <time>2017-07-05T10:23:03Z</time>
      </trkpt>
      <trkpt lat="43.63393" lon="3.80647">
        <ele>99.2</ele>
        <time>2017-07-05T10:23:06Z</time>
      </trkpt>
      <trkpt lat="43.63383" lon="3.80647">
        <ele>99.4</ele>
        <time>2017-07-05T10:23:09Z</time>
      </trkpt>
      <trkpt lat="43.63375" lon="3.80648">
        <ele>99.7</ele>
        <time>2017-07-05T10:23:12Z</time>
      </trkpt>
      <trkpt lat="43.63366" lon="3.80649">
        <ele>100</ele>
        <time>2017-07-05T10:23:15Z</time>
      </trkpt>
      <trkpt lat="43.63359" lon="3.8065">
        <ele>100.3</ele>
        <time>2017-07-05T10:23:18Z</time>
      </trkpt>
      <trkpt lat="43.63351" lon="3.80656">
        <ele>100.8</ele>
        <time>2017-07-05T10:23:22Z</time>
      </trkpt>
      <trkpt lat="43.63343" lon="3.80657">
        <ele>101.4</ele>
        <time>2017-07-05T10:23:25Z</time>
      </trkpt>
      <trkpt lat="43.63334" lon="3.8066">
        <ele>101.7</ele>
        <time>2017-07-05T10:23:28Z</time>
      </trkpt>
      <trkpt lat="43.63325" lon="3.80665">
        <ele>102.1</ele>
        <time>2017-07-05T10:23:31Z</time>
      </trkpt>
      <trkpt lat="43.63317" lon="3.80669">
        <ele>102.7</ele>
        <time>2017-07-05T10:23:34Z</time>
      </trkpt>
      <trkpt lat="43.6331" lon="3.80676">
        <ele>103</ele>
        <time>2017-07-05T10:23:37Z</time>
      </trkpt>
      <trkpt lat="43.63304" lon="3.80682">
        <ele>103.4</ele>
        <time>2017-07-05T10:23:40Z</time>
      </trkpt>
      <trkpt lat="43.63299" lon="3.8069">
        <ele>103.9</ele>
        <time>2017-07-05T10:23:43Z</time>
      </trkpt>
      <trkpt lat="43.63292" lon="3.807">
        <ele>104.6</ele>
        <time>2017-07-05T10:23:47Z</time>
      </trkpt>
      <trkpt lat="43.63286" lon="3.8071">
        <ele>105.1</ele>
        <time>2017-07-05T10:23:51Z</time>
      </trkpt>
      <trkpt lat="43.63282" lon="3.80719">
        <ele>105.6</ele>
        <time>2017-07-05T10:23:54Z</time>
      </trkpt>
      <trkpt lat="43.63275" lon="3.80728">
        <ele>106.1</ele>
        <time>2017-07-05T10:23:57Z</time>
      </trkpt>
      <trkpt lat="43.63267" lon="3.8073">
        <ele>106.5</ele>
        <time>2017-07-05T10:24:00Z</time>
      </trkpt>
      <trkpt lat="43.63262" lon="3.80721">
        <ele>107.6</ele>
        <time>2017-07-05T10:24:04Z</time>
      </trkpt>
      <trkpt lat="43.63261" lon="3.80711">
        <ele>108.5</ele>
        <time>2017-07-05T10:24:08Z</time>
      </trkpt>
      <trkpt lat="43.63263" lon="3.80699">
        <ele>109.6</ele>
        <time>2017-07-05T10:24:12Z</time>
      </trkpt>
      <trkpt lat="43.63268" lon="3.80688">
        <ele>110.2</ele>
        <time>2017-07-05T10:24:15Z</time>
      </trkpt>
      <trkpt lat="43.63272" lon="3.80677">
        <ele>110.7</ele>
        <time>2017-07-05T10:24:18Z</time>
      </trkpt>
      <trkpt lat="43.63276" lon="3.80668">
        <ele>111.3</ele>
        <time>2017-07-05T10:24:21Z</time>
      </trkpt>
      <trkpt lat="43.6328" lon="3.80659">
        <ele>111.8</ele>
        <time>2017-07-05T10:24:24Z</time>
      </trkpt>
      <trkpt lat="43.63286" lon="3.80649">
        <ele>112.3</ele>
        <time>2017-07-05T10:24:27Z</time>
      </trkpt>
      <trkpt lat="43.6329" lon="3.80639">
        <ele>112.7</ele>
        <time>2017-07-05T10:24:30Z</time>
      </trkpt>
      <trkpt lat="43.63293" lon="3.80629">
        <ele>113.3</ele>
        <time>2017-07-05T10:24:34Z</time>
      </trkpt>
      <trkpt lat="43.63299" lon="3.80617">
        <ele>114.1</ele>
        <time>2017-07-05T10:24:38Z</time>
      </trkpt>
      <trkpt lat="43.63302" lon="3.80609">
        <ele>114.5</ele>
        <time>2017-07-05T10:24:40Z</time>
      </trkpt>
      <trkpt lat="43.63307" lon="3.80596">
        <ele>115</ele>
        <time>2017-07-05T10:24:43Z</time>
      </trkpt>
      <trkpt lat="43.63312" lon="3.80586">
        <ele>115.7</ele>
        <time>2017-07-05T10:24:46Z</time>
      </trkpt>
      <trkpt lat="43.63315" lon="3.80576">
        <ele>116.5</ele>
        <time>2017-07-05T10:24:50Z</time>
      </trkpt>
      <trkpt lat="43.63322" lon="3.80567">
        <ele>117.6</ele>
        <time>2017-07-05T10:24:54Z</time>
      </trkpt>
      <trkpt lat="43.63329" lon="3.8056">
        <ele>119</ele>
        <time>2017-07-05T10:24:58Z</time>
      </trkpt>
      <trkpt lat="43.63337" lon="3.80555">
        <ele>120.1</ele>
        <time>2017-07-05T10:25:02Z</time>
      </trkpt>
      <trkpt lat="43.63345" lon="3.80551">
        <ele>120.7</ele>
        <time>2017-07-05T10:25:05Z</time>
      </trkpt>
      <trkpt lat="43.63354" lon="3.8055">
        <ele>121.7</ele>
        <time>2017-07-05T10:25:09Z</time>
      </trkpt>
      <trkpt lat="43.63362" lon="3.8055">
        <ele>122.6</ele>
        <time>2017-07-05T10:25:12Z</time>
      </trkpt>
      <trkpt lat="43.63369" lon="3.80545">
        <ele>123.3</ele>
        <time>2017-07-05T10:25:15Z</time>
      </trkpt>
      <trkpt lat="43.63377" lon="3.8054">
        <ele>124.5</ele>
        <time>2017-07-05T10:25:19Z</time>
      </trkpt>
      <trkpt lat="43.6338" lon="3.80529">
        <ele>125.7</ele>
        <time>2017-07-05T10:25:23Z</time>
      </trkpt>
      <trkpt lat="43.6338" lon="3.80519">
        <ele>126.5</ele>
        <time>2017-07-05T10:25:28Z</time>
      </trkpt>
      <trkpt lat="43.63382" lon="3.80507">
        <ele>127.1</ele>
        <time>2017-07-05T10:25:31Z</time>
      </trkpt>
      <trkpt lat="43.63388" lon="3.80498">
        <ele>127.5</ele>
        <time>2017-07-05T10:25:34Z</time>
      </trkpt>
      <trkpt lat="43.63393" lon="3.80489">
        <ele>127.9</ele>
        <time>2017-07-05T10:25:37Z</time>
      </trkpt>
      <trkpt lat="43.63398" lon="3.80481">
        <ele>128.4</ele>
        <time>2017-07-05T10:25:40Z</time>
      </trkpt>
      <trkpt lat="43.63402" lon="3.80471">
        <ele>129.2</ele>
        <time>2017-07-05T10:25:43Z</time>
      </trkpt>
      <trkpt lat="43.63406" lon="3.80462">
        <ele>130</ele>
        <time>2017-07-05T10:25:46Z</time>
      </trkpt>
      <trkpt lat="43.63414" lon="3.80455">
        <ele>131</ele>
        <time>2017-07-05T10:25:50Z</time>
      </trkpt>
      <trkpt lat="43.63424" lon="3.80453">
        <ele>131.4</ele>
        <time>2017-07-05T10:25:53Z</time>
      </trkpt>
      <trkpt lat="43.63431" lon="3.80462">
        <ele>133.2</ele>
        <time>2017-07-05T10:26:00Z</time>
      </trkpt>
      <trkpt lat="43.63437" lon="3.80467">
        <ele>134.5</ele>
        <time>2017-07-05T10:26:04Z</time>
      </trkpt>
      <trkpt lat="43.63445" lon="3.80466">
        <ele>135.6</ele>
        <time>2017-07-05T10:26:07Z</time>
      </trkpt>
      <trkpt lat="43.63454" lon="3.80464">
        <ele>137.1</ele>
        <time>2017-07-05T10:26:11Z</time>
      </trkpt>
      <trkpt lat="43.63458" lon="3.80454">
        <ele>138.2</ele>
        <time>2017-07-05T10:26:15Z</time>
      </trkpt>
      <trkpt lat="43.63456" lon="3.80444">
        <ele>139.3</ele>
        <time>2017-07-05T10:26:19Z</time>
      </trkpt>
      <trkpt lat="43.63454" lon="3.80434">
        <ele>140.2</ele>
        <time>2017-07-05T10:26:23Z</time>
      </trkpt>
      <trkpt lat="43.63453" lon="3.80421">
        <ele>140.9</ele>
        <time>2017-07-05T10:26:27Z</time>
      </trkpt>
      <trkpt lat="43.63454" lon="3.80408">
        <ele>141.3</ele>
        <time>2017-07-05T10:26:30Z</time>
      </trkpt>
      <trkpt lat="43.63461" lon="3.804">
        <ele>141.8</ele>
        <time>2017-07-05T10:26:34Z</time>
      </trkpt>
      <trkpt lat="43.63466" lon="3.8039">
        <ele>142.6</ele>
        <time>2017-07-05T10:26:38Z</time>
      </trkpt>
      <trkpt lat="43.63469" lon="3.80379">
        <ele>143.4</ele>
        <time>2017-07-05T10:26:42Z</time>
      </trkpt>
      <trkpt lat="43.63472" lon="3.8037">
        <ele>144</ele>
        <time>2017-07-05T10:26:45Z</time>
      </trkpt>
      <trkpt lat="43.63477" lon="3.80359">
        <ele>145.1</ele>
        <time>2017-07-05T10:26:50Z</time>
      </trkpt>
      <trkpt lat="43.6348" lon="3.80349">
        <ele>145.8</ele>
        <time>2017-07-05T10:26:53Z</time>
      </trkpt>
      <trkpt lat="43.6348" lon="3.80336">
        <ele>146.5</ele>
        <time>2017-07-05T10:26:57Z</time>
      </trkpt>
      <trkpt lat="43.63481" lon="3.80326">
        <ele>147.1</ele>
        <time>2017-07-05T10:27:00Z</time>
      </trkpt>
      <trkpt lat="43.63482" lon="3.80315">
        <ele>147.6</ele>
        <time>2017-07-05T10:27:04Z</time>
      </trkpt>
      <trkpt lat="43.63483" lon="3.80302">
        <ele>148.1</ele>
        <time>2017-07-05T10:27:06Z</time>
      </trkpt>
      <trkpt lat="43.63486" lon="3.80292">
        <ele>148.5</ele>
        <time>2017-07-05T10:27:08Z</time>
      </trkpt>
      <trkpt lat="43.63486" lon="3.80279">
        <ele>149</ele>
        <time>2017-07-05T10:27:11Z</time>
      </trkpt>
      <trkpt lat="43.63486" lon="3.80269">
        <ele>149.2</ele>
        <time>2017-07-05T10:27:14Z</time>
      </trkpt>
      <trkpt lat="43.63487" lon="3.80258">
        <ele>149.6</ele>
        <time>2017-07-05T10:27:16Z</time>
      </trkpt>
      <trkpt lat="43.63489" lon="3.80247">
        <ele>149.9</ele>
        <time>2017-07-05T10:27:18Z</time>
      </trkpt>
      <trkpt lat="43.63492" lon="3.80234">
        <ele>150.4</ele>
        <time>2017-07-05T10:27:21Z</time>
      </trkpt>
      <trkpt lat="43.63496" lon="3.80224">
        <ele>150.8</ele>
        <time>2017-07-05T10:27:23Z</time>
      </trkpt>
      <trkpt lat="43.635" lon="3.80217">
        <ele>151.1</ele>
        <time>2017-07-05T10:27:25Z</time>
      </trkpt>
      <trkpt lat="43.63504" lon="3.80208">
        <ele>151.4</ele>
        <time>2017-07-05T10:27:27Z</time>
      </trkpt>
      <trkpt lat="43.63511" lon="3.80197">
        <ele>152.1</ele>
        <time>2017-07-05T10:27:30Z</time>
      </trkpt>
      <trkpt lat="43.63516" lon="3.80189">
        <ele>153.9</ele>
        <time>2017-07-05T10:27:32Z</time>
      </trkpt>
      <trkpt lat="43.63522" lon="3.8018">
        <ele>156.3</ele>
        <time>2017-07-05T10:27:34Z</time>
      </trkpt>
      <trkpt lat="43.63528" lon="3.80167">
        <ele>157.5</ele>
        <time>2017-07-05T10:27:36Z</time>
      </trkpt>
      <trkpt lat="43.63534" lon="3.80157">
        <ele>157.7</ele>
        <time>2017-07-05T10:27:38Z</time>
      </trkpt>
      <trkpt lat="43.63539" lon="3.80147">
        <ele>158.7</ele>
        <time>2017-07-05T10:27:40Z</time>
      </trkpt>
      <trkpt lat="43.63542" lon="3.80134">
        <ele>157.7</ele>
        <time>2017-07-05T10:27:42Z</time>
      </trkpt>
      <trkpt lat="43.63544" lon="3.80123">
        <ele>157.5</ele>
        <time>2017-07-05T10:27:43Z</time>
      </trkpt>
      <trkpt lat="43.63547" lon="3.80103">
        <ele>156.4</ele>
        <time>2017-07-05T10:27:45Z</time>
      </trkpt>
      <trkpt lat="43.63553" lon="3.80085">
        <ele>155.3</ele>
        <time>2017-07-05T10:27:47Z</time>
      </trkpt>
      <trkpt lat="43.63563" lon="3.80074">
        <ele>155.2</ele>
        <time>2017-07-05T10:27:49Z</time>
      </trkpt>
      <trkpt lat="43.6357" lon="3.80058">
        <ele>154.7</ele>
        <time>2017-07-05T10:27:51Z</time>
      </trkpt>
      <trkpt lat="43.63575" lon="3.80049">
        <ele>154.2</ele>
        <time>2017-07-05T10:27:52Z</time>
      </trkpt>
      <trkpt lat="43.63581" lon="3.80034">
        <ele>152.6</ele>
        <time>2017-07-05T10:27:54Z</time>
      </trkpt>
      <trkpt lat="43.63588" lon="3.80018">
        <ele>151.2</ele>
        <time>2017-07-05T10:27:56Z</time>
      </trkpt>
      <trkpt lat="43.63594" lon="3.80004">
        <ele>151.9</ele>
        <time>2017-07-05T10:27:58Z</time>
      </trkpt>
      <trkpt lat="43.63599" lon="3.79992">
        <ele>152.4</ele>
        <time>2017-07-05T10:28:00Z</time>
      </trkpt>
      <trkpt lat="43.63606" lon="3.7998">
        <ele>152.9</ele>
        <time>2017-07-05T10:28:02Z</time>
      </trkpt>
      <trkpt lat="43.63612" lon="3.79973">
        <ele>154.1</ele>
        <time>2017-07-05T10:28:04Z</time>
      </trkpt>
      <trkpt lat="43.63618" lon="3.7996">
        <ele>155.5</ele>
        <time>2017-07-05T10:28:06Z</time>
      </trkpt>
      <trkpt lat="43.63623" lon="3.79949">
        <ele>156.6</ele>
        <time>2017-07-05T10:28:08Z</time>
      </trkpt>
      <trkpt lat="43.63629" lon="3.79942">
        <ele>157.1</ele>
        <time>2017-07-05T10:28:10Z</time>
      </trkpt>
      <trkpt lat="43.63635" lon="3.79933">
        <ele>157.4</ele>
        <time>2017-07-05T10:28:12Z</time>
      </trkpt>
      <trkpt lat="43.63642" lon="3.79923">
        <ele>157.9</ele>
        <time>2017-07-05T10:28:14Z</time>
      </trkpt>
      <trkpt lat="43.63647" lon="3.79914">
        <ele>158.1</ele>
        <time>2017-07-05T10:28:16Z</time>
      </trkpt>
      <trkpt lat="43.63651" lon="3.79906">
        <ele>158.4</ele>
        <time>2017-07-05T10:28:18Z</time>
      </trkpt>
      <trkpt lat="43.63658" lon="3.79896">
        <ele>159.6</ele>
        <time>2017-07-05T10:28:20Z</time>
      </trkpt>
      <trkpt lat="43.63663" lon="3.79886">
        <ele>159.1</ele>
        <time>2017-07-05T10:28:22Z</time>
      </trkpt>
      <trkpt lat="43.63671" lon="3.79876">
        <ele>159.1</ele>
        <time>2017-07-05T10:28:24Z</time>
      </trkpt>
      <trkpt lat="43.63676" lon="3.79866">
        <ele>159.7</ele>
        <time>2017-07-05T10:28:26Z</time>
      </trkpt>
      <trkpt lat="43.63681" lon="3.79853">
        <ele>159.7</ele>
        <time>2017-07-05T10:28:28Z</time>
      </trkpt>
      <trkpt lat="43.63686" lon="3.79842">
        <ele>159.6</ele>
        <time>2017-07-05T10:28:30Z</time>
      </trkpt>
      <trkpt lat="43.63694" lon="3.79834">
        <ele>160</ele>
        <time>2017-07-05T10:28:32Z</time>
      </trkpt>
      <trkpt lat="43.637" lon="3.79826">
        <ele>160.5</ele>
        <time>2017-07-05T10:28:34Z</time>
      </trkpt>
      <trkpt lat="43.63707" lon="3.79816">
        <ele>160.4</ele>
        <time>2017-07-05T10:28:36Z</time>
      </trkpt>
      <trkpt lat="43.63711" lon="3.79805">
        <ele>161.1</ele>
        <time>2017-07-05T10:28:38Z</time>
      </trkpt>
      <trkpt lat="43.63715" lon="3.79796">
        <ele>162.3</ele>
        <time>2017-07-05T10:28:40Z</time>
      </trkpt>
      <trkpt lat="43.63719" lon="3.79787">
        <ele>162.7</ele>
        <time>2017-07-05T10:28:42Z</time>
      </trkpt>
      <trkpt lat="43.63725" lon="3.79776">
        <ele>162.8</ele>
        <time>2017-07-05T10:28:44Z</time>
      </trkpt>
      <trkpt lat="43.6373" lon="3.79767">
        <ele>163.3</ele>
        <time>2017-07-05T10:28:46Z</time>
      </trkpt>
      <trkpt lat="43.63736" lon="3.79757">
        <ele>163.9</ele>
        <time>2017-07-05T10:28:48Z</time>
      </trkpt>
      <trkpt lat="43.63743" lon="3.79752">
        <ele>164</ele>
        <time>2017-07-05T10:28:50Z</time>
      </trkpt>
      <trkpt lat="43.63751" lon="3.79744">
        <ele>163.9</ele>
        <time>2017-07-05T10:28:53Z</time>
      </trkpt>
      <trkpt lat="43.6376" lon="3.79737">
        <ele>164</ele>
        <time>2017-07-05T10:28:56Z</time>
      </trkpt>
      <trkpt lat="43.63767" lon="3.79729">
        <ele>164.2</ele>
        <time>2017-07-05T10:28:58Z</time>
      </trkpt>
      <trkpt lat="43.63777" lon="3.79721">
        <ele>167.3</ele>
        <time>2017-07-05T10:29:00Z</time>
      </trkpt>
      <trkpt lat="43.63787" lon="3.79713">
        <ele>168</ele>
        <time>2017-07-05T10:29:02Z</time>
      </trkpt>
      <trkpt lat="43.63798" lon="3.79705">
        <ele>167.7</ele>
        <time>2017-07-05T10:29:04Z</time>
      </trkpt>
      <trkpt lat="43.63806" lon="3.79696">
        <ele>166.6</ele>
        <time>2017-07-05T10:29:06Z</time>
      </trkpt>
      <trkpt lat="43.63817" lon="3.79688">
        <ele>165.8</ele>
        <time>2017-07-05T10:29:08Z</time>
      </trkpt>
      <trkpt lat="43.63827" lon="3.7968">
        <ele>165.2</ele>
        <time>2017-07-05T10:29:10Z</time>
      </trkpt>
      <trkpt lat="43.63839" lon="3.79674">
        <ele>164.5</ele>
        <time>2017-07-05T10:29:12Z</time>
      </trkpt>
      <trkpt lat="43.6385" lon="3.79672">
        <ele>163.9</ele>
        <time>2017-07-05T10:29:14Z</time>
      </trkpt>
      <trkpt lat="43.6386" lon="3.79668">
        <ele>163.8</ele>
        <time>2017-07-05T10:29:17Z</time>
      </trkpt>
      <trkpt lat="43.6387" lon="3.79661">
        <ele>163.8</ele>
        <time>2017-07-05T10:29:20Z</time>
      </trkpt>
      <trkpt lat="43.63878" lon="3.79657">
        <ele>164.3</ele>
        <time>2017-07-05T10:29:22Z</time>
      </trkpt>
      <trkpt lat="43.63886" lon="3.79651">
        <ele>164.5</ele>
        <time>2017-07-05T10:29:24Z</time>
      </trkpt>
      <trkpt lat="43.63893" lon="3.7964">
        <ele>165.5</ele>
        <time>2017-07-05T10:29:26Z</time>
      </trkpt>
      <trkpt lat="43.63901" lon="3.79628">
        <ele>164.3</ele>
        <time>2017-07-05T10:29:28Z</time>
      </trkpt>
      <trkpt lat="43.63909" lon="3.79613">
        <ele>163.9</ele>
        <time>2017-07-05T10:29:30Z</time>
      </trkpt>
      <trkpt lat="43.63915" lon="3.79598">
        <ele>164.5</ele>
        <time>2017-07-05T10:29:32Z</time>
      </trkpt>
      <trkpt lat="43.63922" lon="3.79586">
        <ele>165.5</ele>
        <time>2017-07-05T10:29:34Z</time>
      </trkpt>
      <trkpt lat="43.63927" lon="3.79576">
        <ele>165.6</ele>
        <time>2017-07-05T10:29:36Z</time>
      </trkpt>
      <trkpt lat="43.63933" lon="3.79564">
        <ele>166</ele>
        <time>2017-07-05T10:29:38Z</time>
      </trkpt>
      <trkpt lat="43.6394" lon="3.79552">
        <ele>166.2</ele>
        <time>2017-07-05T10:29:40Z</time>
      </trkpt>
      <trkpt lat="43.63942" lon="3.79539">
        <ele>165.7</ele>
        <time>2017-07-05T10:29:42Z</time>
      </trkpt>
      <trkpt lat="43.63944" lon="3.79529">
        <ele>165.3</ele>
        <time>2017-07-05T10:29:44Z</time>
      </trkpt>
      <trkpt lat="43.63946" lon="3.79514">
        <ele>165.8</ele>
        <time>2017-07-05T10:29:46Z</time>
      </trkpt>
      <trkpt lat="43.63951" lon="3.79499">
        <ele>166.3</ele>
        <time>2017-07-05T10:29:48Z</time>
      </trkpt>
      <trkpt lat="43.63955" lon="3.79486">
        <ele>166.2</ele>
        <time>2017-07-05T10:29:50Z</time>
      </trkpt>
      <trkpt lat="43.6396" lon="3.79475">
        <ele>165.4</ele>
        <time>2017-07-05T10:29:52Z</time>
      </trkpt>
      <trkpt lat="43.63964" lon="3.79465">
        <ele>165.1</ele>
        <time>2017-07-05T10:29:54Z</time>
      </trkpt>
      <trkpt lat="43.63966" lon="3.79454">
        <ele>165</ele>
        <time>2017-07-05T10:29:56Z</time>
      </trkpt>
      <trkpt lat="43.63965" lon="3.79443">
        <ele>164.9</ele>
        <time>2017-07-05T10:29:58Z</time>
      </trkpt>
      <trkpt lat="43.6397" lon="3.79432">
        <ele>164.7</ele>
        <time>2017-07-05T10:30:00Z</time>
      </trkpt>
      <trkpt lat="43.63975" lon="3.79423">
        <ele>164.7</ele>
        <time>2017-07-05T10:30:02Z</time>
      </trkpt>
      <trkpt lat="43.6398" lon="3.79413">
        <ele>164.2</ele>
        <time>2017-07-05T10:30:04Z</time>
      </trkpt>
      <trkpt lat="43.63985" lon="3.79403">
        <ele>164.8</ele>
        <time>2017-07-05T10:30:06Z</time>
      </trkpt>
      <trkpt lat="43.63991" lon="3.7939">
        <ele>165.6</ele>
        <time>2017-07-05T10:30:08Z</time>
      </trkpt>
      <trkpt lat="43.63998" lon="3.79377">
        <ele>167.2</ele>
        <time>2017-07-05T10:30:10Z</time>
      </trkpt>
      <trkpt lat="43.64005" lon="3.79366">
        <ele>168.2</ele>
        <time>2017-07-05T10:30:12Z</time>
      </trkpt>
      <trkpt lat="43.64011" lon="3.79356">
        <ele>167.8</ele>
        <time>2017-07-05T10:30:14Z</time>
      </trkpt>
      <trkpt lat="43.64017" lon="3.79344">
        <ele>167.6</ele>
        <time>2017-07-05T10:30:16Z</time>
      </trkpt>
      <trkpt lat="43.64022" lon="3.79333">
        <ele>167.9</ele>
        <time>2017-07-05T10:30:18Z</time>
      </trkpt>
      <trkpt lat="43.64028" lon="3.79322">
        <ele>168.8</ele>
        <time>2017-07-05T10:30:20Z</time>
      </trkpt>
      <trkpt lat="43.64033" lon="3.79311">
        <ele>168.5</ele>
        <time>2017-07-05T10:30:22Z</time>
      </trkpt>
      <trkpt lat="43.64037" lon="3.79298">
        <ele>167.9</ele>
        <time>2017-07-05T10:30:24Z</time>
      </trkpt>
      <trkpt lat="43.64043" lon="3.79287">
        <ele>167.6</ele>
        <time>2017-07-05T10:30:26Z</time>
      </trkpt>
      <trkpt lat="43.6405" lon="3.79277">
        <ele>167.4</ele>
        <time>2017-07-05T10:30:28Z</time>
      </trkpt>
      <trkpt lat="43.64055" lon="3.79264">
        <ele>168.3</ele>
        <time>2017-07-05T10:30:30Z</time>
      </trkpt>
      <trkpt lat="43.6406" lon="3.79249">
        <ele>168.8</ele>
        <time>2017-07-05T10:30:32Z</time>
      </trkpt>
      <trkpt lat="43.64071" lon="3.79236">
        <ele>168</ele>
        <time>2017-07-05T10:30:34Z</time>
      </trkpt>
      <trkpt lat="43.64083" lon="3.79226">
        <ele>167.8</ele>
        <time>2017-07-05T10:30:36Z</time>
      </trkpt>
      <trkpt lat="43.64088" lon="3.79221">
        <ele>168.8</ele>
        <time>2017-07-05T10:30:37Z</time>
      </trkpt>
      <trkpt lat="43.64099" lon="3.79211">
        <ele>170.6</ele>
        <time>2017-07-05T10:30:39Z</time>
      </trkpt>
      <trkpt lat="43.64106" lon="3.79205">
        <ele>170.8</ele>
        <time>2017-07-05T10:30:41Z</time>
      </trkpt>
      <trkpt lat="43.64112" lon="3.79198">
        <ele>171.2</ele>
        <time>2017-07-05T10:30:41Z</time>
      </trkpt>
      <trkpt lat="43.64123" lon="3.79187">
        <ele>171.3</ele>
        <time>2017-07-05T10:30:43Z</time>
      </trkpt>
      <trkpt lat="43.64133" lon="3.79175">
        <ele>171.8</ele>
        <time>2017-07-05T10:30:45Z</time>
      </trkpt>
      <trkpt lat="43.64145" lon="3.79163">
        <ele>172.1</ele>
        <time>2017-07-05T10:30:47Z</time>
      </trkpt>
      <trkpt lat="43.64155" lon="3.79153">
        <ele>173.4</ele>
        <time>2017-07-05T10:30:49Z</time>
      </trkpt>
      <trkpt lat="43.64166" lon="3.79142">
        <ele>173.9</ele>
        <time>2017-07-05T10:30:51Z</time>
      </trkpt>
      <trkpt lat="43.64174" lon="3.79132">
        <ele>173.4</ele>
        <time>2017-07-05T10:30:53Z</time>
      </trkpt>
      <trkpt lat="43.64182" lon="3.79119">
        <ele>172.7</ele>
        <time>2017-07-05T10:30:55Z</time>
      </trkpt>
      <trkpt lat="43.64189" lon="3.79107">
        <ele>170.5</ele>
        <time>2017-07-05T10:30:57Z</time>
      </trkpt>
      <trkpt lat="43.64196" lon="3.79097">
        <ele>169.7</ele>
        <time>2017-07-05T10:30:59Z</time>
      </trkpt>
      <trkpt lat="43.64199" lon="3.79085">
        <ele>169.1</ele>
        <time>2017-07-05T10:31:01Z</time>
      </trkpt>
      <trkpt lat="43.64205" lon="3.7907">
        <ele>168.2</ele>
        <time>2017-07-05T10:31:03Z</time>
      </trkpt>
      <trkpt lat="43.64211" lon="3.79055">
        <ele>167.4</ele>
        <time>2017-07-05T10:31:05Z</time>
      </trkpt>
      <trkpt lat="43.64221" lon="3.79045">
        <ele>166.5</ele>
        <time>2017-07-05T10:31:07Z</time>
      </trkpt>
      <trkpt lat="43.6423" lon="3.79038">
        <ele>166.1</ele>
        <time>2017-07-05T10:31:09Z</time>
      </trkpt>
      <trkpt lat="43.64239" lon="3.79031">
        <ele>166.5</ele>
        <time>2017-07-05T10:31:11Z</time>
      </trkpt>
      <trkpt lat="43.64246" lon="3.79019">
        <ele>166.5</ele>
        <time>2017-07-05T10:31:14Z</time>
      </trkpt>
      <trkpt lat="43.64251" lon="3.79012">
        <ele>166.6</ele>
        <time>2017-07-05T10:31:16Z</time>
      </trkpt>
      <trkpt lat="43.64261" lon="3.79016">
        <ele>166.9</ele>
        <time>2017-07-05T10:31:20Z</time>
      </trkpt>
      <trkpt lat="43.64266" lon="3.79025">
        <ele>170</ele>
        <time>2017-07-05T10:31:22Z</time>
      </trkpt>
      <trkpt lat="43.64268" lon="3.79036">
        <ele>172.3</ele>
        <time>2017-07-05T10:31:24Z</time>
      </trkpt>
      <trkpt lat="43.64271" lon="3.79053">
        <ele>172.7</ele>
        <time>2017-07-05T10:31:26Z</time>
      </trkpt>
      <trkpt lat="43.64277" lon="3.79067">
        <ele>172.2</ele>
        <time>2017-07-05T10:31:28Z</time>
      </trkpt>
      <trkpt lat="43.64281" lon="3.79081">
        <ele>170.5</ele>
        <time>2017-07-05T10:31:30Z</time>
      </trkpt>
      <trkpt lat="43.64285" lon="3.79098">
        <ele>170.1</ele>
        <time>2017-07-05T10:31:32Z</time>
      </trkpt>
      <trkpt lat="43.64285" lon="3.79114">
        <ele>169.1</ele>
        <time>2017-07-05T10:31:34Z</time>
      </trkpt>
      <trkpt lat="43.64285" lon="3.7913">
        <ele>170.1</ele>
        <time>2017-07-05T10:31:36Z</time>
      </trkpt>
      <trkpt lat="43.64285" lon="3.79146">
        <ele>170.9</ele>
        <time>2017-07-05T10:31:38Z</time>
      </trkpt>
      <trkpt lat="43.64284" lon="3.79162">
        <ele>169.9</ele>
        <time>2017-07-05T10:31:40Z</time>
      </trkpt>
      <trkpt lat="43.64283" lon="3.79178">
        <ele>170.4</ele>
        <time>2017-07-05T10:31:42Z</time>
      </trkpt>
      <trkpt lat="43.64282" lon="3.79192">
        <ele>169.6</ele>
        <time>2017-07-05T10:31:44Z</time>
      </trkpt>
      <trkpt lat="43.64285" lon="3.79202">
        <ele>169.3</ele>
        <time>2017-07-05T10:31:46Z</time>
      </trkpt>
      <trkpt lat="43.64284" lon="3.79215">
        <ele>169.4</ele>
        <time>2017-07-05T10:31:49Z</time>
      </trkpt>
      <trkpt lat="43.64286" lon="3.79227">
        <ele>169.4</ele>
        <time>2017-07-05T10:31:51Z</time>
      </trkpt>
      <trkpt lat="43.64289" lon="3.79242">
        <ele>168.1</ele>
        <time>2017-07-05T10:31:53Z</time>
      </trkpt>
      <trkpt lat="43.64286" lon="3.79255">
        <ele>168.1</ele>
        <time>2017-07-05T10:31:55Z</time>
      </trkpt>
      <trkpt lat="43.64287" lon="3.79266">
        <ele>167.3</ele>
        <time>2017-07-05T10:31:57Z</time>
      </trkpt>
      <trkpt lat="43.64288" lon="3.79278">
        <ele>167.4</ele>
        <time>2017-07-05T10:31:59Z</time>
      </trkpt>
      <trkpt lat="43.64295" lon="3.79288">
        <ele>167.5</ele>
        <time>2017-07-05T10:32:02Z</time>
      </trkpt>
      <trkpt lat="43.64307" lon="3.79289">
        <ele>166.7</ele>
        <time>2017-07-05T10:32:05Z</time>
      </trkpt>
      <trkpt lat="43.64318" lon="3.79293">
        <ele>166.9</ele>
        <time>2017-07-05T10:32:07Z</time>
      </trkpt>
      <trkpt lat="43.64332" lon="3.79297">
        <ele>165.9</ele>
        <time>2017-07-05T10:32:09Z</time>
      </trkpt>
      <trkpt lat="43.64337" lon="3.79308">
        <ele>165.1</ele>
        <time>2017-07-05T10:32:11Z</time>
      </trkpt>
      <trkpt lat="43.6434" lon="3.79322">
        <ele>165.2</ele>
        <time>2017-07-05T10:32:13Z</time>
      </trkpt>
      <trkpt lat="43.64344" lon="3.79334">
        <ele>162.9</ele>
        <time>2017-07-05T10:32:15Z</time>
      </trkpt>
      <trkpt lat="43.64345" lon="3.79346">
        <ele>162.5</ele>
        <time>2017-07-05T10:32:17Z</time>
      </trkpt>
      <trkpt lat="43.6435" lon="3.79357">
        <ele>160.3</ele>
        <time>2017-07-05T10:32:19Z</time>
      </trkpt>
      <trkpt lat="43.64357" lon="3.79372">
        <ele>155.8</ele>
        <time>2017-07-05T10:32:21Z</time>
      </trkpt>
      <trkpt lat="43.64363" lon="3.79381">
        <ele>153.8</ele>
        <time>2017-07-05T10:32:23Z</time>
      </trkpt>
      <trkpt lat="43.64372" lon="3.79385">
        <ele>151.6</ele>
        <time>2017-07-05T10:32:26Z</time>
      </trkpt>
      <trkpt lat="43.64381" lon="3.79392">
        <ele>149.4</ele>
        <time>2017-07-05T10:32:28Z</time>
      </trkpt>
      <trkpt lat="43.64391" lon="3.79395">
        <ele>148.3</ele>
        <time>2017-07-05T10:32:30Z</time>
      </trkpt>
      <trkpt lat="43.64399" lon="3.79397">
        <ele>147</ele>
        <time>2017-07-05T10:32:32Z</time>
      </trkpt>
      <trkpt lat="43.64406" lon="3.79404">
        <ele>147</ele>
        <time>2017-07-05T10:32:35Z</time>
      </trkpt>
      <trkpt lat="43.64405" lon="3.79417">
        <ele>146.7</ele>
        <time>2017-07-05T10:32:38Z</time>
      </trkpt>
      <trkpt lat="43.64399" lon="3.79425">
        <ele>146.3</ele>
        <time>2017-07-05T10:32:40Z</time>
      </trkpt>
      <trkpt lat="43.64395" lon="3.79435">
        <ele>145.9</ele>
        <time>2017-07-05T10:32:42Z</time>
      </trkpt>
      <trkpt lat="43.64401" lon="3.79443">
        <ele>145.3</ele>
        <time>2017-07-05T10:32:46Z</time>
      </trkpt>
      <trkpt lat="43.64409" lon="3.79447">
        <ele>144.7</ele>
        <time>2017-07-05T10:32:51Z</time>
      </trkpt>
      <trkpt lat="43.64417" lon="3.79448">
        <ele>144</ele>
        <time>2017-07-05T10:32:54Z</time>
      </trkpt>
      <trkpt lat="43.64426" lon="3.79447">
        <ele>143.5</ele>
        <time>2017-07-05T10:32:57Z</time>
      </trkpt>
      <trkpt lat="43.64435" lon="3.79448">
        <ele>143</ele>
        <time>2017-07-05T10:33:00Z</time>
      </trkpt>
      <trkpt lat="43.64442" lon="3.79445">
        <ele>142.6</ele>
        <time>2017-07-05T10:33:02Z</time>
      </trkpt>
      <trkpt lat="43.64451" lon="3.79444">
        <ele>141.9</ele>
        <time>2017-07-05T10:33:05Z</time>
      </trkpt>
      <trkpt lat="43.64462" lon="3.79442">
        <ele>138.7</ele>
        <time>2017-07-05T10:33:08Z</time>
      </trkpt>
      <trkpt lat="43.6447" lon="3.79442">
        <ele>136.1</ele>
        <time>2017-07-05T10:33:10Z</time>
      </trkpt>
      <trkpt lat="43.64479" lon="3.79444">
        <ele>131.8</ele>
        <time>2017-07-05T10:33:12Z</time>
      </trkpt>
      <trkpt lat="43.64488" lon="3.79439">
        <ele>127.9</ele>
        <time>2017-07-05T10:33:14Z</time>
      </trkpt>
      <trkpt lat="43.64497" lon="3.79438">
        <ele>124.5</ele>
        <time>2017-07-05T10:33:16Z</time>
      </trkpt>
      <trkpt lat="43.6451" lon="3.79437">
        <ele>122.6</ele>
        <time>2017-07-05T10:33:18Z</time>
      </trkpt>
      <trkpt lat="43.64521" lon="3.79439">
        <ele>119.4</ele>
        <time>2017-07-05T10:33:20Z</time>
      </trkpt>
      <trkpt lat="43.64532" lon="3.79436">
        <ele>116.5</ele>
        <time>2017-07-05T10:33:22Z</time>
      </trkpt>
      <trkpt lat="43.64541" lon="3.79436">
        <ele>115.3</ele>
        <time>2017-07-05T10:33:24Z</time>
      </trkpt>
      <trkpt lat="43.6455" lon="3.79437">
        <ele>115.3</ele>
        <time>2017-07-05T10:33:26Z</time>
      </trkpt>
      <trkpt lat="43.64563" lon="3.79436">
        <ele>114.6</ele>
        <time>2017-07-05T10:33:28Z</time>
      </trkpt>
      <trkpt lat="43.64572" lon="3.79436">
        <ele>114.4</ele>
        <time>2017-07-05T10:33:30Z</time>
      </trkpt>
      <trkpt lat="43.6458" lon="3.79442">
        <ele>113.3</ele>
        <time>2017-07-05T10:33:32Z</time>
      </trkpt>
      <trkpt lat="43.64589" lon="3.7944">
        <ele>113.1</ele>
        <time>2017-07-05T10:33:36Z</time>
      </trkpt>
      <trkpt lat="43.64605" lon="3.79424">
        <ele>111.7</ele>
        <time>2017-07-05T10:33:43Z</time>
      </trkpt>
      <trkpt lat="43.64611" lon="3.79416">
        <ele>109.6</ele>
        <time>2017-07-05T10:33:45Z</time>
      </trkpt>
      <trkpt lat="43.64616" lon="3.79408">
        <ele>109.2</ele>
        <time>2017-07-05T10:33:47Z</time>
      </trkpt>
      <trkpt lat="43.64623" lon="3.79397">
        <ele>108.9</ele>
        <time>2017-07-05T10:33:50Z</time>
      </trkpt>
      <trkpt lat="43.64629" lon="3.79387">
        <ele>108.7</ele>
        <time>2017-07-05T10:33:52Z</time>
      </trkpt>
      <trkpt lat="43.64635" lon="3.79378">
        <ele>108.6</ele>
        <time>2017-07-05T10:33:54Z</time>
      </trkpt>
      <trkpt lat="43.64636" lon="3.79368">
        <ele>108.2</ele>
        <time>2017-07-05T10:33:57Z</time>
      </trkpt>
      <trkpt lat="43.64644" lon="3.79358">
        <ele>106.3</ele>
        <time>2017-07-05T10:34:00Z</time>
      </trkpt>
      <trkpt lat="43.64644" lon="3.79346">
        <ele>106.4</ele>
        <time>2017-07-05T10:34:04Z</time>
      </trkpt>
      <trkpt lat="43.64644" lon="3.79334">
        <ele>106.6</ele>
        <time>2017-07-05T10:34:07Z</time>
      </trkpt>
      <trkpt lat="43.64645" lon="3.79321">
        <ele>107.1</ele>
        <time>2017-07-05T10:34:10Z</time>
      </trkpt>
      <trkpt lat="43.64648" lon="3.79305">
        <ele>107.5</ele>
        <time>2017-07-05T10:34:13Z</time>
      </trkpt>
      <trkpt lat="43.64661" lon="3.79285">
        <ele>107.8</ele>
        <time>2017-07-05T10:34:18Z</time>
      </trkpt>
      <trkpt lat="43.64672" lon="3.79278">
        <ele>107.8</ele>
        <time>2017-07-05T10:34:19Z</time>
      </trkpt>
      <trkpt lat="43.6468" lon="3.79273">
        <ele>107.8</ele>
        <time>2017-07-05T10:34:20Z</time>
      </trkpt>
      <trkpt lat="43.64686" lon="3.79261">
        <ele>108.8</ele>
        <time>2017-07-05T10:34:22Z</time>
      </trkpt>
      <trkpt lat="43.64687" lon="3.79251">
        <ele>108.9</ele>
        <time>2017-07-05T10:34:25Z</time>
      </trkpt>
      <trkpt lat="43.64691" lon="3.79225">
        <ele>109.4</ele>
        <time>2017-07-05T10:34:31Z</time>
      </trkpt>
      <trkpt lat="43.64693" lon="3.79214">
        <ele>110.2</ele>
        <time>2017-07-05T10:34:34Z</time>
      </trkpt>
      <trkpt lat="43.64703" lon="3.79232">
        <ele>121.9</ele>
        <time>2017-07-05T10:34:53Z</time>
      </trkpt>
      <trkpt lat="43.6471" lon="3.7924">
        <ele>123.3</ele>
        <time>2017-07-05T10:34:55Z</time>
      </trkpt>
      <trkpt lat="43.64713" lon="3.7924">
        <ele>122.9</ele>
        <time>2017-07-05T10:35:02Z</time>
      </trkpt>
      <trkpt lat="43.64722" lon="3.79222">
        <ele>122.9</ele>
        <time>2017-07-05T10:35:09Z</time>
      </trkpt>
      <trkpt lat="43.64732" lon="3.7921">
        <ele>122.6</ele>
        <time>2017-07-05T10:35:13Z</time>
      </trkpt>
      <trkpt lat="43.64738" lon="3.792">
        <ele>122.5</ele>
        <time>2017-07-05T10:35:16Z</time>
      </trkpt>
      <trkpt lat="43.64743" lon="3.79189">
        <ele>122.4</ele>
        <time>2017-07-05T10:35:19Z</time>
      </trkpt>
      <trkpt lat="43.64749" lon="3.79182">
        <ele>122.5</ele>
        <time>2017-07-05T10:35:21Z</time>
      </trkpt>
      <trkpt lat="43.64756" lon="3.79174">
        <ele>122.7</ele>
        <time>2017-07-05T10:35:24Z</time>
      </trkpt>
      <trkpt lat="43.64762" lon="3.79163">
        <ele>123</ele>
        <time>2017-07-05T10:35:27Z</time>
      </trkpt>
      <trkpt lat="43.64765" lon="3.79163">
        <ele>123.7</ele>
        <time>2017-07-05T10:35:34Z</time>
      </trkpt>
      <trkpt lat="43.64774" lon="3.79143">
        <ele>123.7</ele>
        <time>2017-07-05T10:35:40Z</time>
      </trkpt>
      <trkpt lat="43.64781" lon="3.79137">
        <ele>123.6</ele>
        <time>2017-07-05T10:35:43Z</time>
      </trkpt>
      <trkpt lat="43.64789" lon="3.79132">
        <ele>123.3</ele>
        <time>2017-07-05T10:35:46Z</time>
      </trkpt>
      <trkpt lat="43.64797" lon="3.79123">
        <ele>122.8</ele>
        <time>2017-07-05T10:35:49Z</time>
      </trkpt>
      <trkpt lat="43.64805" lon="3.79116">
        <ele>120.7</ele>
        <time>2017-07-05T10:35:51Z</time>
      </trkpt>
      <trkpt lat="43.64815" lon="3.79108">
        <ele>117.4</ele>
        <time>2017-07-05T10:35:53Z</time>
      </trkpt>
      <trkpt lat="43.64823" lon="3.79097">
        <ele>116.3</ele>
        <time>2017-07-05T10:35:55Z</time>
      </trkpt>
      <trkpt lat="43.64831" lon="3.79084">
        <ele>116</ele>
        <time>2017-07-05T10:35:57Z</time>
      </trkpt>
      <trkpt lat="43.64839" lon="3.79074">
        <ele>115.9</ele>
        <time>2017-07-05T10:35:59Z</time>
      </trkpt>
      <trkpt lat="43.6485" lon="3.79065">
        <ele>114.6</ele>
        <time>2017-07-05T10:36:01Z</time>
      </trkpt>
      <trkpt lat="43.64859" lon="3.79059">
        <ele>113.4</ele>
        <time>2017-07-05T10:36:03Z</time>
      </trkpt>
      <trkpt lat="43.64867" lon="3.7905">
        <ele>113.1</ele>
        <time>2017-07-05T10:36:05Z</time>
      </trkpt>
      <trkpt lat="43.64876" lon="3.79042">
        <ele>114.1</ele>
        <time>2017-07-05T10:36:07Z</time>
      </trkpt>
      <trkpt lat="43.64885" lon="3.79036">
        <ele>114</ele>
        <time>2017-07-05T10:36:09Z</time>
      </trkpt>
      <trkpt lat="43.64893" lon="3.79034">
        <ele>113.4</ele>
        <time>2017-07-05T10:36:11Z</time>
      </trkpt>
      <trkpt lat="43.64902" lon="3.79033">
        <ele>112.6</ele>
        <time>2017-07-05T10:36:13Z</time>
      </trkpt>
      <trkpt lat="43.64912" lon="3.79027">
        <ele>111.6</ele>
        <time>2017-07-05T10:36:15Z</time>
      </trkpt>
      <trkpt lat="43.64921" lon="3.79018">
        <ele>111.6</ele>
        <time>2017-07-05T10:36:18Z</time>
      </trkpt>
      <trkpt lat="43.64929" lon="3.7901">
        <ele>112.2</ele>
        <time>2017-07-05T10:36:20Z</time>
      </trkpt>
      <trkpt lat="43.6494" lon="3.79003">
        <ele>113.7</ele>
        <time>2017-07-05T10:36:22Z</time>
      </trkpt>
      <trkpt lat="43.64952" lon="3.78997">
        <ele>115</ele>
        <time>2017-07-05T10:36:24Z</time>
      </trkpt>
      <trkpt lat="43.64961" lon="3.78989">
        <ele>115.7</ele>
        <time>2017-07-05T10:36:26Z</time>
      </trkpt>
      <trkpt lat="43.64971" lon="3.78981">
        <ele>117.4</ele>
        <time>2017-07-05T10:36:28Z</time>
      </trkpt>
      <trkpt lat="43.64978" lon="3.78972">
        <ele>117.4</ele>
        <time>2017-07-05T10:36:30Z</time>
      </trkpt>
      <trkpt lat="43.64986" lon="3.78964">
        <ele>117.5</ele>
        <time>2017-07-05T10:36:32Z</time>
      </trkpt>
      <trkpt lat="43.64993" lon="3.78957">
        <ele>117.4</ele>
        <time>2017-07-05T10:36:34Z</time>
      </trkpt>
      <trkpt lat="43.65004" lon="3.7895">
        <ele>118.3</ele>
        <time>2017-07-05T10:36:36Z</time>
      </trkpt>
      <trkpt lat="43.65011" lon="3.78945">
        <ele>118.4</ele>
        <time>2017-07-05T10:36:38Z</time>
      </trkpt>
      <trkpt lat="43.65018" lon="3.7894">
        <ele>118.3</ele>
        <time>2017-07-05T10:36:40Z</time>
      </trkpt>
      <trkpt lat="43.65025" lon="3.78933">
        <ele>118.3</ele>
        <time>2017-07-05T10:36:42Z</time>
      </trkpt>
      <trkpt lat="43.65031" lon="3.78926">
        <ele>118.2</ele>
        <time>2017-07-05T10:36:44Z</time>
      </trkpt>
      <trkpt lat="43.65041" lon="3.78915">
        <ele>117.9</ele>
        <time>2017-07-05T10:36:47Z</time>
      </trkpt>
      <trkpt lat="43.65046" lon="3.78905">
        <ele>118.2</ele>
        <time>2017-07-05T10:36:49Z</time>
      </trkpt>
      <trkpt lat="43.65052" lon="3.78896">
        <ele>118.5</ele>
        <time>2017-07-05T10:36:51Z</time>
      </trkpt>
      <trkpt lat="43.65059" lon="3.78897">
        <ele>118.4</ele>
        <time>2017-07-05T10:36:54Z</time>
      </trkpt>
      <trkpt lat="43.65068" lon="3.78908">
        <ele>117.8</ele>
        <time>2017-07-05T10:36:57Z</time>
      </trkpt>
      <trkpt lat="43.65074" lon="3.78916">
        <ele>117.5</ele>
        <time>2017-07-05T10:36:59Z</time>
      </trkpt>
      <trkpt lat="43.6508" lon="3.78927">
        <ele>115.3</ele>
        <time>2017-07-05T10:37:01Z</time>
      </trkpt>
      <trkpt lat="43.65084" lon="3.7894">
        <ele>113.2</ele>
        <time>2017-07-05T10:37:03Z</time>
      </trkpt>
      <trkpt lat="43.65088" lon="3.78953">
        <ele>112.6</ele>
        <time>2017-07-05T10:37:05Z</time>
      </trkpt>
      <trkpt lat="43.65092" lon="3.78964">
        <ele>112.6</ele>
        <time>2017-07-05T10:37:07Z</time>
      </trkpt>
      <trkpt lat="43.65095" lon="3.78977">
        <ele>110.8</ele>
        <time>2017-07-05T10:37:09Z</time>
      </trkpt>
      <trkpt lat="43.65098" lon="3.78991">
        <ele>109.8</ele>
        <time>2017-07-05T10:37:11Z</time>
      </trkpt>
      <trkpt lat="43.65097" lon="3.79008">
        <ele>111.4</ele>
        <time>2017-07-05T10:37:13Z</time>
      </trkpt>
      <trkpt lat="43.65094" lon="3.79024">
        <ele>112.2</ele>
        <time>2017-07-05T10:37:15Z</time>
      </trkpt>
      <trkpt lat="43.65091" lon="3.79037">
        <ele>113.5</ele>
        <time>2017-07-05T10:37:17Z</time>
      </trkpt>
      <trkpt lat="43.65087" lon="3.79048">
        <ele>113.8</ele>
        <time>2017-07-05T10:37:19Z</time>
      </trkpt>
      <trkpt lat="43.65081" lon="3.79058">
        <ele>114.2</ele>
        <time>2017-07-05T10:37:21Z</time>
      </trkpt>
      <trkpt lat="43.65075" lon="3.79066">
        <ele>114.6</ele>
        <time>2017-07-05T10:37:23Z</time>
      </trkpt>
      <trkpt lat="43.65076" lon="3.79077">
        <ele>114.5</ele>
        <time>2017-07-05T10:37:27Z</time>
      </trkpt>
      <trkpt lat="43.6508" lon="3.79076">
        <ele>113.2</ele>
        <time>2017-07-05T10:37:34Z</time>
      </trkpt>
      <trkpt lat="43.65088" lon="3.79071">
        <ele>113.3</ele>
        <time>2017-07-05T10:37:37Z</time>
      </trkpt>
      <trkpt lat="43.65097" lon="3.79066">
        <ele>113.4</ele>
        <time>2017-07-05T10:37:40Z</time>
      </trkpt>
      <trkpt lat="43.65106" lon="3.79059">
        <ele>114.2</ele>
        <time>2017-07-05T10:37:43Z</time>
      </trkpt>
      <trkpt lat="43.65113" lon="3.79054">
        <ele>114.1</ele>
        <time>2017-07-05T10:37:45Z</time>
      </trkpt>
      <trkpt lat="43.65121" lon="3.79049">
        <ele>112.6</ele>
        <time>2017-07-05T10:37:47Z</time>
      </trkpt>
      <trkpt lat="43.65131" lon="3.79044">
        <ele>112.1</ele>
        <time>2017-07-05T10:37:49Z</time>
      </trkpt>
      <trkpt lat="43.65141" lon="3.7904">
        <ele>111.2</ele>
        <time>2017-07-05T10:37:51Z</time>
      </trkpt>
      <trkpt lat="43.65151" lon="3.7904">
        <ele>112</ele>
        <time>2017-07-05T10:37:53Z</time>
      </trkpt>
      <trkpt lat="43.6516" lon="3.79041">
        <ele>111.7</ele>
        <time>2017-07-05T10:37:55Z</time>
      </trkpt>
      <trkpt lat="43.65171" lon="3.79044">
        <ele>111.2</ele>
        <time>2017-07-05T10:37:57Z</time>
      </trkpt>
      <trkpt lat="43.6518" lon="3.79046">
        <ele>109.4</ele>
        <time>2017-07-05T10:37:59Z</time>
      </trkpt>
      <trkpt lat="43.65193" lon="3.79048">
        <ele>107.3</ele>
        <time>2017-07-05T10:38:02Z</time>
      </trkpt>
      <trkpt lat="43.65199" lon="3.79059">
        <ele>107.5</ele>
        <time>2017-07-05T10:38:04Z</time>
      </trkpt>
      <trkpt lat="43.65205" lon="3.7907">
        <ele>108.5</ele>
        <time>2017-07-05T10:38:06Z</time>
      </trkpt>
      <trkpt lat="43.65214" lon="3.79069">
        <ele>108.8</ele>
        <time>2017-07-05T10:38:10Z</time>
      </trkpt>
      <trkpt lat="43.65221" lon="3.79072">
        <ele>110.5</ele>
        <time>2017-07-05T10:38:12Z</time>
      </trkpt>
      <trkpt lat="43.6523" lon="3.79076">
        <ele>112.3</ele>
        <time>2017-07-05T10:38:14Z</time>
      </trkpt>
      <trkpt lat="43.65237" lon="3.79078">
        <ele>113.5</ele>
        <time>2017-07-05T10:38:16Z</time>
      </trkpt>
      <trkpt lat="43.65245" lon="3.79083">
        <ele>113.6</ele>
        <time>2017-07-05T10:38:19Z</time>
      </trkpt>
      <trkpt lat="43.65251" lon="3.79091">
        <ele>113.7</ele>
        <time>2017-07-05T10:38:22Z</time>
      </trkpt>
      <trkpt lat="43.65257" lon="3.79098">
        <ele>114.5</ele>
        <time>2017-07-05T10:38:29Z</time>
      </trkpt>
      <trkpt lat="43.65267" lon="3.79096">
        <ele>114.8</ele>
        <time>2017-07-05T10:38:32Z</time>
      </trkpt>
      <trkpt lat="43.65279" lon="3.79095">
        <ele>118.7</ele>
        <time>2017-07-05T10:38:35Z</time>
      </trkpt>
      <trkpt lat="43.65287" lon="3.79095">
        <ele>121</ele>
        <time>2017-07-05T10:38:37Z</time>
      </trkpt>
      <trkpt lat="43.65296" lon="3.79096">
        <ele>121.1</ele>
        <time>2017-07-05T10:38:39Z</time>
      </trkpt>
      <trkpt lat="43.65303" lon="3.79099">
        <ele>121.5</ele>
        <time>2017-07-05T10:38:42Z</time>
      </trkpt>
      <trkpt lat="43.6531" lon="3.79103">
        <ele>122.2</ele>
        <time>2017-07-05T10:38:46Z</time>
      </trkpt>
      <trkpt lat="43.65318" lon="3.79111">
        <ele>122.9</ele>
        <time>2017-07-05T10:38:50Z</time>
      </trkpt>
      <trkpt lat="43.65323" lon="3.79116">
        <ele>123.4</ele>
        <time>2017-07-05T10:38:52Z</time>
      </trkpt>
      <trkpt lat="43.6533" lon="3.79125">
        <ele>124.3</ele>
        <time>2017-07-05T10:38:57Z</time>
      </trkpt>
      <trkpt lat="43.65339" lon="3.79124">
        <ele>124.6</ele>
        <time>2017-07-05T10:39:01Z</time>
      </trkpt>
      <trkpt lat="43.6535" lon="3.79125">
        <ele>125</ele>
        <time>2017-07-05T10:39:04Z</time>
      </trkpt>
      <trkpt lat="43.65357" lon="3.79123">
        <ele>126.4</ele>
        <time>2017-07-05T10:39:06Z</time>
      </trkpt>
      <trkpt lat="43.65367" lon="3.79125">
        <ele>127.6</ele>
        <time>2017-07-05T10:39:08Z</time>
      </trkpt>
      <trkpt lat="43.65377" lon="3.79127">
        <ele>128.6</ele>
        <time>2017-07-05T10:39:10Z</time>
      </trkpt>
      <trkpt lat="43.65386" lon="3.79132">
        <ele>129.8</ele>
        <time>2017-07-05T10:39:12Z</time>
      </trkpt>
      <trkpt lat="43.65397" lon="3.79136">
        <ele>130</ele>
        <time>2017-07-05T10:39:14Z</time>
      </trkpt>
      <trkpt lat="43.65408" lon="3.7914">
        <ele>129.6</ele>
        <time>2017-07-05T10:39:16Z</time>
      </trkpt>
      <trkpt lat="43.6542" lon="3.79143">
        <ele>129</ele>
        <time>2017-07-05T10:39:18Z</time>
      </trkpt>
      <trkpt lat="43.6543" lon="3.79145">
        <ele>128.2</ele>
        <time>2017-07-05T10:39:20Z</time>
      </trkpt>
      <trkpt lat="43.65442" lon="3.79147">
        <ele>126.8</ele>
        <time>2017-07-05T10:39:22Z</time>
      </trkpt>
      <trkpt lat="43.65455" lon="3.79149">
        <ele>125.9</ele>
        <time>2017-07-05T10:39:24Z</time>
      </trkpt>
      <trkpt lat="43.65466" lon="3.79154">
        <ele>124.1</ele>
        <time>2017-07-05T10:39:27Z</time>
      </trkpt>
      <trkpt lat="43.65476" lon="3.79152">
        <ele>123.9</ele>
        <time>2017-07-05T10:39:29Z</time>
      </trkpt>
      <trkpt lat="43.65484" lon="3.79152">
        <ele>124.2</ele>
        <time>2017-07-05T10:39:31Z</time>
      </trkpt>
      <trkpt lat="43.65491" lon="3.79152">
        <ele>124.6</ele>
        <time>2017-07-05T10:39:33Z</time>
      </trkpt>
      <trkpt lat="43.655" lon="3.79157">
        <ele>124.6</ele>
        <time>2017-07-05T10:39:35Z</time>
      </trkpt>
      <trkpt lat="43.65509" lon="3.79158">
        <ele>125</ele>
        <time>2017-07-05T10:39:37Z</time>
      </trkpt>
      <trkpt lat="43.65518" lon="3.7916">
        <ele>125.6</ele>
        <time>2017-07-05T10:39:39Z</time>
      </trkpt>
      <trkpt lat="43.65526" lon="3.7916">
        <ele>126.3</ele>
        <time>2017-07-05T10:39:41Z</time>
      </trkpt>
      <trkpt lat="43.65533" lon="3.79158">
        <ele>126.6</ele>
        <time>2017-07-05T10:39:43Z</time>
      </trkpt>
      <trkpt lat="43.65541" lon="3.79159">
        <ele>126.5</ele>
        <time>2017-07-05T10:39:45Z</time>
      </trkpt>
      <trkpt lat="43.65548" lon="3.79163">
        <ele>126.5</ele>
        <time>2017-07-05T10:39:47Z</time>
      </trkpt>
      <trkpt lat="43.65557" lon="3.79171">
        <ele>127</ele>
        <time>2017-07-05T10:39:49Z</time>
      </trkpt>
      <trkpt lat="43.65562" lon="3.79181">
        <ele>127.3</ele>
        <time>2017-07-05T10:39:52Z</time>
      </trkpt>
      <trkpt lat="43.65569" lon="3.79188">
        <ele>127.6</ele>
        <time>2017-07-05T10:39:56Z</time>
      </trkpt>
      <trkpt lat="43.65575" lon="3.79194">
        <ele>127.6</ele>
        <time>2017-07-05T10:39:59Z</time>
      </trkpt>
      <trkpt lat="43.65585" lon="3.792">
        <ele>127.5</ele>
        <time>2017-07-05T10:40:02Z</time>
      </trkpt>
      <trkpt lat="43.6559" lon="3.7921">
        <ele>127.6</ele>
        <time>2017-07-05T10:40:04Z</time>
      </trkpt>
      <trkpt lat="43.65598" lon="3.79215">
        <ele>127.7</ele>
        <time>2017-07-05T10:40:07Z</time>
      </trkpt>
      <trkpt lat="43.65603" lon="3.79222">
        <ele>127.7</ele>
        <time>2017-07-05T10:40:10Z</time>
      </trkpt>
      <trkpt lat="43.65612" lon="3.79226">
        <ele>127.7</ele>
        <time>2017-07-05T10:40:13Z</time>
      </trkpt>
      <trkpt lat="43.65619" lon="3.79231">
        <ele>127.5</ele>
        <time>2017-07-05T10:40:17Z</time>
      </trkpt>
      <trkpt lat="43.65627" lon="3.79235">
        <ele>127.5</ele>
        <time>2017-07-05T10:40:22Z</time>
      </trkpt>
      <trkpt lat="43.65633" lon="3.79242">
        <ele>127.5</ele>
        <time>2017-07-05T10:40:25Z</time>
      </trkpt>
      <trkpt lat="43.65641" lon="3.79248">
        <ele>127.9</ele>
        <time>2017-07-05T10:40:30Z</time>
      </trkpt>
      <trkpt lat="43.6564" lon="3.7926">
        <ele>128.4</ele>
        <time>2017-07-05T10:40:33Z</time>
      </trkpt>
      <trkpt lat="43.65645" lon="3.79267">
        <ele>129.2</ele>
        <time>2017-07-05T10:40:37Z</time>
      </trkpt>
      <trkpt lat="43.65652" lon="3.79273">
        <ele>130</ele>
        <time>2017-07-05T10:40:42Z</time>
      </trkpt>
      <trkpt lat="43.65659" lon="3.79277">
        <ele>131.4</ele>
        <time>2017-07-05T10:40:44Z</time>
      </trkpt>
      <trkpt lat="43.65666" lon="3.79283">
        <ele>131.5</ele>
        <time>2017-07-05T10:40:47Z</time>
      </trkpt>
      <trkpt lat="43.65674" lon="3.79288">
        <ele>131.5</ele>
        <time>2017-07-05T10:40:53Z</time>
      </trkpt>
      <trkpt lat="43.65683" lon="3.7929">
        <ele>131.8</ele>
        <time>2017-07-05T10:40:58Z</time>
      </trkpt>
      <trkpt lat="43.6569" lon="3.79294">
        <ele>131.9</ele>
        <time>2017-07-05T10:41:02Z</time>
      </trkpt>
      <trkpt lat="43.65697" lon="3.79298">
        <ele>132</ele>
        <time>2017-07-05T10:41:05Z</time>
      </trkpt>
      <trkpt lat="43.65704" lon="3.79305">
        <ele>132.2</ele>
        <time>2017-07-05T10:41:08Z</time>
      </trkpt>
      <trkpt lat="43.65713" lon="3.79308">
        <ele>133.9</ele>
        <time>2017-07-05T10:41:12Z</time>
      </trkpt>
      <trkpt lat="43.65722" lon="3.79309">
        <ele>135.2</ele>
        <time>2017-07-05T10:41:14Z</time>
      </trkpt>
      <trkpt lat="43.65732" lon="3.79317">
        <ele>136</ele>
        <time>2017-07-05T10:41:16Z</time>
      </trkpt>
      <trkpt lat="43.65737" lon="3.79327">
        <ele>136.2</ele>
        <time>2017-07-05T10:41:18Z</time>
      </trkpt>
      <trkpt lat="43.65745" lon="3.79338">
        <ele>137.1</ele>
        <time>2017-07-05T10:41:20Z</time>
      </trkpt>
      <trkpt lat="43.65757" lon="3.79344">
        <ele>136.4</ele>
        <time>2017-07-05T10:41:22Z</time>
      </trkpt>
      <trkpt lat="43.65762" lon="3.79353">
        <ele>136</ele>
        <time>2017-07-05T10:41:23Z</time>
      </trkpt>
      <trkpt lat="43.65768" lon="3.79365">
        <ele>134.7</ele>
        <time>2017-07-05T10:41:25Z</time>
      </trkpt>
      <trkpt lat="43.65772" lon="3.79375">
        <ele>133.3</ele>
        <time>2017-07-05T10:41:27Z</time>
      </trkpt>
      <trkpt lat="43.65778" lon="3.79385">
        <ele>131.4</ele>
        <time>2017-07-05T10:41:29Z</time>
      </trkpt>
      <trkpt lat="43.65784" lon="3.79395">
        <ele>130.3</ele>
        <time>2017-07-05T10:41:31Z</time>
      </trkpt>
      <trkpt lat="43.65792" lon="3.79402">
        <ele>130.2</ele>
        <time>2017-07-05T10:41:33Z</time>
      </trkpt>
      <trkpt lat="43.65799" lon="3.79409">
        <ele>130.2</ele>
        <time>2017-07-05T10:41:36Z</time>
      </trkpt>
      <trkpt lat="43.65807" lon="3.79414">
        <ele>130.4</ele>
        <time>2017-07-05T10:41:38Z</time>
      </trkpt>
      <trkpt lat="43.6581" lon="3.79424">
        <ele>130.5</ele>
        <time>2017-07-05T10:41:40Z</time>
      </trkpt>
      <trkpt lat="43.65819" lon="3.79426">
        <ele>130.6</ele>
        <time>2017-07-05T10:41:43Z</time>
      </trkpt>
      <trkpt lat="43.65829" lon="3.79418">
        <ele>130.8</ele>
        <time>2017-07-05T10:41:47Z</time>
      </trkpt>
      <trkpt lat="43.65836" lon="3.79413">
        <ele>131.7</ele>
        <time>2017-07-05T10:41:49Z</time>
      </trkpt>
      <trkpt lat="43.65838" lon="3.79401">
        <ele>133.1</ele>
        <time>2017-07-05T10:41:51Z</time>
      </trkpt>
      <trkpt lat="43.65844" lon="3.79389">
        <ele>133.1</ele>
        <time>2017-07-05T10:41:53Z</time>
      </trkpt>
      <trkpt lat="43.65851" lon="3.79381">
        <ele>133.7</ele>
        <time>2017-07-05T10:41:55Z</time>
      </trkpt>
      <trkpt lat="43.65857" lon="3.79373">
        <ele>133.5</ele>
        <time>2017-07-05T10:41:57Z</time>
      </trkpt>
      <trkpt lat="43.65866" lon="3.79363">
        <ele>133.5</ele>
        <time>2017-07-05T10:41:59Z</time>
      </trkpt>
      <trkpt lat="43.65876" lon="3.79358">
        <ele>131.4</ele>
        <time>2017-07-05T10:42:01Z</time>
      </trkpt>
      <trkpt lat="43.65886" lon="3.79352">
        <ele>131</ele>
        <time>2017-07-05T10:42:04Z</time>
      </trkpt>
      <trkpt lat="43.65895" lon="3.79343">
        <ele>131</ele>
        <time>2017-07-05T10:42:07Z</time>
      </trkpt>
      <trkpt lat="43.65903" lon="3.79336">
        <ele>130.9</ele>
        <time>2017-07-05T10:42:09Z</time>
      </trkpt>
      <trkpt lat="43.65914" lon="3.7933">
        <ele>131.5</ele>
        <time>2017-07-05T10:42:12Z</time>
      </trkpt>
      <trkpt lat="43.65926" lon="3.79331">
        <ele>131.3</ele>
        <time>2017-07-05T10:42:14Z</time>
      </trkpt>
      <trkpt lat="43.65936" lon="3.79331">
        <ele>131.1</ele>
        <time>2017-07-05T10:42:16Z</time>
      </trkpt>
      <trkpt lat="43.65944" lon="3.7933">
        <ele>131.1</ele>
        <time>2017-07-05T10:42:18Z</time>
      </trkpt>
      <trkpt lat="43.65954" lon="3.7933">
        <ele>132.1</ele>
        <time>2017-07-05T10:42:20Z</time>
      </trkpt>
      <trkpt lat="43.65961" lon="3.79332">
        <ele>132.2</ele>
        <time>2017-07-05T10:42:22Z</time>
      </trkpt>
      <trkpt lat="43.65968" lon="3.79334">
        <ele>132.4</ele>
        <time>2017-07-05T10:42:24Z</time>
      </trkpt>
      <trkpt lat="43.65977" lon="3.79338">
        <ele>132.5</ele>
        <time>2017-07-05T10:42:26Z</time>
      </trkpt>
      <trkpt lat="43.65985" lon="3.7934">
        <ele>132.6</ele>
        <time>2017-07-05T10:42:28Z</time>
      </trkpt>
      <trkpt lat="43.65992" lon="3.79342">
        <ele>133.4</ele>
        <time>2017-07-05T10:42:30Z</time>
      </trkpt>
      <trkpt lat="43.66001" lon="3.79343">
        <ele>133.8</ele>
        <time>2017-07-05T10:42:32Z</time>
      </trkpt>
      <trkpt lat="43.6601" lon="3.79347">
        <ele>133.5</ele>
        <time>2017-07-05T10:42:34Z</time>
      </trkpt>
      <trkpt lat="43.66013" lon="3.79358">
        <ele>133.4</ele>
        <time>2017-07-05T10:42:36Z</time>
      </trkpt>
      <trkpt lat="43.66016" lon="3.79369">
        <ele>133.3</ele>
        <time>2017-07-05T10:42:38Z</time>
      </trkpt>
      <trkpt lat="43.66021" lon="3.79377">
        <ele>132.9</ele>
        <time>2017-07-05T10:42:40Z</time>
      </trkpt>
      <trkpt lat="43.66026" lon="3.79389">
        <ele>132.8</ele>
        <time>2017-07-05T10:42:42Z</time>
      </trkpt>
      <trkpt lat="43.66027" lon="3.79402">
        <ele>132.7</ele>
        <time>2017-07-05T10:42:45Z</time>
      </trkpt>
      <trkpt lat="43.66028" lon="3.79414">
        <ele>132.4</ele>
        <time>2017-07-05T10:42:49Z</time>
      </trkpt>
      <trkpt lat="43.66029" lon="3.79428">
        <ele>132.3</ele>
        <time>2017-07-05T10:42:52Z</time>
      </trkpt>
      <trkpt lat="43.66029" lon="3.79441">
        <ele>132.2</ele>
        <time>2017-07-05T10:42:56Z</time>
      </trkpt>
      <trkpt lat="43.66029" lon="3.79455">
        <ele>132.2</ele>
        <time>2017-07-05T10:42:59Z</time>
      </trkpt>
      <trkpt lat="43.66028" lon="3.79468">
        <ele>132.2</ele>
        <time>2017-07-05T10:43:02Z</time>
      </trkpt>
      <trkpt lat="43.66027" lon="3.79481">
        <ele>132</ele>
        <time>2017-07-05T10:43:05Z</time>
      </trkpt>
      <trkpt lat="43.66027" lon="3.79492">
        <ele>131.9</ele>
        <time>2017-07-05T10:43:08Z</time>
      </trkpt>
      <trkpt lat="43.66027" lon="3.79502">
        <ele>131.8</ele>
        <time>2017-07-05T10:43:11Z</time>
      </trkpt>
      <trkpt lat="43.66025" lon="3.79513">
        <ele>131.8</ele>
        <time>2017-07-05T10:43:14Z</time>
      </trkpt>
      <trkpt lat="43.66026" lon="3.79524">
        <ele>131.8</ele>
        <time>2017-07-05T10:43:17Z</time>
      </trkpt>
      <trkpt lat="43.66027" lon="3.79538">
        <ele>132.1</ele>
        <time>2017-07-05T10:43:20Z</time>
      </trkpt>
      <trkpt lat="43.66028" lon="3.79548">
        <ele>132.3</ele>
        <time>2017-07-05T10:43:23Z</time>
      </trkpt>
      <trkpt lat="43.66028" lon="3.7956">
        <ele>132.6</ele>
        <time>2017-07-05T10:43:26Z</time>
      </trkpt>
      <trkpt lat="43.6603" lon="3.79571">
        <ele>132.9</ele>
        <time>2017-07-05T10:43:29Z</time>
      </trkpt>
      <trkpt lat="43.66031" lon="3.79583">
        <ele>133.5</ele>
        <time>2017-07-05T10:43:32Z</time>
      </trkpt>
      <trkpt lat="43.66031" lon="3.79596">
        <ele>134</ele>
        <time>2017-07-05T10:43:35Z</time>
      </trkpt>
      <trkpt lat="43.66032" lon="3.79608">
        <ele>134.4</ele>
        <time>2017-07-05T10:43:38Z</time>
      </trkpt>
      <trkpt lat="43.66029" lon="3.79621">
        <ele>134.5</ele>
        <time>2017-07-05T10:43:41Z</time>
      </trkpt>
      <trkpt lat="43.66028" lon="3.79635">
        <ele>134.9</ele>
        <time>2017-07-05T10:43:44Z</time>
      </trkpt>
      <trkpt lat="43.66026" lon="3.79646">
        <ele>135.1</ele>
        <time>2017-07-05T10:43:46Z</time>
      </trkpt>
      <trkpt lat="43.66023" lon="3.79659">
        <ele>135.5</ele>
        <time>2017-07-05T10:43:49Z</time>
      </trkpt>
      <trkpt lat="43.6602" lon="3.79671">
        <ele>135.8</ele>
        <time>2017-07-05T10:43:52Z</time>
      </trkpt>
      <trkpt lat="43.66018" lon="3.79681">
        <ele>136.2</ele>
        <time>2017-07-05T10:43:55Z</time>
      </trkpt>
      <trkpt lat="43.66016" lon="3.79694">
        <ele>136.6</ele>
        <time>2017-07-05T10:43:59Z</time>
      </trkpt>
      <trkpt lat="43.66013" lon="3.79707">
        <ele>137.1</ele>
        <time>2017-07-05T10:44:02Z</time>
      </trkpt>
      <trkpt lat="43.6601" lon="3.79717">
        <ele>137.4</ele>
        <time>2017-07-05T10:44:05Z</time>
      </trkpt>
      <trkpt lat="43.66006" lon="3.79728">
        <ele>137.8</ele>
        <time>2017-07-05T10:44:09Z</time>
      </trkpt>
      <trkpt lat="43.66003" lon="3.79739">
        <ele>138</ele>
        <time>2017-07-05T10:44:13Z</time>
      </trkpt>
      <trkpt lat="43.66001" lon="3.79749">
        <ele>138.5</ele>
        <time>2017-07-05T10:44:16Z</time>
      </trkpt>
      <trkpt lat="43.66" lon="3.79759">
        <ele>139</ele>
        <time>2017-07-05T10:44:19Z</time>
      </trkpt>
      <trkpt lat="43.66001" lon="3.79771">
        <ele>139.8</ele>
        <time>2017-07-05T10:44:23Z</time>
      </trkpt>
      <trkpt lat="43.65999" lon="3.79784">
        <ele>140.5</ele>
        <time>2017-07-05T10:44:27Z</time>
      </trkpt>
      <trkpt lat="43.65999" lon="3.79796">
        <ele>141.7</ele>
        <time>2017-07-05T10:44:31Z</time>
      </trkpt>
      <trkpt lat="43.65999" lon="3.79805">
        <ele>142.2</ele>
        <time>2017-07-05T10:44:34Z</time>
      </trkpt>
      <trkpt lat="43.66" lon="3.79816">
        <ele>142.6</ele>
        <time>2017-07-05T10:44:37Z</time>
      </trkpt>
      <trkpt lat="43.66001" lon="3.79828">
        <ele>143.2</ele>
        <time>2017-07-05T10:44:41Z</time>
      </trkpt>
      <trkpt lat="43.66" lon="3.79839">
        <ele>143.9</ele>
        <time>2017-07-05T10:44:45Z</time>
      </trkpt>
      <trkpt lat="43.65999" lon="3.79852">
        <ele>144.7</ele>
        <time>2017-07-05T10:44:49Z</time>
      </trkpt>
      <trkpt lat="43.65997" lon="3.79864">
        <ele>145.3</ele>
        <time>2017-07-05T10:44:52Z</time>
      </trkpt>
      <trkpt lat="43.65994" lon="3.79876">
        <ele>145.9</ele>
        <time>2017-07-05T10:44:56Z</time>
      </trkpt>
      <trkpt lat="43.6599" lon="3.79887">
        <ele>146.3</ele>
        <time>2017-07-05T10:45:00Z</time>
      </trkpt>
      <trkpt lat="43.65983" lon="3.79897">
        <ele>146.6</ele>
        <time>2017-07-05T10:45:04Z</time>
      </trkpt>
      <trkpt lat="43.65976" lon="3.79904">
        <ele>147.1</ele>
        <time>2017-07-05T10:45:08Z</time>
      </trkpt>
      <trkpt lat="43.6597" lon="3.7991">
        <ele>147.6</ele>
        <time>2017-07-05T10:45:11Z</time>
      </trkpt>
      <trkpt lat="43.65963" lon="3.79916">
        <ele>148.5</ele>
        <time>2017-07-05T10:45:15Z</time>
      </trkpt>
      <trkpt lat="43.65958" lon="3.79924">
        <ele>149.2</ele>
        <time>2017-07-05T10:45:18Z</time>
      </trkpt>
      <trkpt lat="43.65952" lon="3.79934">
        <ele>150.1</ele>
        <time>2017-07-05T10:45:22Z</time>
      </trkpt>
      <trkpt lat="43.65947" lon="3.79945">
        <ele>150.8</ele>
        <time>2017-07-05T10:45:26Z</time>
      </trkpt>
      <trkpt lat="43.65941" lon="3.79953">
        <ele>151.6</ele>
        <time>2017-07-05T10:45:30Z</time>
      </trkpt>
      <trkpt lat="43.65935" lon="3.79963">
        <ele>152.6</ele>
        <time>2017-07-05T10:45:34Z</time>
      </trkpt>
      <trkpt lat="43.6593" lon="3.79973">
        <ele>153.4</ele>
        <time>2017-07-05T10:45:38Z</time>
      </trkpt>
      <trkpt lat="43.65923" lon="3.7998">
        <ele>154</ele>
        <time>2017-07-05T10:45:41Z</time>
      </trkpt>
      <trkpt lat="43.65917" lon="3.79989">
        <ele>154.8</ele>
        <time>2017-07-05T10:45:45Z</time>
      </trkpt>
      <trkpt lat="43.6591" lon="3.79995">
        <ele>155.5</ele>
        <time>2017-07-05T10:45:48Z</time>
      </trkpt>
      <trkpt lat="43.65902" lon="3.80001">
        <ele>156.4</ele>
        <time>2017-07-05T10:45:52Z</time>
      </trkpt>
      <trkpt lat="43.65892" lon="3.80002">
        <ele>157.5</ele>
        <time>2017-07-05T10:45:56Z</time>
      </trkpt>
      <trkpt lat="43.65885" lon="3.80004">
        <ele>158.3</ele>
        <time>2017-07-05T10:45:59Z</time>
      </trkpt>
      <trkpt lat="43.65878" lon="3.80007">
        <ele>159.3</ele>
        <time>2017-07-05T10:46:02Z</time>
      </trkpt>
      <trkpt lat="43.65868" lon="3.80009">
        <ele>160.3</ele>
        <time>2017-07-05T10:46:06Z</time>
      </trkpt>
      <trkpt lat="43.65861" lon="3.80011">
        <ele>161</ele>
        <time>2017-07-05T10:46:09Z</time>
      </trkpt>
      <trkpt lat="43.65852" lon="3.80013">
        <ele>161.9</ele>
        <time>2017-07-05T10:46:13Z</time>
      </trkpt>
      <trkpt lat="43.65842" lon="3.80014">
        <ele>162.7</ele>
        <time>2017-07-05T10:46:17Z</time>
      </trkpt>
      <trkpt lat="43.65833" lon="3.80014">
        <ele>163.9</ele>
        <time>2017-07-05T10:46:21Z</time>
      </trkpt>
      <trkpt lat="43.65823" lon="3.80015">
        <ele>165.1</ele>
        <time>2017-07-05T10:46:25Z</time>
      </trkpt>
      <trkpt lat="43.65816" lon="3.80016">
        <ele>165.7</ele>
        <time>2017-07-05T10:46:28Z</time>
      </trkpt>
      <trkpt lat="43.65808" lon="3.80017">
        <ele>166.5</ele>
        <time>2017-07-05T10:46:31Z</time>
      </trkpt>
      <trkpt lat="43.65799" lon="3.80019">
        <ele>167.2</ele>
        <time>2017-07-05T10:46:34Z</time>
      </trkpt>
      <trkpt lat="43.65791" lon="3.8002">
        <ele>167.7</ele>
        <time>2017-07-05T10:46:37Z</time>
      </trkpt>
      <trkpt lat="43.65784" lon="3.80021">
        <ele>168.2</ele>
        <time>2017-07-05T10:46:40Z</time>
      </trkpt>
      <trkpt lat="43.65775" lon="3.80022">
        <ele>169</ele>
        <time>2017-07-05T10:46:44Z</time>
      </trkpt>
      <trkpt lat="43.65767" lon="3.80024">
        <ele>169.6</ele>
        <time>2017-07-05T10:46:47Z</time>
      </trkpt>
      <trkpt lat="43.65758" lon="3.80029">
        <ele>170.2</ele>
        <time>2017-07-05T10:46:51Z</time>
      </trkpt>
      <trkpt lat="43.65751" lon="3.80033">
        <ele>170.8</ele>
        <time>2017-07-05T10:46:54Z</time>
      </trkpt>
      <trkpt lat="43.65744" lon="3.80036">
        <ele>171.4</ele>
        <time>2017-07-05T10:46:57Z</time>
      </trkpt>
      <trkpt lat="43.65736" lon="3.80037">
        <ele>172.1</ele>
        <time>2017-07-05T10:47:00Z</time>
      </trkpt>
      <trkpt lat="43.65729" lon="3.8004">
        <ele>172.6</ele>
        <time>2017-07-05T10:47:03Z</time>
      </trkpt>
      <trkpt lat="43.65722" lon="3.80043">
        <ele>173.1</ele>
        <time>2017-07-05T10:47:06Z</time>
      </trkpt>
      <trkpt lat="43.65714" lon="3.80049">
        <ele>173.7</ele>
        <time>2017-07-05T10:47:09Z</time>
      </trkpt>
      <trkpt lat="43.65708" lon="3.80055">
        <ele>174.1</ele>
        <time>2017-07-05T10:47:12Z</time>
      </trkpt>
      <trkpt lat="43.65701" lon="3.80061">
        <ele>174.6</ele>
        <time>2017-07-05T10:47:16Z</time>
      </trkpt>
      <trkpt lat="43.65696" lon="3.80068">
        <ele>175</ele>
        <time>2017-07-05T10:47:19Z</time>
      </trkpt>
      <trkpt lat="43.65691" lon="3.80076">
        <ele>175.5</ele>
        <time>2017-07-05T10:47:22Z</time>
      </trkpt>
      <trkpt lat="43.65684" lon="3.80085">
        <ele>176.5</ele>
        <time>2017-07-05T10:47:26Z</time>
      </trkpt>
      <trkpt lat="43.65677" lon="3.80092">
        <ele>177.3</ele>
        <time>2017-07-05T10:47:29Z</time>
      </trkpt>
      <trkpt lat="43.65669" lon="3.80099">
        <ele>178.4</ele>
        <time>2017-07-05T10:47:33Z</time>
      </trkpt>
      <trkpt lat="43.65661" lon="3.80106">
        <ele>179.3</ele>
        <time>2017-07-05T10:47:37Z</time>
      </trkpt>
      <trkpt lat="43.65655" lon="3.80112">
        <ele>180.3</ele>
        <time>2017-07-05T10:47:41Z</time>
      </trkpt>
      <trkpt lat="43.65647" lon="3.80116">
        <ele>181.4</ele>
        <time>2017-07-05T10:47:45Z</time>
      </trkpt>
      <trkpt lat="43.65639" lon="3.80122">
        <ele>182.3</ele>
        <time>2017-07-05T10:47:49Z</time>
      </trkpt>
      <trkpt lat="43.65632" lon="3.80128">
        <ele>183.1</ele>
        <time>2017-07-05T10:47:52Z</time>
      </trkpt>
      <trkpt lat="43.65625" lon="3.80136">
        <ele>183.7</ele>
        <time>2017-07-05T10:47:56Z</time>
      </trkpt>
      <trkpt lat="43.65619" lon="3.80144">
        <ele>184.3</ele>
        <time>2017-07-05T10:47:59Z</time>
      </trkpt>
      <trkpt lat="43.65615" lon="3.80151">
        <ele>185</ele>
        <time>2017-07-05T10:48:02Z</time>
      </trkpt>
      <trkpt lat="43.65609" lon="3.80161">
        <ele>185.9</ele>
        <time>2017-07-05T10:48:06Z</time>
      </trkpt>
      <trkpt lat="43.65603" lon="3.80171">
        <ele>186.7</ele>
        <time>2017-07-05T10:48:10Z</time>
      </trkpt>
      <trkpt lat="43.65596" lon="3.80179">
        <ele>187.3</ele>
        <time>2017-07-05T10:48:13Z</time>
      </trkpt>
      <trkpt lat="43.65591" lon="3.80188">
        <ele>187.8</ele>
        <time>2017-07-05T10:48:16Z</time>
      </trkpt>
      <trkpt lat="43.65583" lon="3.80197">
        <ele>188.3</ele>
        <time>2017-07-05T10:48:20Z</time>
      </trkpt>
      <trkpt lat="43.65576" lon="3.80203">
        <ele>188.6</ele>
        <time>2017-07-05T10:48:23Z</time>
      </trkpt>
      <trkpt lat="43.65568" lon="3.80211">
        <ele>188.8</ele>
        <time>2017-07-05T10:48:26Z</time>
      </trkpt>
      <trkpt lat="43.6556" lon="3.80217">
        <ele>189.1</ele>
        <time>2017-07-05T10:48:29Z</time>
      </trkpt>
      <trkpt lat="43.65553" lon="3.8022">
        <ele>189.4</ele>
        <time>2017-07-05T10:48:31Z</time>
      </trkpt>
      <trkpt lat="43.65544" lon="3.80224">
        <ele>189.9</ele>
        <time>2017-07-05T10:48:34Z</time>
      </trkpt>
      <trkpt lat="43.65536" lon="3.8023">
        <ele>190</ele>
        <time>2017-07-05T10:48:37Z</time>
      </trkpt>
      <trkpt lat="43.65527" lon="3.80234">
        <ele>190.2</ele>
        <time>2017-07-05T10:48:40Z</time>
      </trkpt>
      <trkpt lat="43.6552" lon="3.80237">
        <ele>190.3</ele>
        <time>2017-07-05T10:48:42Z</time>
      </trkpt>
      <trkpt lat="43.65512" lon="3.80242">
        <ele>192.4</ele>
        <time>2017-07-05T10:48:44Z</time>
      </trkpt>
      <trkpt lat="43.65505" lon="3.80249">
        <ele>193.1</ele>
        <time>2017-07-05T10:48:46Z</time>
      </trkpt>
      <trkpt lat="43.65498" lon="3.80255">
        <ele>193.1</ele>
        <time>2017-07-05T10:48:48Z</time>
      </trkpt>
      <trkpt lat="43.65491" lon="3.80262">
        <ele>193.2</ele>
        <time>2017-07-05T10:48:50Z</time>
      </trkpt>
      <trkpt lat="43.65483" lon="3.8027">
        <ele>191.6</ele>
        <time>2017-07-05T10:48:52Z</time>
      </trkpt>
      <trkpt lat="43.65479" lon="3.80278">
        <ele>190.1</ele>
        <time>2017-07-05T10:48:54Z</time>
      </trkpt>
      <trkpt lat="43.65479" lon="3.8029">
        <ele>190</ele>
        <time>2017-07-05T10:48:56Z</time>
      </trkpt>
      <trkpt lat="43.65481" lon="3.80301">
        <ele>190.1</ele>
        <time>2017-07-05T10:48:58Z</time>
      </trkpt>
      <trkpt lat="43.65487" lon="3.8031">
        <ele>191.8</ele>
        <time>2017-07-05T10:49:00Z</time>
      </trkpt>
      <trkpt lat="43.65494" lon="3.80316">
        <ele>192.1</ele>
        <time>2017-07-05T10:49:02Z</time>
      </trkpt>
      <trkpt lat="43.65499" lon="3.80324">
        <ele>191.3</ele>
        <time>2017-07-05T10:49:06Z</time>
      </trkpt>
      <trkpt lat="43.65497" lon="3.80336">
        <ele>191.5</ele>
        <time>2017-07-05T10:49:09Z</time>
      </trkpt>
      <trkpt lat="43.65504" lon="3.80343">
        <ele>191.8</ele>
        <time>2017-07-05T10:49:14Z</time>
      </trkpt>
      <trkpt lat="43.65513" lon="3.80348">
        <ele>191.7</ele>
        <time>2017-07-05T10:49:18Z</time>
      </trkpt>
      <trkpt lat="43.6552" lon="3.80358">
        <ele>191.5</ele>
        <time>2017-07-05T10:49:21Z</time>
      </trkpt>
      <trkpt lat="43.65527" lon="3.80363">
        <ele>191.4</ele>
        <time>2017-07-05T10:49:23Z</time>
      </trkpt>
      <trkpt lat="43.65535" lon="3.80366">
        <ele>191.4</ele>
        <time>2017-07-05T10:49:25Z</time>
      </trkpt>
      <trkpt lat="43.65543" lon="3.8037">
        <ele>192</ele>
        <time>2017-07-05T10:49:27Z</time>
      </trkpt>
      <trkpt lat="43.65554" lon="3.80373">
        <ele>191.9</ele>
        <time>2017-07-05T10:49:29Z</time>
      </trkpt>
      <trkpt lat="43.65565" lon="3.80377">
        <ele>191.6</ele>
        <time>2017-07-05T10:49:31Z</time>
      </trkpt>
      <trkpt lat="43.65576" lon="3.80381">
        <ele>191.5</ele>
        <time>2017-07-05T10:49:33Z</time>
      </trkpt>
      <trkpt lat="43.65585" lon="3.80383">
        <ele>189.8</ele>
        <time>2017-07-05T10:49:35Z</time>
      </trkpt>
      <trkpt lat="43.65595" lon="3.80388">
        <ele>189.4</ele>
        <time>2017-07-05T10:49:37Z</time>
      </trkpt>
      <trkpt lat="43.65606" lon="3.80394">
        <ele>190</ele>
        <time>2017-07-05T10:49:39Z</time>
      </trkpt>
      <trkpt lat="43.65622" lon="3.80405">
        <ele>191.2</ele>
        <time>2017-07-05T10:49:41Z</time>
      </trkpt>
      <trkpt lat="43.65633" lon="3.80409">
        <ele>190.5</ele>
        <time>2017-07-05T10:49:42Z</time>
      </trkpt>
      <trkpt lat="43.6564" lon="3.80412">
        <ele>189.2</ele>
        <time>2017-07-05T10:49:43Z</time>
      </trkpt>
      <trkpt lat="43.65648" lon="3.80415">
        <ele>188</ele>
        <time>2017-07-05T10:49:44Z</time>
      </trkpt>
      <trkpt lat="43.65657" lon="3.80422">
        <ele>186.5</ele>
        <time>2017-07-05T10:49:46Z</time>
      </trkpt>
      <trkpt lat="43.65668" lon="3.80425">
        <ele>184.5</ele>
        <time>2017-07-05T10:49:48Z</time>
      </trkpt>
      <trkpt lat="43.65678" lon="3.80427">
        <ele>181</ele>
        <time>2017-07-05T10:49:50Z</time>
      </trkpt>
      <trkpt lat="43.65687" lon="3.80429">
        <ele>180</ele>
        <time>2017-07-05T10:49:52Z</time>
      </trkpt>
      <trkpt lat="43.65695" lon="3.80435">
        <ele>179.3</ele>
        <time>2017-07-05T10:49:54Z</time>
      </trkpt>
      <trkpt lat="43.65705" lon="3.80436">
        <ele>179.5</ele>
        <time>2017-07-05T10:49:56Z</time>
      </trkpt>
      <trkpt lat="43.65712" lon="3.80441">
        <ele>179.6</ele>
        <time>2017-07-05T10:49:58Z</time>
      </trkpt>
      <trkpt lat="43.65721" lon="3.80447">
        <ele>180.3</ele>
        <time>2017-07-05T10:50:00Z</time>
      </trkpt>
      <trkpt lat="43.65728" lon="3.80453">
        <ele>180.4</ele>
        <time>2017-07-05T10:50:02Z</time>
      </trkpt>
      <trkpt lat="43.65735" lon="3.8046">
        <ele>180.3</ele>
        <time>2017-07-05T10:50:04Z</time>
      </trkpt>
      <trkpt lat="43.65744" lon="3.80462">
        <ele>180.1</ele>
        <time>2017-07-05T10:50:06Z</time>
      </trkpt>
      <trkpt lat="43.65752" lon="3.80465">
        <ele>180.9</ele>
        <time>2017-07-05T10:50:08Z</time>
      </trkpt>
      <trkpt lat="43.6576" lon="3.80469">
        <ele>181.5</ele>
        <time>2017-07-05T10:50:10Z</time>
      </trkpt>
      <trkpt lat="43.6577" lon="3.80469">
        <ele>181.2</ele>
        <time>2017-07-05T10:50:12Z</time>
      </trkpt>
      <trkpt lat="43.6578" lon="3.8047">
        <ele>181.2</ele>
        <time>2017-07-05T10:50:14Z</time>
      </trkpt>
      <trkpt lat="43.65787" lon="3.80473">
        <ele>181.2</ele>
        <time>2017-07-05T10:50:16Z</time>
      </trkpt>
      <trkpt lat="43.65798" lon="3.8048">
        <ele>180.9</ele>
        <time>2017-07-05T10:50:18Z</time>
      </trkpt>
      <trkpt lat="43.65808" lon="3.80482">
        <ele>179.1</ele>
        <time>2017-07-05T10:50:20Z</time>
      </trkpt>
      <trkpt lat="43.6582" lon="3.80484">
        <ele>176.9</ele>
        <time>2017-07-05T10:50:22Z</time>
      </trkpt>
      <trkpt lat="43.65828" lon="3.80488">
        <ele>176.5</ele>
        <time>2017-07-05T10:50:24Z</time>
      </trkpt>
      <trkpt lat="43.65838" lon="3.80496">
        <ele>176.3</ele>
        <time>2017-07-05T10:50:27Z</time>
      </trkpt>
      <trkpt lat="43.65846" lon="3.80504">
        <ele>176.2</ele>
        <time>2017-07-05T10:50:30Z</time>
      </trkpt>
      <trkpt lat="43.65856" lon="3.80511">
        <ele>176.5</ele>
        <time>2017-07-05T10:50:32Z</time>
      </trkpt>
      <trkpt lat="43.65863" lon="3.80515">
        <ele>176.4</ele>
        <time>2017-07-05T10:50:34Z</time>
      </trkpt>
      <trkpt lat="43.65869" lon="3.80519">
        <ele>176.9</ele>
        <time>2017-07-05T10:50:36Z</time>
      </trkpt>
      <trkpt lat="43.65878" lon="3.80523">
        <ele>177.2</ele>
        <time>2017-07-05T10:50:39Z</time>
      </trkpt>
      <trkpt lat="43.65885" lon="3.80524">
        <ele>177.1</ele>
        <time>2017-07-05T10:50:41Z</time>
      </trkpt>
      <trkpt lat="43.65894" lon="3.80527">
        <ele>177.4</ele>
        <time>2017-07-05T10:50:43Z</time>
      </trkpt>
      <trkpt lat="43.65902" lon="3.80531">
        <ele>177.7</ele>
        <time>2017-07-05T10:50:45Z</time>
      </trkpt>
      <trkpt lat="43.65909" lon="3.80536">
        <ele>177.9</ele>
        <time>2017-07-05T10:50:47Z</time>
      </trkpt>
      <trkpt lat="43.65916" lon="3.80542">
        <ele>178.2</ele>
        <time>2017-07-05T10:50:49Z</time>
      </trkpt>
      <trkpt lat="43.65925" lon="3.80547">
        <ele>178.6</ele>
        <time>2017-07-05T10:50:51Z</time>
      </trkpt>
      <trkpt lat="43.65932" lon="3.80553">
        <ele>178.6</ele>
        <time>2017-07-05T10:50:53Z</time>
      </trkpt>
      <trkpt lat="43.65932" lon="3.80568">
        <ele>178.8</ele>
        <time>2017-07-05T10:50:55Z</time>
      </trkpt>
      <trkpt lat="43.65928" lon="3.80577">
        <ele>178.9</ele>
        <time>2017-07-05T10:50:57Z</time>
      </trkpt>
      <trkpt lat="43.65932" lon="3.80586">
        <ele>179</ele>
        <time>2017-07-05T10:50:59Z</time>
      </trkpt>
      <trkpt lat="43.65935" lon="3.80602">
        <ele>179.6</ele>
        <time>2017-07-05T10:51:06Z</time>
      </trkpt>
      <trkpt lat="43.65932" lon="3.80612">
        <ele>178.4</ele>
        <time>2017-07-05T10:51:08Z</time>
      </trkpt>
      <trkpt lat="43.6593" lon="3.80626">
        <ele>177.9</ele>
        <time>2017-07-05T10:51:11Z</time>
      </trkpt>
      <trkpt lat="43.65927" lon="3.80636">
        <ele>177.5</ele>
        <time>2017-07-05T10:51:13Z</time>
      </trkpt>
      <trkpt lat="43.6592" lon="3.8064">
        <ele>177</ele>
        <time>2017-07-05T10:51:15Z</time>
      </trkpt>
      <trkpt lat="43.65911" lon="3.80644">
        <ele>172.2</ele>
        <time>2017-07-05T10:51:17Z</time>
      </trkpt>
      <trkpt lat="43.65909" lon="3.80656">
        <ele>169.5</ele>
        <time>2017-07-05T10:51:20Z</time>
      </trkpt>
      <trkpt lat="43.65911" lon="3.80669">
        <ele>163.3</ele>
        <time>2017-07-05T10:51:23Z</time>
      </trkpt>
      <trkpt lat="43.65915" lon="3.80681">
        <ele>160.8</ele>
        <time>2017-07-05T10:51:25Z</time>
      </trkpt>
      <trkpt lat="43.65921" lon="3.80695">
        <ele>158.5</ele>
        <time>2017-07-05T10:51:27Z</time>
      </trkpt>
      <trkpt lat="43.65929" lon="3.8071">
        <ele>156.2</ele>
        <time>2017-07-05T10:51:29Z</time>
      </trkpt>
      <trkpt lat="43.65926" lon="3.80722">
        <ele>154.6</ele>
        <time>2017-07-05T10:51:31Z</time>
      </trkpt>
      <trkpt lat="43.65919" lon="3.80734">
        <ele>152.3</ele>
        <time>2017-07-05T10:51:33Z</time>
      </trkpt>
      <trkpt lat="43.65912" lon="3.80748">
        <ele>150.5</ele>
        <time>2017-07-05T10:51:35Z</time>
      </trkpt>
      <trkpt lat="43.65904" lon="3.8076">
        <ele>149.4</ele>
        <time>2017-07-05T10:51:37Z</time>
      </trkpt>
      <trkpt lat="43.65898" lon="3.80773">
        <ele>147.3</ele>
        <time>2017-07-05T10:51:39Z</time>
      </trkpt>
      <trkpt lat="43.65889" lon="3.80774">
        <ele>145.4</ele>
        <time>2017-07-05T10:51:41Z</time>
      </trkpt>
      <trkpt lat="43.65881" lon="3.80771">
        <ele>144.8</ele>
        <time>2017-07-05T10:51:43Z</time>
      </trkpt>
      <trkpt lat="43.65873" lon="3.80768">
        <ele>143.7</ele>
        <time>2017-07-05T10:51:45Z</time>
      </trkpt>
      <trkpt lat="43.65864" lon="3.80765">
        <ele>142.9</ele>
        <time>2017-07-05T10:51:47Z</time>
      </trkpt>
      <trkpt lat="43.65854" lon="3.8076">
        <ele>141.5</ele>
        <time>2017-07-05T10:51:49Z</time>
      </trkpt>
      <trkpt lat="43.65847" lon="3.80754">
        <ele>140.8</ele>
        <time>2017-07-05T10:51:51Z</time>
      </trkpt>
      <trkpt lat="43.65835" lon="3.80753">
        <ele>140.6</ele>
        <time>2017-07-05T10:51:53Z</time>
      </trkpt>
      <trkpt lat="43.65825" lon="3.80751">
        <ele>140.9</ele>
        <time>2017-07-05T10:51:55Z</time>
      </trkpt>
      <trkpt lat="43.65815" lon="3.80745">
        <ele>141.1</ele>
        <time>2017-07-05T10:51:57Z</time>
      </trkpt>
      <trkpt lat="43.65805" lon="3.80737">
        <ele>142.3</ele>
        <time>2017-07-05T10:51:59Z</time>
      </trkpt>
      <trkpt lat="43.65793" lon="3.80732">
        <ele>142.2</ele>
        <time>2017-07-05T10:52:01Z</time>
      </trkpt>
      <trkpt lat="43.65785" lon="3.80732">
        <ele>141.4</ele>
        <time>2017-07-05T10:52:03Z</time>
      </trkpt>
      <trkpt lat="43.65774" lon="3.8073">
        <ele>140</ele>
        <time>2017-07-05T10:52:06Z</time>
      </trkpt>
      <trkpt lat="43.65766" lon="3.80727">
        <ele>139.3</ele>
        <time>2017-07-05T10:52:08Z</time>
      </trkpt>
      <trkpt lat="43.65757" lon="3.80723">
        <ele>139.2</ele>
        <time>2017-07-05T10:52:11Z</time>
      </trkpt>
      <trkpt lat="43.65749" lon="3.8072">
        <ele>139.1</ele>
        <time>2017-07-05T10:52:13Z</time>
      </trkpt>
      <trkpt lat="43.6574" lon="3.80714">
        <ele>139.1</ele>
        <time>2017-07-05T10:52:16Z</time>
      </trkpt>
      <trkpt lat="43.65732" lon="3.8071">
        <ele>138.9</ele>
        <time>2017-07-05T10:52:18Z</time>
      </trkpt>
      <trkpt lat="43.65723" lon="3.80703">
        <ele>139.9</ele>
        <time>2017-07-05T10:52:20Z</time>
      </trkpt>
      <trkpt lat="43.65714" lon="3.80699">
        <ele>140</ele>
        <time>2017-07-05T10:52:22Z</time>
      </trkpt>
      <trkpt lat="43.65706" lon="3.807">
        <ele>139.6</ele>
        <time>2017-07-05T10:52:24Z</time>
      </trkpt>
      <trkpt lat="43.65696" lon="3.80703">
        <ele>138.6</ele>
        <time>2017-07-05T10:52:26Z</time>
      </trkpt>
      <trkpt lat="43.65688" lon="3.80704">
        <ele>138.5</ele>
        <time>2017-07-05T10:52:27Z</time>
      </trkpt>
      <trkpt lat="43.65681" lon="3.80706">
        <ele>138</ele>
        <time>2017-07-05T10:52:28Z</time>
      </trkpt>
      <trkpt lat="43.65674" lon="3.80711">
        <ele>137.5</ele>
        <time>2017-07-05T10:52:29Z</time>
      </trkpt>
      <trkpt lat="43.65661" lon="3.8072">
        <ele>136.4</ele>
        <time>2017-07-05T10:52:31Z</time>
      </trkpt>
      <trkpt lat="43.65648" lon="3.80728">
        <ele>136.6</ele>
        <time>2017-07-05T10:52:33Z</time>
      </trkpt>
      <trkpt lat="43.65635" lon="3.80736">
        <ele>137</ele>
        <time>2017-07-05T10:52:35Z</time>
      </trkpt>
      <trkpt lat="43.65628" lon="3.80741">
        <ele>137.1</ele>
        <time>2017-07-05T10:52:36Z</time>
      </trkpt>
      <trkpt lat="43.6562" lon="3.80746">
        <ele>137</ele>
        <time>2017-07-05T10:52:37Z</time>
      </trkpt>
      <trkpt lat="43.65613" lon="3.80752">
        <ele>137</ele>
        <time>2017-07-05T10:52:38Z</time>
      </trkpt>
      <trkpt lat="43.65607" lon="3.80758">
        <ele>137.1</ele>
        <time>2017-07-05T10:52:39Z</time>
      </trkpt>
      <trkpt lat="43.65596" lon="3.80768">
        <ele>136.8</ele>
        <time>2017-07-05T10:52:41Z</time>
      </trkpt>
      <trkpt lat="43.65589" lon="3.80775">
        <ele>136.3</ele>
        <time>2017-07-05T10:52:42Z</time>
      </trkpt>
      <trkpt lat="43.65583" lon="3.80781">
        <ele>135.9</ele>
        <time>2017-07-05T10:52:43Z</time>
      </trkpt>
      <trkpt lat="43.65577" lon="3.80787">
        <ele>135.3</ele>
        <time>2017-07-05T10:52:44Z</time>
      </trkpt>
      <trkpt lat="43.6557" lon="3.80791">
        <ele>134.9</ele>
        <time>2017-07-05T10:52:45Z</time>
      </trkpt>
      <trkpt lat="43.65562" lon="3.80791">
        <ele>134.4</ele>
        <time>2017-07-05T10:52:46Z</time>
      </trkpt>
      <trkpt lat="43.6555" lon="3.80786">
        <ele>133.9</ele>
        <time>2017-07-05T10:52:48Z</time>
      </trkpt>
      <trkpt lat="43.65537" lon="3.8078">
        <ele>133.8</ele>
        <time>2017-07-05T10:52:50Z</time>
      </trkpt>
      <trkpt lat="43.65527" lon="3.80776">
        <ele>133.6</ele>
        <time>2017-07-05T10:52:52Z</time>
      </trkpt>
      <trkpt lat="43.65517" lon="3.80774">
        <ele>133.5</ele>
        <time>2017-07-05T10:52:54Z</time>
      </trkpt>
      <trkpt lat="43.65505" lon="3.80777">
        <ele>132.5</ele>
        <time>2017-07-05T10:52:56Z</time>
      </trkpt>
      <trkpt lat="43.65491" lon="3.80775">
        <ele>132.8</ele>
        <time>2017-07-05T10:52:58Z</time>
      </trkpt>
      <trkpt lat="43.6548" lon="3.80767">
        <ele>133.5</ele>
        <time>2017-07-05T10:53:00Z</time>
      </trkpt>
      <trkpt lat="43.65468" lon="3.80761">
        <ele>133.4</ele>
        <time>2017-07-05T10:53:02Z</time>
      </trkpt>
      <trkpt lat="43.65456" lon="3.80758">
        <ele>132.6</ele>
        <time>2017-07-05T10:53:04Z</time>
      </trkpt>
      <trkpt lat="43.65444" lon="3.80758">
        <ele>132.2</ele>
        <time>2017-07-05T10:53:06Z</time>
      </trkpt>
      <trkpt lat="43.65432" lon="3.80757">
        <ele>132</ele>
        <time>2017-07-05T10:53:08Z</time>
      </trkpt>
      <trkpt lat="43.65422" lon="3.80754">
        <ele>131.2</ele>
        <time>2017-07-05T10:53:10Z</time>
      </trkpt>
      <trkpt lat="43.65413" lon="3.80752">
        <ele>130.3</ele>
        <time>2017-07-05T10:53:12Z</time>
      </trkpt>
      <trkpt lat="43.65404" lon="3.80746">
        <ele>130.4</ele>
        <time>2017-07-05T10:53:14Z</time>
      </trkpt>
      <trkpt lat="43.65395" lon="3.80744">
        <ele>129</ele>
        <time>2017-07-05T10:53:16Z</time>
      </trkpt>
      <trkpt lat="43.65385" lon="3.80741">
        <ele>128.9</ele>
        <time>2017-07-05T10:53:18Z</time>
      </trkpt>
      <trkpt lat="43.65374" lon="3.80738">
        <ele>129.5</ele>
        <time>2017-07-05T10:53:20Z</time>
      </trkpt>
      <trkpt lat="43.65363" lon="3.80734">
        <ele>129.1</ele>
        <time>2017-07-05T10:53:22Z</time>
      </trkpt>
      <trkpt lat="43.65351" lon="3.80732">
        <ele>128.8</ele>
        <time>2017-07-05T10:53:24Z</time>
      </trkpt>
      <trkpt lat="43.65339" lon="3.80745">
        <ele>128.2</ele>
        <time>2017-07-05T10:53:26Z</time>
      </trkpt>
      <trkpt lat="43.65332" lon="3.80759">
        <ele>128.1</ele>
        <time>2017-07-05T10:53:28Z</time>
      </trkpt>
      <trkpt lat="43.65327" lon="3.80769">
        <ele>129</ele>
        <time>2017-07-05T10:53:29Z</time>
      </trkpt>
      <trkpt lat="43.65319" lon="3.80786">
        <ele>129.3</ele>
        <time>2017-07-05T10:53:31Z</time>
      </trkpt>
      <trkpt lat="43.65315" lon="3.80796">
        <ele>129</ele>
        <time>2017-07-05T10:53:32Z</time>
      </trkpt>
      <trkpt lat="43.6531" lon="3.80806">
        <ele>128.7</ele>
        <time>2017-07-05T10:53:33Z</time>
      </trkpt>
      <trkpt lat="43.65305" lon="3.80816">
        <ele>128.3</ele>
        <time>2017-07-05T10:53:34Z</time>
      </trkpt>
      <trkpt lat="43.653" lon="3.80825">
        <ele>127.8</ele>
        <time>2017-07-05T10:53:35Z</time>
      </trkpt>
      <trkpt lat="43.65296" lon="3.80834">
        <ele>127.2</ele>
        <time>2017-07-05T10:53:36Z</time>
      </trkpt>
      <trkpt lat="43.65293" lon="3.80844">
        <ele>126.3</ele>
        <time>2017-07-05T10:53:37Z</time>
      </trkpt>
      <trkpt lat="43.65289" lon="3.80852">
        <ele>125.6</ele>
        <time>2017-07-05T10:53:38Z</time>
      </trkpt>
      <trkpt lat="43.65285" lon="3.80862">
        <ele>125.4</ele>
        <time>2017-07-05T10:53:39Z</time>
      </trkpt>
      <trkpt lat="43.65281" lon="3.80871">
        <ele>124.9</ele>
        <time>2017-07-05T10:53:40Z</time>
      </trkpt>
      <trkpt lat="43.65277" lon="3.80881">
        <ele>124.5</ele>
        <time>2017-07-05T10:53:41Z</time>
      </trkpt>
      <trkpt lat="43.65273" lon="3.8089">
        <ele>124.3</ele>
        <time>2017-07-05T10:53:42Z</time>
      </trkpt>
      <trkpt lat="43.65265" lon="3.80905">
        <ele>122.7</ele>
        <time>2017-07-05T10:53:44Z</time>
      </trkpt>
      <trkpt lat="43.65258" lon="3.80919">
        <ele>122.8</ele>
        <time>2017-07-05T10:53:46Z</time>
      </trkpt>
      <trkpt lat="43.65253" lon="3.80929">
        <ele>122.9</ele>
        <time>2017-07-05T10:53:48Z</time>
      </trkpt>
      <trkpt lat="43.65249" lon="3.80937">
        <ele>122.8</ele>
        <time>2017-07-05T10:53:51Z</time>
      </trkpt>
      <trkpt lat="43.65247" lon="3.80953">
        <ele>122.6</ele>
        <time>2017-07-05T10:53:54Z</time>
      </trkpt>
      <trkpt lat="43.65244" lon="3.80964">
        <ele>123</ele>
        <time>2017-07-05T10:53:56Z</time>
      </trkpt>
      <trkpt lat="43.65239" lon="3.80973">
        <ele>123.2</ele>
        <time>2017-07-05T10:53:58Z</time>
      </trkpt>
      <trkpt lat="43.65235" lon="3.80982">
        <ele>122.2</ele>
        <time>2017-07-05T10:54:00Z</time>
      </trkpt>
      <trkpt lat="43.6523" lon="3.80993">
        <ele>122</ele>
        <time>2017-07-05T10:54:02Z</time>
      </trkpt>
      <trkpt lat="43.65224" lon="3.81006">
        <ele>121.2</ele>
        <time>2017-07-05T10:54:04Z</time>
      </trkpt>
      <trkpt lat="43.65218" lon="3.81017">
        <ele>121.1</ele>
        <time>2017-07-05T10:54:06Z</time>
      </trkpt>
      <trkpt lat="43.65211" lon="3.81027">
        <ele>121.8</ele>
        <time>2017-07-05T10:54:08Z</time>
      </trkpt>
      <trkpt lat="43.65206" lon="3.81037">
        <ele>122.8</ele>
        <time>2017-07-05T10:54:10Z</time>
      </trkpt>
      <trkpt lat="43.65202" lon="3.81049">
        <ele>123.6</ele>
        <time>2017-07-05T10:54:12Z</time>
      </trkpt>
      <trkpt lat="43.65198" lon="3.81058">
        <ele>123.3</ele>
        <time>2017-07-05T10:54:14Z</time>
      </trkpt>
      <trkpt lat="43.65192" lon="3.81066">
        <ele>123.1</ele>
        <time>2017-07-05T10:54:16Z</time>
      </trkpt>
      <trkpt lat="43.65185" lon="3.81076">
        <ele>123.3</ele>
        <time>2017-07-05T10:54:18Z</time>
      </trkpt>
      <trkpt lat="43.65181" lon="3.81088">
        <ele>123.7</ele>
        <time>2017-07-05T10:54:20Z</time>
      </trkpt>
      <trkpt lat="43.65179" lon="3.81099">
        <ele>123.7</ele>
        <time>2017-07-05T10:54:22Z</time>
      </trkpt>
      <trkpt lat="43.65174" lon="3.8111">
        <ele>123.9</ele>
        <time>2017-07-05T10:54:24Z</time>
      </trkpt>
      <trkpt lat="43.65171" lon="3.81124">
        <ele>124</ele>
        <time>2017-07-05T10:54:27Z</time>
      </trkpt>
      <trkpt lat="43.65173" lon="3.81135">
        <ele>124.1</ele>
        <time>2017-07-05T10:54:30Z</time>
      </trkpt>
      <trkpt lat="43.65179" lon="3.81146">
        <ele>124.2</ele>
        <time>2017-07-05T10:54:33Z</time>
      </trkpt>
      <trkpt lat="43.65184" lon="3.81153">
        <ele>124.3</ele>
        <time>2017-07-05T10:54:36Z</time>
      </trkpt>
      <trkpt lat="43.65192" lon="3.81162">
        <ele>124.5</ele>
        <time>2017-07-05T10:54:39Z</time>
      </trkpt>
      <trkpt lat="43.65199" lon="3.8117">
        <ele>125.6</ele>
        <time>2017-07-05T10:54:41Z</time>
      </trkpt>
      <trkpt lat="43.65206" lon="3.81178">
        <ele>126.2</ele>
        <time>2017-07-05T10:54:43Z</time>
      </trkpt>
      <trkpt lat="43.65214" lon="3.81185">
        <ele>126.8</ele>
        <time>2017-07-05T10:54:45Z</time>
      </trkpt>
      <trkpt lat="43.65222" lon="3.8119">
        <ele>126.9</ele>
        <time>2017-07-05T10:54:47Z</time>
      </trkpt>
      <trkpt lat="43.65228" lon="3.81199">
        <ele>126</ele>
        <time>2017-07-05T10:54:49Z</time>
      </trkpt>
      <trkpt lat="43.65232" lon="3.81206">
        <ele>125.1</ele>
        <time>2017-07-05T10:54:51Z</time>
      </trkpt>
      <trkpt lat="43.65232" lon="3.81223">
        <ele>124.6</ele>
        <time>2017-07-05T10:54:53Z</time>
      </trkpt>
      <trkpt lat="43.65234" lon="3.81239">
        <ele>123.7</ele>
        <time>2017-07-05T10:54:55Z</time>
      </trkpt>
      <trkpt lat="43.65237" lon="3.81255">
        <ele>122.5</ele>
        <time>2017-07-05T10:54:57Z</time>
      </trkpt>
      <trkpt lat="43.65236" lon="3.8127">
        <ele>122.1</ele>
        <time>2017-07-05T10:54:59Z</time>
      </trkpt>
      <trkpt lat="43.65237" lon="3.81286">
        <ele>121.4</ele>
        <time>2017-07-05T10:55:01Z</time>
      </trkpt>
      <trkpt lat="43.65239" lon="3.81297">
        <ele>121.4</ele>
        <time>2017-07-05T10:55:04Z</time>
      </trkpt>
      <trkpt lat="43.65243" lon="3.81307">
        <ele>121.4</ele>
        <time>2017-07-05T10:55:06Z</time>
      </trkpt>
      <trkpt lat="43.65246" lon="3.81317">
        <ele>122.4</ele>
        <time>2017-07-05T10:55:08Z</time>
      </trkpt>
      <trkpt lat="43.65249" lon="3.81328">
        <ele>122.6</ele>
        <time>2017-07-05T10:55:10Z</time>
      </trkpt>
      <trkpt lat="43.65251" lon="3.81338">
        <ele>122</ele>
        <time>2017-07-05T10:55:12Z</time>
      </trkpt>
      <trkpt lat="43.65253" lon="3.8135">
        <ele>122.1</ele>
        <time>2017-07-05T10:55:15Z</time>
      </trkpt>
      <trkpt lat="43.65255" lon="3.81361">
        <ele>122.2</ele>
        <time>2017-07-05T10:55:17Z</time>
      </trkpt>
      <trkpt lat="43.65256" lon="3.81371">
        <ele>122.2</ele>
        <time>2017-07-05T10:55:19Z</time>
      </trkpt>
      <trkpt lat="43.65261" lon="3.81383">
        <ele>123.3</ele>
        <time>2017-07-05T10:55:21Z</time>
      </trkpt>
      <trkpt lat="43.65265" lon="3.81393">
        <ele>123.3</ele>
        <time>2017-07-05T10:55:24Z</time>
      </trkpt>
      <trkpt lat="43.65268" lon="3.81404">
        <ele>123.3</ele>
        <time>2017-07-05T10:55:27Z</time>
      </trkpt>
      <trkpt lat="43.6527" lon="3.81418">
        <ele>123.1</ele>
        <time>2017-07-05T10:55:30Z</time>
      </trkpt>
      <trkpt lat="43.65272" lon="3.8143">
        <ele>122.8</ele>
        <time>2017-07-05T10:55:32Z</time>
      </trkpt>
      <trkpt lat="43.65273" lon="3.81442">
        <ele>121.9</ele>
        <time>2017-07-05T10:55:34Z</time>
      </trkpt>
      <trkpt lat="43.65275" lon="3.81452">
        <ele>122.1</ele>
        <time>2017-07-05T10:55:36Z</time>
      </trkpt>
      <trkpt lat="43.65277" lon="3.81465">
        <ele>123.2</ele>
        <time>2017-07-05T10:55:38Z</time>
      </trkpt>
      <trkpt lat="43.65281" lon="3.81475">
        <ele>123.2</ele>
        <time>2017-07-05T10:55:40Z</time>
      </trkpt>
      <trkpt lat="43.65285" lon="3.81485">
        <ele>123.1</ele>
        <time>2017-07-05T10:55:42Z</time>
      </trkpt>
      <trkpt lat="43.65289" lon="3.81494">
        <ele>123.4</ele>
        <time>2017-07-05T10:55:44Z</time>
      </trkpt>
      <trkpt lat="43.65292" lon="3.81505">
        <ele>122.7</ele>
        <time>2017-07-05T10:55:46Z</time>
      </trkpt>
      <trkpt lat="43.65296" lon="3.81516">
        <ele>122.9</ele>
        <time>2017-07-05T10:55:48Z</time>
      </trkpt>
      <trkpt lat="43.65299" lon="3.81525">
        <ele>122.3</ele>
        <time>2017-07-05T10:55:50Z</time>
      </trkpt>
      <trkpt lat="43.65303" lon="3.81536">
        <ele>122.1</ele>
        <time>2017-07-05T10:55:52Z</time>
      </trkpt>
      <trkpt lat="43.65306" lon="3.81546">
        <ele>122.2</ele>
        <time>2017-07-05T10:55:54Z</time>
      </trkpt>
      <trkpt lat="43.65307" lon="3.81558">
        <ele>122.3</ele>
        <time>2017-07-05T10:55:57Z</time>
      </trkpt>
      <trkpt lat="43.65313" lon="3.81569">
        <ele>122.4</ele>
        <time>2017-07-05T10:56:00Z</time>
      </trkpt>
      <trkpt lat="43.65315" lon="3.81581">
        <ele>122.8</ele>
        <time>2017-07-05T10:56:03Z</time>
      </trkpt>
      <trkpt lat="43.65317" lon="3.81595">
        <ele>123.2</ele>
        <time>2017-07-05T10:56:06Z</time>
      </trkpt>
      <trkpt lat="43.6532" lon="3.8161">
        <ele>123.4</ele>
        <time>2017-07-05T10:56:09Z</time>
      </trkpt>
      <trkpt lat="43.65323" lon="3.81623">
        <ele>123.6</ele>
        <time>2017-07-05T10:56:12Z</time>
      </trkpt>
      <trkpt lat="43.65326" lon="3.81632">
        <ele>123.9</ele>
        <time>2017-07-05T10:56:14Z</time>
      </trkpt>
      <trkpt lat="43.65329" lon="3.81645">
        <ele>125.1</ele>
        <time>2017-07-05T10:56:16Z</time>
      </trkpt>
      <trkpt lat="43.65332" lon="3.8166">
        <ele>126.1</ele>
        <time>2017-07-05T10:56:19Z</time>
      </trkpt>
      <trkpt lat="43.65336" lon="3.81672">
        <ele>127.2</ele>
        <time>2017-07-05T10:56:21Z</time>
      </trkpt>
      <trkpt lat="43.65339" lon="3.81682">
        <ele>127.4</ele>
        <time>2017-07-05T10:56:23Z</time>
      </trkpt>
      <trkpt lat="43.65342" lon="3.81695">
        <ele>127.2</ele>
        <time>2017-07-05T10:56:25Z</time>
      </trkpt>
      <trkpt lat="43.65346" lon="3.81705">
        <ele>126.9</ele>
        <time>2017-07-05T10:56:27Z</time>
      </trkpt>
      <trkpt lat="43.65352" lon="3.81717">
        <ele>126.3</ele>
        <time>2017-07-05T10:56:29Z</time>
      </trkpt>
      <trkpt lat="43.65358" lon="3.81728">
        <ele>126.1</ele>
        <time>2017-07-05T10:56:31Z</time>
      </trkpt>
      <trkpt lat="43.65361" lon="3.81741">
        <ele>127.3</ele>
        <time>2017-07-05T10:56:33Z</time>
      </trkpt>
      <trkpt lat="43.65367" lon="3.81752">
        <ele>127.4</ele>
        <time>2017-07-05T10:56:36Z</time>
      </trkpt>
      <trkpt lat="43.65373" lon="3.81761">
        <ele>127.8</ele>
        <time>2017-07-05T10:56:39Z</time>
      </trkpt>
      <trkpt lat="43.65379" lon="3.81771">
        <ele>129</ele>
        <time>2017-07-05T10:56:42Z</time>
      </trkpt>
      <trkpt lat="43.65387" lon="3.81782">
        <ele>129.2</ele>
        <time>2017-07-05T10:56:45Z</time>
      </trkpt>
      <trkpt lat="43.65393" lon="3.81798">
        <ele>131.6</ele>
        <time>2017-07-05T10:56:47Z</time>
      </trkpt>
      <trkpt lat="43.65396" lon="3.81808">
        <ele>132.6</ele>
        <time>2017-07-05T10:56:48Z</time>
      </trkpt>
      <trkpt lat="43.65398" lon="3.81819">
        <ele>132.1</ele>
        <time>2017-07-05T10:56:49Z</time>
      </trkpt>
      <trkpt lat="43.65406" lon="3.81831">
        <ele>130.7</ele>
        <time>2017-07-05T10:56:51Z</time>
      </trkpt>
      <trkpt lat="43.65417" lon="3.81832">
        <ele>129.2</ele>
        <time>2017-07-05T10:56:53Z</time>
      </trkpt>
      <trkpt lat="43.65426" lon="3.8183">
        <ele>128.1</ele>
        <time>2017-07-05T10:56:55Z</time>
      </trkpt>
      <trkpt lat="43.65436" lon="3.81826">
        <ele>125.8</ele>
        <time>2017-07-05T10:56:57Z</time>
      </trkpt>
      <trkpt lat="43.65449" lon="3.81823">
        <ele>124.2</ele>
        <time>2017-07-05T10:56:59Z</time>
      </trkpt>
      <trkpt lat="43.6546" lon="3.81818">
        <ele>123.4</ele>
        <time>2017-07-05T10:57:01Z</time>
      </trkpt>
      <trkpt lat="43.65472" lon="3.81813">
        <ele>123.5</ele>
        <time>2017-07-05T10:57:03Z</time>
      </trkpt>
      <trkpt lat="43.65482" lon="3.81805">
        <ele>122.7</ele>
        <time>2017-07-05T10:57:05Z</time>
      </trkpt>
      <trkpt lat="43.65491" lon="3.81799">
        <ele>121.9</ele>
        <time>2017-07-05T10:57:07Z</time>
      </trkpt>
      <trkpt lat="43.655" lon="3.8179">
        <ele>121.1</ele>
        <time>2017-07-05T10:57:09Z</time>
      </trkpt>
      <trkpt lat="43.65511" lon="3.8178">
        <ele>119.9</ele>
        <time>2017-07-05T10:57:11Z</time>
      </trkpt>
      <trkpt lat="43.65521" lon="3.81771">
        <ele>119.3</ele>
        <time>2017-07-05T10:57:13Z</time>
      </trkpt>
      <trkpt lat="43.65532" lon="3.81761">
        <ele>118.8</ele>
        <time>2017-07-05T10:57:15Z</time>
      </trkpt>
      <trkpt lat="43.65542" lon="3.81752">
        <ele>118.9</ele>
        <time>2017-07-05T10:57:17Z</time>
      </trkpt>
      <trkpt lat="43.65552" lon="3.81743">
        <ele>118.1</ele>
        <time>2017-07-05T10:57:19Z</time>
      </trkpt>
      <trkpt lat="43.65562" lon="3.81733">
        <ele>116.7</ele>
        <time>2017-07-05T10:57:21Z</time>
      </trkpt>
      <trkpt lat="43.65572" lon="3.81724">
        <ele>115.9</ele>
        <time>2017-07-05T10:57:23Z</time>
      </trkpt>
      <trkpt lat="43.65583" lon="3.81714">
        <ele>116.3</ele>
        <time>2017-07-05T10:57:25Z</time>
      </trkpt>
      <trkpt lat="43.65593" lon="3.81704">
        <ele>117.7</ele>
        <time>2017-07-05T10:57:27Z</time>
      </trkpt>
      <trkpt lat="43.65603" lon="3.81693">
        <ele>118.6</ele>
        <time>2017-07-05T10:57:29Z</time>
      </trkpt>
      <trkpt lat="43.65615" lon="3.81688">
        <ele>119.8</ele>
        <time>2017-07-05T10:57:31Z</time>
      </trkpt>
      <trkpt lat="43.65625" lon="3.81683">
        <ele>121.6</ele>
        <time>2017-07-05T10:57:33Z</time>
      </trkpt>
      <trkpt lat="43.65635" lon="3.8168">
        <ele>123.6</ele>
        <time>2017-07-05T10:57:35Z</time>
      </trkpt>
      <trkpt lat="43.65645" lon="3.81674">
        <ele>124.2</ele>
        <time>2017-07-05T10:57:37Z</time>
      </trkpt>
      <trkpt lat="43.65654" lon="3.81671">
        <ele>125.3</ele>
        <time>2017-07-05T10:57:39Z</time>
      </trkpt>
      <trkpt lat="43.65661" lon="3.81668">
        <ele>125.9</ele>
        <time>2017-07-05T10:57:41Z</time>
      </trkpt>
      <trkpt lat="43.65671" lon="3.81664">
        <ele>125.8</ele>
        <time>2017-07-05T10:57:44Z</time>
      </trkpt>
      <trkpt lat="43.65681" lon="3.81662">
        <ele>125.6</ele>
        <time>2017-07-05T10:57:47Z</time>
      </trkpt>
      <trkpt lat="43.6569" lon="3.81664">
        <ele>125.1</ele>
        <time>2017-07-05T10:57:49Z</time>
      </trkpt>
      <trkpt lat="43.65698" lon="3.81667">
        <ele>126.1</ele>
        <time>2017-07-05T10:57:51Z</time>
      </trkpt>
      <trkpt lat="43.65705" lon="3.81657">
        <ele>127</ele>
        <time>2017-07-05T10:57:54Z</time>
      </trkpt>
      <trkpt lat="43.65711" lon="3.81647">
        <ele>127.2</ele>
        <time>2017-07-05T10:57:57Z</time>
      </trkpt>
      <trkpt lat="43.65715" lon="3.81639">
        <ele>127.6</ele>
        <time>2017-07-05T10:58:00Z</time>
      </trkpt>
      <trkpt lat="43.6572" lon="3.81631">
        <ele>127.9</ele>
        <time>2017-07-05T10:58:03Z</time>
      </trkpt>
      <trkpt lat="43.65728" lon="3.81622">
        <ele>128.1</ele>
        <time>2017-07-05T10:58:06Z</time>
      </trkpt>
      <trkpt lat="43.65737" lon="3.81615">
        <ele>128.4</ele>
        <time>2017-07-05T10:58:09Z</time>
      </trkpt>
      <trkpt lat="43.65744" lon="3.8161">
        <ele>129.3</ele>
        <time>2017-07-05T10:58:11Z</time>
      </trkpt>
      <trkpt lat="43.65755" lon="3.81602">
        <ele>130.1</ele>
        <time>2017-07-05T10:58:13Z</time>
      </trkpt>
      <trkpt lat="43.65763" lon="3.81597">
        <ele>129.8</ele>
        <time>2017-07-05T10:58:15Z</time>
      </trkpt>
      <trkpt lat="43.65771" lon="3.81589">
        <ele>129</ele>
        <time>2017-07-05T10:58:17Z</time>
      </trkpt>
      <trkpt lat="43.65778" lon="3.81579">
        <ele>129</ele>
        <time>2017-07-05T10:58:19Z</time>
      </trkpt>
      <trkpt lat="43.65787" lon="3.8157">
        <ele>128.8</ele>
        <time>2017-07-05T10:58:21Z</time>
      </trkpt>
      <trkpt lat="43.65795" lon="3.81562">
        <ele>128.9</ele>
        <time>2017-07-05T10:58:23Z</time>
      </trkpt>
      <trkpt lat="43.65802" lon="3.81555">
        <ele>129.9</ele>
        <time>2017-07-05T10:58:25Z</time>
      </trkpt>
      <trkpt lat="43.65809" lon="3.81547">
        <ele>129.6</ele>
        <time>2017-07-05T10:58:27Z</time>
      </trkpt>
      <trkpt lat="43.65819" lon="3.81539">
        <ele>129.8</ele>
        <time>2017-07-05T10:58:29Z</time>
      </trkpt>
      <trkpt lat="43.65828" lon="3.8153">
        <ele>127.9</ele>
        <time>2017-07-05T10:58:31Z</time>
      </trkpt>
      <trkpt lat="43.65836" lon="3.81521">
        <ele>127</ele>
        <time>2017-07-05T10:58:33Z</time>
      </trkpt>
      <trkpt lat="43.65845" lon="3.81513">
        <ele>126.8</ele>
        <time>2017-07-05T10:58:35Z</time>
      </trkpt>
      <trkpt lat="43.65854" lon="3.81504">
        <ele>127.2</ele>
        <time>2017-07-05T10:58:37Z</time>
      </trkpt>
      <trkpt lat="43.65864" lon="3.81493">
        <ele>125.5</ele>
        <time>2017-07-05T10:58:39Z</time>
      </trkpt>
      <trkpt lat="43.65872" lon="3.81485">
        <ele>125.1</ele>
        <time>2017-07-05T10:58:41Z</time>
      </trkpt>
      <trkpt lat="43.65882" lon="3.81478">
        <ele>125.2</ele>
        <time>2017-07-05T10:58:43Z</time>
      </trkpt>
      <trkpt lat="43.65891" lon="3.81469">
        <ele>124.9</ele>
        <time>2017-07-05T10:58:45Z</time>
      </trkpt>
      <trkpt lat="43.65899" lon="3.81457">
        <ele>125.3</ele>
        <time>2017-07-05T10:58:47Z</time>
      </trkpt>
      <trkpt lat="43.65904" lon="3.81451">
        <ele>125.8</ele>
        <time>2017-07-05T10:58:48Z</time>
      </trkpt>
      <trkpt lat="43.65914" lon="3.8144">
        <ele>128</ele>
        <time>2017-07-05T10:58:50Z</time>
      </trkpt>
      <trkpt lat="43.65925" lon="3.81431">
        <ele>128.2</ele>
        <time>2017-07-05T10:58:52Z</time>
      </trkpt>
      <trkpt lat="43.65936" lon="3.81423">
        <ele>128.5</ele>
        <time>2017-07-05T10:58:54Z</time>
      </trkpt>
      <trkpt lat="43.65948" lon="3.81416">
        <ele>128.6</ele>
        <time>2017-07-05T10:58:56Z</time>
      </trkpt>
      <trkpt lat="43.65961" lon="3.8141">
        <ele>128.3</ele>
        <time>2017-07-05T10:58:58Z</time>
      </trkpt>
      <trkpt lat="43.65974" lon="3.81404">
        <ele>129.7</ele>
        <time>2017-07-05T10:59:00Z</time>
      </trkpt>
      <trkpt lat="43.65985" lon="3.81399">
        <ele>130.3</ele>
        <time>2017-07-05T10:59:02Z</time>
      </trkpt>
      <trkpt lat="43.65994" lon="3.81396">
        <ele>130.3</ele>
        <time>2017-07-05T10:59:04Z</time>
      </trkpt>
      <trkpt lat="43.66004" lon="3.81392">
        <ele>130.4</ele>
        <time>2017-07-05T10:59:06Z</time>
      </trkpt>
      <trkpt lat="43.66015" lon="3.8139">
        <ele>129.4</ele>
        <time>2017-07-05T10:59:08Z</time>
      </trkpt>
      <trkpt lat="43.66024" lon="3.81386">
        <ele>129.2</ele>
        <time>2017-07-05T10:59:10Z</time>
      </trkpt>
      <trkpt lat="43.66033" lon="3.81383">
        <ele>129.7</ele>
        <time>2017-07-05T10:59:12Z</time>
      </trkpt>
      <trkpt lat="43.66041" lon="3.8138">
        <ele>129.9</ele>
        <time>2017-07-05T10:59:14Z</time>
      </trkpt>
      <trkpt lat="43.66049" lon="3.81375">
        <ele>129.3</ele>
        <time>2017-07-05T10:59:16Z</time>
      </trkpt>
      <trkpt lat="43.66058" lon="3.8137">
        <ele>130.2</ele>
        <time>2017-07-05T10:59:18Z</time>
      </trkpt>
      <trkpt lat="43.66067" lon="3.81366">
        <ele>131.5</ele>
        <time>2017-07-05T10:59:20Z</time>
      </trkpt>
      <trkpt lat="43.66075" lon="3.81361">
        <ele>131.4</ele>
        <time>2017-07-05T10:59:22Z</time>
      </trkpt>
      <trkpt lat="43.66083" lon="3.81358">
        <ele>131.3</ele>
        <time>2017-07-05T10:59:24Z</time>
      </trkpt>
      <trkpt lat="43.66093" lon="3.81352">
        <ele>130.8</ele>
        <time>2017-07-05T10:59:26Z</time>
      </trkpt>
      <trkpt lat="43.66101" lon="3.81348">
        <ele>130.1</ele>
        <time>2017-07-05T10:59:28Z</time>
      </trkpt>
      <trkpt lat="43.66109" lon="3.81344">
        <ele>130.1</ele>
        <time>2017-07-05T10:59:30Z</time>
      </trkpt>
      <trkpt lat="43.66115" lon="3.81341">
        <ele>130.1</ele>
        <time>2017-07-05T10:59:32Z</time>
      </trkpt>
      <trkpt lat="43.66125" lon="3.81336">
        <ele>130.3</ele>
        <time>2017-07-05T10:59:35Z</time>
      </trkpt>
      <trkpt lat="43.66133" lon="3.81331">
        <ele>130.4</ele>
        <time>2017-07-05T10:59:38Z</time>
      </trkpt>
      <trkpt lat="43.66141" lon="3.81332">
        <ele>130.6</ele>
        <time>2017-07-05T10:59:41Z</time>
      </trkpt>
      <trkpt lat="43.66144" lon="3.81345">
        <ele>130.9</ele>
        <time>2017-07-05T10:59:45Z</time>
      </trkpt>
      <trkpt lat="43.66146" lon="3.81357">
        <ele>131.3</ele>
        <time>2017-07-05T10:59:49Z</time>
      </trkpt>
      <trkpt lat="43.66148" lon="3.81366">
        <ele>131.6</ele>
        <time>2017-07-05T10:59:52Z</time>
      </trkpt>
      <trkpt lat="43.66151" lon="3.81377">
        <ele>132.2</ele>
        <time>2017-07-05T10:59:56Z</time>
      </trkpt>
      <trkpt lat="43.66154" lon="3.81387">
        <ele>133.1</ele>
        <time>2017-07-05T11:00:01Z</time>
      </trkpt>
      <trkpt lat="43.66158" lon="3.81397">
        <ele>134</ele>
        <time>2017-07-05T11:00:05Z</time>
      </trkpt>
      <trkpt lat="43.66166" lon="3.81405">
        <ele>134.9</ele>
        <time>2017-07-05T11:00:09Z</time>
      </trkpt>
      <trkpt lat="43.66169" lon="3.81416">
        <ele>135.9</ele>
        <time>2017-07-05T11:00:13Z</time>
      </trkpt>
      <trkpt lat="43.66168" lon="3.81428">
        <ele>136.6</ele>
        <time>2017-07-05T11:00:17Z</time>
      </trkpt>
      <trkpt lat="43.66165" lon="3.81439">
        <ele>136.9</ele>
        <time>2017-07-05T11:00:20Z</time>
      </trkpt>
      <trkpt lat="43.66164" lon="3.81448">
        <ele>137.2</ele>
        <time>2017-07-05T11:00:24Z</time>
      </trkpt>
      <trkpt lat="43.66169" lon="3.81457">
        <ele>137.6</ele>
        <time>2017-07-05T11:00:28Z</time>
      </trkpt>
      <trkpt lat="43.66175" lon="3.81463">
        <ele>138.6</ele>
        <time>2017-07-05T11:00:33Z</time>
      </trkpt>
      <trkpt lat="43.66182" lon="3.81471">
        <ele>139.4</ele>
        <time>2017-07-05T11:00:38Z</time>
      </trkpt>
      <trkpt lat="43.66187" lon="3.81478">
        <ele>140.6</ele>
        <time>2017-07-05T11:00:44Z</time>
      </trkpt>
      <trkpt lat="43.66191" lon="3.81491">
        <ele>141.6</ele>
        <time>2017-07-05T11:00:49Z</time>
      </trkpt>
      <trkpt lat="43.66191" lon="3.81502">
        <ele>142.7</ele>
        <time>2017-07-05T11:00:53Z</time>
      </trkpt>
      <trkpt lat="43.66194" lon="3.81511">
        <ele>144.1</ele>
        <time>2017-07-05T11:00:58Z</time>
      </trkpt>
      <trkpt lat="43.66196" lon="3.81513">
        <ele>145.5</ele>
        <time>2017-07-05T11:01:05Z</time>
      </trkpt>
      <trkpt lat="43.662" lon="3.81527">
        <ele>146.2</ele>
        <time>2017-07-05T11:01:09Z</time>
      </trkpt>
      <trkpt lat="43.66203" lon="3.81536">
        <ele>148.3</ele>
        <time>2017-07-05T11:01:16Z</time>
      </trkpt>
      <trkpt lat="43.66205" lon="3.81548">
        <ele>149.6</ele>
        <time>2017-07-05T11:01:21Z</time>
      </trkpt>
      <trkpt lat="43.66203" lon="3.81559">
        <ele>150.2</ele>
        <time>2017-07-05T11:01:26Z</time>
      </trkpt>
      <trkpt lat="43.66206" lon="3.81566">
        <ele>150.8</ele>
        <time>2017-07-05T11:01:33Z</time>
      </trkpt>
      <trkpt lat="43.66213" lon="3.81571">
        <ele>151.7</ele>
        <time>2017-07-05T11:01:37Z</time>
      </trkpt>
      <trkpt lat="43.66216" lon="3.81581">
        <ele>152.2</ele>
        <time>2017-07-05T11:01:40Z</time>
      </trkpt>
      <trkpt lat="43.66216" lon="3.81587">
        <ele>153.4</ele>
        <time>2017-07-05T11:01:47Z</time>
      </trkpt>
      <trkpt lat="43.66221" lon="3.81609">
        <ele>154.1</ele>
        <time>2017-07-05T11:01:51Z</time>
      </trkpt>
      <trkpt lat="43.66218" lon="3.81622">
        <ele>154.7</ele>
        <time>2017-07-05T11:01:54Z</time>
      </trkpt>
      <trkpt lat="43.66214" lon="3.81632">
        <ele>155.1</ele>
        <time>2017-07-05T11:01:57Z</time>
      </trkpt>
      <trkpt lat="43.66213" lon="3.81642">
        <ele>155.5</ele>
        <time>2017-07-05T11:02:00Z</time>
      </trkpt>
      <trkpt lat="43.66219" lon="3.81653">
        <ele>156.5</ele>
        <time>2017-07-05T11:02:06Z</time>
      </trkpt>
      <trkpt lat="43.66225" lon="3.81667">
        <ele>157.8</ele>
        <time>2017-07-05T11:02:12Z</time>
      </trkpt>
      <trkpt lat="43.66228" lon="3.81679">
        <ele>158.2</ele>
        <time>2017-07-05T11:02:14Z</time>
      </trkpt>
      <trkpt lat="43.66229" lon="3.8169">
        <ele>158.6</ele>
        <time>2017-07-05T11:02:16Z</time>
      </trkpt>
      <trkpt lat="43.66232" lon="3.81702">
        <ele>159.7</ele>
        <time>2017-07-05T11:02:20Z</time>
      </trkpt>
      <trkpt lat="43.66234" lon="3.81712">
        <ele>160.7</ele>
        <time>2017-07-05T11:02:24Z</time>
      </trkpt>
      <trkpt lat="43.66234" lon="3.81725">
        <ele>161</ele>
        <time>2017-07-05T11:02:26Z</time>
      </trkpt>
      <trkpt lat="43.66234" lon="3.81736">
        <ele>161.4</ele>
        <time>2017-07-05T11:02:28Z</time>
      </trkpt>
      <trkpt lat="43.66235" lon="3.8175">
        <ele>161.8</ele>
        <time>2017-07-05T11:02:31Z</time>
      </trkpt>
      <trkpt lat="43.66236" lon="3.81761">
        <ele>162</ele>
        <time>2017-07-05T11:02:33Z</time>
      </trkpt>
      <trkpt lat="43.66232" lon="3.81772">
        <ele>162.2</ele>
        <time>2017-07-05T11:02:35Z</time>
      </trkpt>
      <trkpt lat="43.66229" lon="3.81786">
        <ele>162.2</ele>
        <time>2017-07-05T11:02:37Z</time>
      </trkpt>
      <trkpt lat="43.66229" lon="3.81802">
        <ele>162.6</ele>
        <time>2017-07-05T11:02:39Z</time>
      </trkpt>
      <trkpt lat="43.66228" lon="3.81817">
        <ele>163.1</ele>
        <time>2017-07-05T11:02:41Z</time>
      </trkpt>
      <trkpt lat="43.66232" lon="3.81827">
        <ele>163.5</ele>
        <time>2017-07-05T11:02:43Z</time>
      </trkpt>
      <trkpt lat="43.6623" lon="3.81842">
        <ele>163.5</ele>
        <time>2017-07-05T11:02:45Z</time>
      </trkpt>
      <trkpt lat="43.66225" lon="3.81851">
        <ele>162.7</ele>
        <time>2017-07-05T11:02:47Z</time>
      </trkpt>
      <trkpt lat="43.66222" lon="3.81865">
        <ele>160.5</ele>
        <time>2017-07-05T11:02:50Z</time>
      </trkpt>
      <trkpt lat="43.6622" lon="3.81877">
        <ele>160.4</ele>
        <time>2017-07-05T11:02:53Z</time>
      </trkpt>
      <trkpt lat="43.66218" lon="3.81888">
        <ele>158.7</ele>
        <time>2017-07-05T11:02:55Z</time>
      </trkpt>
      <trkpt lat="43.66217" lon="3.81899">
        <ele>158.2</ele>
        <time>2017-07-05T11:02:57Z</time>
      </trkpt>
      <trkpt lat="43.66217" lon="3.81912">
        <ele>157.2</ele>
        <time>2017-07-05T11:02:59Z</time>
      </trkpt>
      <trkpt lat="43.66215" lon="3.81924">
        <ele>156.4</ele>
        <time>2017-07-05T11:03:01Z</time>
      </trkpt>
      <trkpt lat="43.66214" lon="3.81936">
        <ele>155.5</ele>
        <time>2017-07-05T11:03:03Z</time>
      </trkpt>
      <trkpt lat="43.66215" lon="3.81946">
        <ele>155.5</ele>
        <time>2017-07-05T11:03:05Z</time>
      </trkpt>
      <trkpt lat="43.66217" lon="3.81957">
        <ele>155.7</ele>
        <time>2017-07-05T11:03:07Z</time>
      </trkpt>
      <trkpt lat="43.66215" lon="3.81972">
        <ele>156.7</ele>
        <time>2017-07-05T11:03:09Z</time>
      </trkpt>
      <trkpt lat="43.66213" lon="3.81986">
        <ele>155</ele>
        <time>2017-07-05T11:03:11Z</time>
      </trkpt>
      <trkpt lat="43.6622" lon="3.81995">
        <ele>154.7</ele>
        <time>2017-07-05T11:03:14Z</time>
      </trkpt>
      <trkpt lat="43.66225" lon="3.82">
        <ele>154.8</ele>
        <time>2017-07-05T11:03:18Z</time>
      </trkpt>
      <trkpt lat="43.66231" lon="3.82008">
        <ele>154.9</ele>
        <time>2017-07-05T11:03:23Z</time>
      </trkpt>
      <trkpt lat="43.66238" lon="3.82012">
        <ele>155.2</ele>
        <time>2017-07-05T11:03:27Z</time>
      </trkpt>
      <trkpt lat="43.66244" lon="3.8202">
        <ele>155.7</ele>
        <time>2017-07-05T11:03:31Z</time>
      </trkpt>
      <trkpt lat="43.66246" lon="3.8203">
        <ele>155.9</ele>
        <time>2017-07-05T11:03:33Z</time>
      </trkpt>
      <trkpt lat="43.6625" lon="3.82049">
        <ele>157.8</ele>
        <time>2017-07-05T11:03:35Z</time>
      </trkpt>
      <trkpt lat="43.66255" lon="3.82063">
        <ele>158.6</ele>
        <time>2017-07-05T11:03:37Z</time>
      </trkpt>
      <trkpt lat="43.66262" lon="3.82075">
        <ele>158.7</ele>
        <time>2017-07-05T11:03:39Z</time>
      </trkpt>
      <trkpt lat="43.66268" lon="3.82083">
        <ele>158.6</ele>
        <time>2017-07-05T11:03:43Z</time>
      </trkpt>
      <trkpt lat="43.66275" lon="3.82088">
        <ele>158.5</ele>
        <time>2017-07-05T11:03:46Z</time>
      </trkpt>
      <trkpt lat="43.6628" lon="3.82098">
        <ele>158.7</ele>
        <time>2017-07-05T11:03:50Z</time>
      </trkpt>
      <trkpt lat="43.66283" lon="3.82112">
        <ele>159.4</ele>
        <time>2017-07-05T11:03:52Z</time>
      </trkpt>
      <trkpt lat="43.66286" lon="3.82122">
        <ele>159.6</ele>
        <time>2017-07-05T11:03:54Z</time>
      </trkpt>
      <trkpt lat="43.66292" lon="3.82134">
        <ele>159.6</ele>
        <time>2017-07-05T11:03:57Z</time>
      </trkpt>
      <trkpt lat="43.66297" lon="3.82144">
        <ele>159.5</ele>
        <time>2017-07-05T11:04:00Z</time>
      </trkpt>
      <trkpt lat="43.66305" lon="3.82147">
        <ele>159.3</ele>
        <time>2017-07-05T11:04:03Z</time>
      </trkpt>
      <trkpt lat="43.66311" lon="3.82154">
        <ele>159</ele>
        <time>2017-07-05T11:04:06Z</time>
      </trkpt>
      <trkpt lat="43.66318" lon="3.82165">
        <ele>158.5</ele>
        <time>2017-07-05T11:04:09Z</time>
      </trkpt>
      <trkpt lat="43.66321" lon="3.82179">
        <ele>157.6</ele>
        <time>2017-07-05T11:04:12Z</time>
      </trkpt>
      <trkpt lat="43.66323" lon="3.82192">
        <ele>156.9</ele>
        <time>2017-07-05T11:04:15Z</time>
      </trkpt>
      <trkpt lat="43.66323" lon="3.82202">
        <ele>156.6</ele>
        <time>2017-07-05T11:04:17Z</time>
      </trkpt>
      <trkpt lat="43.66323" lon="3.82213">
        <ele>156.3</ele>
        <time>2017-07-05T11:04:19Z</time>
      </trkpt>
      <trkpt lat="43.66324" lon="3.82227">
        <ele>156.1</ele>
        <time>2017-07-05T11:04:21Z</time>
      </trkpt>
      <trkpt lat="43.66324" lon="3.82238">
        <ele>155</ele>
        <time>2017-07-05T11:04:23Z</time>
      </trkpt>
      <trkpt lat="43.66326" lon="3.82253">
        <ele>155.4</ele>
        <time>2017-07-05T11:04:25Z</time>
      </trkpt>
      <trkpt lat="43.66327" lon="3.82271">
        <ele>156.3</ele>
        <time>2017-07-05T11:04:27Z</time>
      </trkpt>
      <trkpt lat="43.6633" lon="3.82288">
        <ele>156.5</ele>
        <time>2017-07-05T11:04:29Z</time>
      </trkpt>
      <trkpt lat="43.66333" lon="3.82304">
        <ele>156.5</ele>
        <time>2017-07-05T11:04:31Z</time>
      </trkpt>
      <trkpt lat="43.66337" lon="3.82318">
        <ele>156</ele>
        <time>2017-07-05T11:04:33Z</time>
      </trkpt>
      <trkpt lat="43.66342" lon="3.82333">
        <ele>155.6</ele>
        <time>2017-07-05T11:04:35Z</time>
      </trkpt>
      <trkpt lat="43.66351" lon="3.82339">
        <ele>154.9</ele>
        <time>2017-07-05T11:04:38Z</time>
      </trkpt>
      <trkpt lat="43.66357" lon="3.82346">
        <ele>155.2</ele>
        <time>2017-07-05T11:04:40Z</time>
      </trkpt>
      <trkpt lat="43.66363" lon="3.82358">
        <ele>155.5</ele>
        <time>2017-07-05T11:04:43Z</time>
      </trkpt>
      <trkpt lat="43.66366" lon="3.82372">
        <ele>156.6</ele>
        <time>2017-07-05T11:04:45Z</time>
      </trkpt>
      <trkpt lat="43.66369" lon="3.82382">
        <ele>157.1</ele>
        <time>2017-07-05T11:04:47Z</time>
      </trkpt>
      <trkpt lat="43.66371" lon="3.82396">
        <ele>157.2</ele>
        <time>2017-07-05T11:04:50Z</time>
      </trkpt>
      <trkpt lat="43.66369" lon="3.82412">
        <ele>157.6</ele>
        <time>2017-07-05T11:04:52Z</time>
      </trkpt>
      <trkpt lat="43.6636" lon="3.82423">
        <ele>161</ele>
        <time>2017-07-05T11:04:54Z</time>
      </trkpt>
      <trkpt lat="43.66353" lon="3.82428">
        <ele>161.8</ele>
        <time>2017-07-05T11:04:55Z</time>
      </trkpt>
      <trkpt lat="43.66346" lon="3.82435">
        <ele>162.5</ele>
        <time>2017-07-05T11:04:56Z</time>
      </trkpt>
      <trkpt lat="43.66338" lon="3.8244">
        <ele>162.6</ele>
        <time>2017-07-05T11:04:57Z</time>
      </trkpt>
      <trkpt lat="43.66332" lon="3.82447">
        <ele>162</ele>
        <time>2017-07-05T11:04:58Z</time>
      </trkpt>
      <trkpt lat="43.66325" lon="3.82454">
        <ele>162.3</ele>
        <time>2017-07-05T11:04:59Z</time>
      </trkpt>
      <trkpt lat="43.66316" lon="3.82462">
        <ele>162.2</ele>
        <time>2017-07-05T11:05:01Z</time>
      </trkpt>
      <trkpt lat="43.6631" lon="3.82471">
        <ele>161.1</ele>
        <time>2017-07-05T11:05:03Z</time>
      </trkpt>
      <trkpt lat="43.66308" lon="3.82481">
        <ele>160.4</ele>
        <time>2017-07-05T11:05:05Z</time>
      </trkpt>
      <trkpt lat="43.66304" lon="3.82495">
        <ele>160.2</ele>
        <time>2017-07-05T11:05:08Z</time>
      </trkpt>
      <trkpt lat="43.66304" lon="3.82508">
        <ele>160.2</ele>
        <time>2017-07-05T11:05:11Z</time>
      </trkpt>
      <trkpt lat="43.66304" lon="3.82523">
        <ele>160.2</ele>
        <time>2017-07-05T11:05:14Z</time>
      </trkpt>
      <trkpt lat="43.66306" lon="3.82533">
        <ele>160.2</ele>
        <time>2017-07-05T11:05:17Z</time>
      </trkpt>
      <trkpt lat="43.66308" lon="3.82543">
        <ele>160.5</ele>
        <time>2017-07-05T11:05:21Z</time>
      </trkpt>
      <trkpt lat="43.66309" lon="3.82556">
        <ele>160.9</ele>
        <time>2017-07-05T11:05:24Z</time>
      </trkpt>
      <trkpt lat="43.66306" lon="3.82564">
        <ele>162.8</ele>
        <time>2017-07-05T11:05:26Z</time>
      </trkpt>
      <trkpt lat="43.66299" lon="3.82571">
        <ele>163</ele>
        <time>2017-07-05T11:05:28Z</time>
      </trkpt>
      <trkpt lat="43.6629" lon="3.82578">
        <ele>165</ele>
        <time>2017-07-05T11:05:30Z</time>
      </trkpt>
      <trkpt lat="43.66279" lon="3.82585">
        <ele>166.5</ele>
        <time>2017-07-05T11:05:32Z</time>
      </trkpt>
      <trkpt lat="43.66268" lon="3.82593">
        <ele>167.3</ele>
        <time>2017-07-05T11:05:34Z</time>
      </trkpt>
      <trkpt lat="43.66255" lon="3.82597">
        <ele>167.7</ele>
        <time>2017-07-05T11:05:36Z</time>
      </trkpt>
      <trkpt lat="43.66248" lon="3.82602">
        <ele>167.4</ele>
        <time>2017-07-05T11:05:37Z</time>
      </trkpt>
      <trkpt lat="43.66241" lon="3.82605">
        <ele>166.5</ele>
        <time>2017-07-05T11:05:38Z</time>
      </trkpt>
      <trkpt lat="43.66234" lon="3.82608">
        <ele>164.9</ele>
        <time>2017-07-05T11:05:39Z</time>
      </trkpt>
      <trkpt lat="43.66229" lon="3.82614">
        <ele>163.6</ele>
        <time>2017-07-05T11:05:40Z</time>
      </trkpt>
      <trkpt lat="43.66223" lon="3.82621">
        <ele>162.1</ele>
        <time>2017-07-05T11:05:41Z</time>
      </trkpt>
      <trkpt lat="43.66215" lon="3.82634">
        <ele>159.3</ele>
        <time>2017-07-05T11:05:43Z</time>
      </trkpt>
      <trkpt lat="43.6621" lon="3.82649">
        <ele>156.9</ele>
        <time>2017-07-05T11:05:45Z</time>
      </trkpt>
      <trkpt lat="43.66206" lon="3.82663">
        <ele>154.3</ele>
        <time>2017-07-05T11:05:47Z</time>
      </trkpt>
      <trkpt lat="43.66203" lon="3.82675">
        <ele>154.6</ele>
        <time>2017-07-05T11:05:49Z</time>
      </trkpt>
      <trkpt lat="43.66199" lon="3.82686">
        <ele>154.4</ele>
        <time>2017-07-05T11:05:51Z</time>
      </trkpt>
      <trkpt lat="43.66194" lon="3.82695">
        <ele>154.5</ele>
        <time>2017-07-05T11:05:53Z</time>
      </trkpt>
      <trkpt lat="43.66192" lon="3.82705">
        <ele>154.8</ele>
        <time>2017-07-05T11:05:56Z</time>
      </trkpt>
      <trkpt lat="43.66185" lon="3.82713">
        <ele>155.1</ele>
        <time>2017-07-05T11:06:01Z</time>
      </trkpt>
      <trkpt lat="43.66176" lon="3.82711">
        <ele>155.2</ele>
        <time>2017-07-05T11:06:03Z</time>
      </trkpt>
      <trkpt lat="43.66167" lon="3.82706">
        <ele>155</ele>
        <time>2017-07-05T11:06:05Z</time>
      </trkpt>
      <trkpt lat="43.66155" lon="3.82701">
        <ele>152.5</ele>
        <time>2017-07-05T11:06:07Z</time>
      </trkpt>
      <trkpt lat="43.66143" lon="3.82696">
        <ele>150.3</ele>
        <time>2017-07-05T11:06:09Z</time>
      </trkpt>
      <trkpt lat="43.66136" lon="3.82695">
        <ele>149.7</ele>
        <time>2017-07-05T11:06:10Z</time>
      </trkpt>
      <trkpt lat="43.66129" lon="3.82694">
        <ele>148.9</ele>
        <time>2017-07-05T11:06:11Z</time>
      </trkpt>
      <trkpt lat="43.66116" lon="3.82689">
        <ele>148.1</ele>
        <time>2017-07-05T11:06:13Z</time>
      </trkpt>
      <trkpt lat="43.66108" lon="3.82685">
        <ele>147</ele>
        <time>2017-07-05T11:06:14Z</time>
      </trkpt>
      <trkpt lat="43.661" lon="3.82681">
        <ele>145.9</ele>
        <time>2017-07-05T11:06:15Z</time>
      </trkpt>
      <trkpt lat="43.66092" lon="3.82679">
        <ele>145.5</ele>
        <time>2017-07-05T11:06:16Z</time>
      </trkpt>
      <trkpt lat="43.66086" lon="3.82685">
        <ele>144.7</ele>
        <time>2017-07-05T11:06:17Z</time>
      </trkpt>
      <trkpt lat="43.66073" lon="3.82688">
        <ele>143.6</ele>
        <time>2017-07-05T11:06:19Z</time>
      </trkpt>
      <trkpt lat="43.66062" lon="3.82684">
        <ele>142.2</ele>
        <time>2017-07-05T11:06:21Z</time>
      </trkpt>
      <trkpt lat="43.6605" lon="3.82676">
        <ele>141.7</ele>
        <time>2017-07-05T11:06:23Z</time>
      </trkpt>
      <trkpt lat="43.66039" lon="3.8267">
        <ele>140.8</ele>
        <time>2017-07-05T11:06:25Z</time>
      </trkpt>
      <trkpt lat="43.6603" lon="3.82676">
        <ele>139</ele>
        <time>2017-07-05T11:06:27Z</time>
      </trkpt>
      <trkpt lat="43.66024" lon="3.82686">
        <ele>138.7</ele>
        <time>2017-07-05T11:06:29Z</time>
      </trkpt>
      <trkpt lat="43.66019" lon="3.82696">
        <ele>138.5</ele>
        <time>2017-07-05T11:06:31Z</time>
      </trkpt>
      <trkpt lat="43.66015" lon="3.82709">
        <ele>138.3</ele>
        <time>2017-07-05T11:06:33Z</time>
      </trkpt>
      <trkpt lat="43.6601" lon="3.82721">
        <ele>137.7</ele>
        <time>2017-07-05T11:06:35Z</time>
      </trkpt>
      <trkpt lat="43.66005" lon="3.82731">
        <ele>137.4</ele>
        <time>2017-07-05T11:06:37Z</time>
      </trkpt>
      <trkpt lat="43.66001" lon="3.8274">
        <ele>138.9</ele>
        <time>2017-07-05T11:06:39Z</time>
      </trkpt>
      <trkpt lat="43.65997" lon="3.8275">
        <ele>139.6</ele>
        <time>2017-07-05T11:06:41Z</time>
      </trkpt>
      <trkpt lat="43.65992" lon="3.82759">
        <ele>140.8</ele>
        <time>2017-07-05T11:06:43Z</time>
      </trkpt>
      <trkpt lat="43.65989" lon="3.82769">
        <ele>141</ele>
        <time>2017-07-05T11:06:45Z</time>
      </trkpt>
      <trkpt lat="43.65988" lon="3.8278">
        <ele>144.8</ele>
        <time>2017-07-05T11:06:47Z</time>
      </trkpt>
      <trkpt lat="43.65983" lon="3.82794">
        <ele>145</ele>
        <time>2017-07-05T11:06:50Z</time>
      </trkpt>
      <trkpt lat="43.6598" lon="3.82803">
        <ele>144.8</ele>
        <time>2017-07-05T11:06:52Z</time>
      </trkpt>
      <trkpt lat="43.65975" lon="3.82813">
        <ele>145</ele>
        <time>2017-07-05T11:06:55Z</time>
      </trkpt>
      <trkpt lat="43.65971" lon="3.82823">
        <ele>145.4</ele>
        <time>2017-07-05T11:06:58Z</time>
      </trkpt>
      <trkpt lat="43.65967" lon="3.82832">
        <ele>146.2</ele>
        <time>2017-07-05T11:07:00Z</time>
      </trkpt>
      <trkpt lat="43.65962" lon="3.82839">
        <ele>146.4</ele>
        <time>2017-07-05T11:07:02Z</time>
      </trkpt>
      <trkpt lat="43.65956" lon="3.82852">
        <ele>146.5</ele>
        <time>2017-07-05T11:07:05Z</time>
      </trkpt>
      <trkpt lat="43.65952" lon="3.82861">
        <ele>146.5</ele>
        <time>2017-07-05T11:07:07Z</time>
      </trkpt>
      <trkpt lat="43.65949" lon="3.82872">
        <ele>147.2</ele>
        <time>2017-07-05T11:07:09Z</time>
      </trkpt>
      <trkpt lat="43.65942" lon="3.82883">
        <ele>148</ele>
        <time>2017-07-05T11:07:11Z</time>
      </trkpt>
      <trkpt lat="43.65929" lon="3.82888">
        <ele>149.1</ele>
        <time>2017-07-05T11:07:13Z</time>
      </trkpt>
      <trkpt lat="43.65918" lon="3.82895">
        <ele>148.5</ele>
        <time>2017-07-05T11:07:15Z</time>
      </trkpt>
      <trkpt lat="43.65906" lon="3.829">
        <ele>147.5</ele>
        <time>2017-07-05T11:07:17Z</time>
      </trkpt>
      <trkpt lat="43.65891" lon="3.82905">
        <ele>147</ele>
        <time>2017-07-05T11:07:19Z</time>
      </trkpt>
      <trkpt lat="43.65883" lon="3.82908">
        <ele>146.7</ele>
        <time>2017-07-05T11:07:20Z</time>
      </trkpt>
      <trkpt lat="43.65875" lon="3.82911">
        <ele>146.3</ele>
        <time>2017-07-05T11:07:21Z</time>
      </trkpt>
      <trkpt lat="43.65868" lon="3.82914">
        <ele>145.7</ele>
        <time>2017-07-05T11:07:22Z</time>
      </trkpt>
      <trkpt lat="43.65861" lon="3.82918">
        <ele>145</ele>
        <time>2017-07-05T11:07:23Z</time>
      </trkpt>
      <trkpt lat="43.65851" lon="3.82927">
        <ele>141.7</ele>
        <time>2017-07-05T11:07:25Z</time>
      </trkpt>
      <trkpt lat="43.65844" lon="3.82937">
        <ele>139</ele>
        <time>2017-07-05T11:07:27Z</time>
      </trkpt>
      <trkpt lat="43.6584" lon="3.8295">
        <ele>137.2</ele>
        <time>2017-07-05T11:07:29Z</time>
      </trkpt>
      <trkpt lat="43.65838" lon="3.82964">
        <ele>137</ele>
        <time>2017-07-05T11:07:31Z</time>
      </trkpt>
      <trkpt lat="43.65836" lon="3.82979">
        <ele>137.7</ele>
        <time>2017-07-05T11:07:33Z</time>
      </trkpt>
      <trkpt lat="43.65831" lon="3.82989">
        <ele>137.9</ele>
        <time>2017-07-05T11:07:35Z</time>
      </trkpt>
      <trkpt lat="43.65827" lon="3.82996">
        <ele>138.1</ele>
        <time>2017-07-05T11:07:38Z</time>
      </trkpt>
      <trkpt lat="43.6582" lon="3.83002">
        <ele>138.1</ele>
        <time>2017-07-05T11:07:41Z</time>
      </trkpt>
      <trkpt lat="43.65814" lon="3.83011">
        <ele>138.1</ele>
        <time>2017-07-05T11:07:44Z</time>
      </trkpt>
      <trkpt lat="43.65807" lon="3.8302">
        <ele>138.3</ele>
        <time>2017-07-05T11:07:47Z</time>
      </trkpt>
      <trkpt lat="43.65798" lon="3.8303">
        <ele>137.9</ele>
        <time>2017-07-05T11:07:50Z</time>
      </trkpt>
      <trkpt lat="43.65789" lon="3.83037">
        <ele>139</ele>
        <time>2017-07-05T11:07:53Z</time>
      </trkpt>
      <trkpt lat="43.65782" lon="3.83032">
        <ele>138.9</ele>
        <time>2017-07-05T11:07:55Z</time>
      </trkpt>
      <trkpt lat="43.6578" lon="3.83017">
        <ele>138.5</ele>
        <time>2017-07-05T11:07:58Z</time>
      </trkpt>
      <trkpt lat="43.65777" lon="3.83005">
        <ele>138.1</ele>
        <time>2017-07-05T11:08:00Z</time>
      </trkpt>
      <trkpt lat="43.65774" lon="3.82992">
        <ele>138.2</ele>
        <time>2017-07-05T11:08:02Z</time>
      </trkpt>
      <trkpt lat="43.6577" lon="3.82982">
        <ele>137.7</ele>
        <time>2017-07-05T11:08:04Z</time>
      </trkpt>
      <trkpt lat="43.65766" lon="3.82969">
        <ele>136.1</ele>
        <time>2017-07-05T11:08:06Z</time>
      </trkpt>
      <trkpt lat="43.65761" lon="3.82959">
        <ele>136.4</ele>
        <time>2017-07-05T11:08:08Z</time>
      </trkpt>
      <trkpt lat="43.65755" lon="3.82949">
        <ele>137.6</ele>
        <time>2017-07-05T11:08:10Z</time>
      </trkpt>
      <trkpt lat="43.65753" lon="3.8294">
        <ele>137.6</ele>
        <time>2017-07-05T11:08:12Z</time>
      </trkpt>
      <trkpt lat="43.65747" lon="3.82933">
        <ele>137.9</ele>
        <time>2017-07-05T11:08:14Z</time>
      </trkpt>
      <trkpt lat="43.6574" lon="3.82925">
        <ele>139.4</ele>
        <time>2017-07-05T11:08:16Z</time>
      </trkpt>
      <trkpt lat="43.65733" lon="3.82921">
        <ele>139.4</ele>
        <time>2017-07-05T11:08:18Z</time>
      </trkpt>
      <trkpt lat="43.65726" lon="3.82929">
        <ele>139.8</ele>
        <time>2017-07-05T11:08:23Z</time>
      </trkpt>
      <trkpt lat="43.65717" lon="3.8293">
        <ele>140.3</ele>
        <time>2017-07-05T11:08:28Z</time>
      </trkpt>
      <trkpt lat="43.65708" lon="3.82931">
        <ele>141.1</ele>
        <time>2017-07-05T11:08:32Z</time>
      </trkpt>
      <trkpt lat="43.657" lon="3.82931">
        <ele>141.9</ele>
        <time>2017-07-05T11:08:36Z</time>
      </trkpt>
      <trkpt lat="43.65692" lon="3.82928">
        <ele>142.9</ele>
        <time>2017-07-05T11:08:40Z</time>
      </trkpt>
      <trkpt lat="43.65685" lon="3.82927">
        <ele>143.7</ele>
        <time>2017-07-05T11:08:44Z</time>
      </trkpt>
      <trkpt lat="43.65684" lon="3.82926">
        <ele>145.9</ele>
        <time>2017-07-05T11:08:51Z</time>
      </trkpt>
      <trkpt lat="43.65668" lon="3.82922">
        <ele>146.6</ele>
        <time>2017-07-05T11:08:54Z</time>
      </trkpt>
      <trkpt lat="43.65661" lon="3.82919">
        <ele>147.5</ele>
        <time>2017-07-05T11:08:58Z</time>
      </trkpt>
      <trkpt lat="43.65651" lon="3.82915">
        <ele>148.5</ele>
        <time>2017-07-05T11:09:01Z</time>
      </trkpt>
      <trkpt lat="43.65643" lon="3.82912">
        <ele>148.9</ele>
        <time>2017-07-05T11:09:03Z</time>
      </trkpt>
      <trkpt lat="43.65636" lon="3.82909">
        <ele>149.6</ele>
        <time>2017-07-05T11:09:07Z</time>
      </trkpt>
      <trkpt lat="43.6563" lon="3.82904">
        <ele>150.3</ele>
        <time>2017-07-05T11:09:10Z</time>
      </trkpt>
      <trkpt lat="43.65622" lon="3.82905">
        <ele>151.2</ele>
        <time>2017-07-05T11:09:14Z</time>
      </trkpt>
      <trkpt lat="43.6562" lon="3.82906">
        <ele>152.9</ele>
        <time>2017-07-05T11:09:21Z</time>
      </trkpt>
      <trkpt lat="43.65617" lon="3.8292">
        <ele>156.5</ele>
        <time>2017-07-05T11:09:34Z</time>
      </trkpt>
      <trkpt lat="43.65617" lon="3.82931">
        <ele>157.8</ele>
        <time>2017-07-05T11:09:38Z</time>
      </trkpt>
      <trkpt lat="43.65614" lon="3.82944">
        <ele>159.2</ele>
        <time>2017-07-05T11:09:43Z</time>
      </trkpt>
      <trkpt lat="43.65612" lon="3.82955">
        <ele>160.1</ele>
        <time>2017-07-05T11:09:47Z</time>
      </trkpt>
      <trkpt lat="43.65616" lon="3.82965">
        <ele>161.6</ele>
        <time>2017-07-05T11:09:52Z</time>
      </trkpt>
      <trkpt lat="43.65616" lon="3.82976">
        <ele>163.5</ele>
        <time>2017-07-05T11:09:59Z</time>
      </trkpt>
      <trkpt lat="43.65614" lon="3.82985">
        <ele>164.7</ele>
        <time>2017-07-05T11:10:03Z</time>
      </trkpt>
      <trkpt lat="43.65612" lon="3.83">
        <ele>165.5</ele>
        <time>2017-07-05T11:10:07Z</time>
      </trkpt>
      <trkpt lat="43.65609" lon="3.83013">
        <ele>165.9</ele>
        <time>2017-07-05T11:10:09Z</time>
      </trkpt>
      <trkpt lat="43.65604" lon="3.83021">
        <ele>166.5</ele>
        <time>2017-07-05T11:10:11Z</time>
      </trkpt>
      <trkpt lat="43.65598" lon="3.83032">
        <ele>167</ele>
        <time>2017-07-05T11:10:14Z</time>
      </trkpt>
      <trkpt lat="43.65593" lon="3.83042">
        <ele>167.3</ele>
        <time>2017-07-05T11:10:16Z</time>
      </trkpt>
      <trkpt lat="43.65586" lon="3.83049">
        <ele>167.7</ele>
        <time>2017-07-05T11:10:19Z</time>
      </trkpt>
      <trkpt lat="43.65579" lon="3.83054">
        <ele>167.8</ele>
        <time>2017-07-05T11:10:21Z</time>
      </trkpt>
      <trkpt lat="43.65571" lon="3.83061">
        <ele>167.8</ele>
        <time>2017-07-05T11:10:23Z</time>
      </trkpt>
      <trkpt lat="43.65564" lon="3.83068">
        <ele>167.6</ele>
        <time>2017-07-05T11:10:26Z</time>
      </trkpt>
      <trkpt lat="43.65553" lon="3.83074">
        <ele>167.5</ele>
        <time>2017-07-05T11:10:29Z</time>
      </trkpt>
      <trkpt lat="43.65546" lon="3.83077">
        <ele>167.6</ele>
        <time>2017-07-05T11:10:31Z</time>
      </trkpt>
      <trkpt lat="43.65529" lon="3.83073">
        <ele>168.5</ele>
        <time>2017-07-05T11:10:38Z</time>
      </trkpt>
      <trkpt lat="43.65522" lon="3.83071">
        <ele>169</ele>
        <time>2017-07-05T11:10:41Z</time>
      </trkpt>
      <trkpt lat="43.65515" lon="3.83065">
        <ele>169.7</ele>
        <time>2017-07-05T11:10:44Z</time>
      </trkpt>
      <trkpt lat="43.65509" lon="3.8306">
        <ele>170.1</ele>
        <time>2017-07-05T11:10:47Z</time>
      </trkpt>
      <trkpt lat="43.65502" lon="3.83054">
        <ele>170.7</ele>
        <time>2017-07-05T11:10:51Z</time>
      </trkpt>
      <trkpt lat="43.65495" lon="3.83047">
        <ele>170.7</ele>
        <time>2017-07-05T11:10:54Z</time>
      </trkpt>
      <trkpt lat="43.65489" lon="3.83039">
        <ele>170.4</ele>
        <time>2017-07-05T11:10:56Z</time>
      </trkpt>
      <trkpt lat="43.65487" lon="3.83027">
        <ele>170</ele>
        <time>2017-07-05T11:10:59Z</time>
      </trkpt>
      <trkpt lat="43.65486" lon="3.83016">
        <ele>170</ele>
        <time>2017-07-05T11:11:02Z</time>
      </trkpt>
      <trkpt lat="43.65491" lon="3.82993">
        <ele>170.5</ele>
        <time>2017-07-05T11:11:09Z</time>
      </trkpt>
      <trkpt lat="43.65493" lon="3.82982">
        <ele>171.2</ele>
        <time>2017-07-05T11:11:14Z</time>
      </trkpt>
      <trkpt lat="43.65493" lon="3.8297">
        <ele>171.5</ele>
        <time>2017-07-05T11:11:19Z</time>
      </trkpt>
      <trkpt lat="43.65481" lon="3.82959">
        <ele>175.7</ele>
        <time>2017-07-05T11:11:26Z</time>
      </trkpt>
      <trkpt lat="43.65473" lon="3.82947">
        <ele>176.3</ele>
        <time>2017-07-05T11:11:28Z</time>
      </trkpt>
      <trkpt lat="43.65468" lon="3.82935">
        <ele>178.2</ele>
        <time>2017-07-05T11:11:30Z</time>
      </trkpt>
      <trkpt lat="43.65468" lon="3.82922">
        <ele>178.6</ele>
        <time>2017-07-05T11:11:34Z</time>
      </trkpt>
      <trkpt lat="43.6547" lon="3.8291">
        <ele>178.9</ele>
        <time>2017-07-05T11:11:37Z</time>
      </trkpt>
      <trkpt lat="43.65472" lon="3.82883">
        <ele>179.8</ele>
        <time>2017-07-05T11:11:43Z</time>
      </trkpt>
      <trkpt lat="43.65474" lon="3.82874">
        <ele>179.8</ele>
        <time>2017-07-05T11:11:44Z</time>
      </trkpt>
      <trkpt lat="43.65482" lon="3.82861">
        <ele>180.2</ele>
        <time>2017-07-05T11:11:46Z</time>
      </trkpt>
      <trkpt lat="43.6549" lon="3.82855">
        <ele>180.3</ele>
        <time>2017-07-05T11:11:48Z</time>
      </trkpt>
      <trkpt lat="43.65495" lon="3.82846">
        <ele>180.6</ele>
        <time>2017-07-05T11:11:51Z</time>
      </trkpt>
      <trkpt lat="43.65494" lon="3.82833">
        <ele>181.1</ele>
        <time>2017-07-05T11:11:54Z</time>
      </trkpt>
      <trkpt lat="43.6549" lon="3.82822">
        <ele>181.5</ele>
        <time>2017-07-05T11:11:59Z</time>
      </trkpt>
      <trkpt lat="43.65484" lon="3.82811">
        <ele>181.7</ele>
        <time>2017-07-05T11:12:02Z</time>
      </trkpt>
      <trkpt lat="43.65479" lon="3.82801">
        <ele>182.1</ele>
        <time>2017-07-05T11:12:05Z</time>
      </trkpt>
      <trkpt lat="43.65474" lon="3.82792">
        <ele>182.4</ele>
        <time>2017-07-05T11:12:08Z</time>
      </trkpt>
      <trkpt lat="43.65467" lon="3.82785">
        <ele>182.7</ele>
        <time>2017-07-05T11:12:11Z</time>
      </trkpt>
      <trkpt lat="43.65459" lon="3.82782">
        <ele>183</ele>
        <time>2017-07-05T11:12:14Z</time>
      </trkpt>
      <trkpt lat="43.65452" lon="3.82785">
        <ele>183.1</ele>
        <time>2017-07-05T11:12:18Z</time>
      </trkpt>
      <trkpt lat="43.65444" lon="3.82785">
        <ele>183.3</ele>
        <time>2017-07-05T11:12:21Z</time>
      </trkpt>
      <trkpt lat="43.65436" lon="3.82782">
        <ele>183.4</ele>
        <time>2017-07-05T11:12:23Z</time>
      </trkpt>
      <trkpt lat="43.65427" lon="3.82776">
        <ele>183.7</ele>
        <time>2017-07-05T11:12:27Z</time>
      </trkpt>
      <trkpt lat="43.65417" lon="3.82768">
        <ele>183.7</ele>
        <time>2017-07-05T11:12:28Z</time>
      </trkpt>
      <trkpt lat="43.65408" lon="3.82759">
        <ele>183.8</ele>
        <time>2017-07-05T11:12:30Z</time>
      </trkpt>
      <trkpt lat="43.65401" lon="3.82754">
        <ele>184</ele>
        <time>2017-07-05T11:12:32Z</time>
      </trkpt>
      <trkpt lat="43.65394" lon="3.82749">
        <ele>183.9</ele>
        <time>2017-07-05T11:12:34Z</time>
      </trkpt>
      <trkpt lat="43.65381" lon="3.8274">
        <ele>183.8</ele>
        <time>2017-07-05T11:12:36Z</time>
      </trkpt>
      <trkpt lat="43.65373" lon="3.82737">
        <ele>185</ele>
        <time>2017-07-05T11:12:38Z</time>
      </trkpt>
      <trkpt lat="43.65365" lon="3.82737">
        <ele>185</ele>
        <time>2017-07-05T11:12:41Z</time>
      </trkpt>
      <trkpt lat="43.65358" lon="3.82728">
        <ele>184.7</ele>
        <time>2017-07-05T11:12:48Z</time>
      </trkpt>
      <trkpt lat="43.65349" lon="3.82724">
        <ele>184.6</ele>
        <time>2017-07-05T11:12:50Z</time>
      </trkpt>
      <trkpt lat="43.65339" lon="3.82722">
        <ele>184.7</ele>
        <time>2017-07-05T11:12:54Z</time>
      </trkpt>
      <trkpt lat="43.65331" lon="3.82717">
        <ele>184.9</ele>
        <time>2017-07-05T11:12:57Z</time>
      </trkpt>
      <trkpt lat="43.65322" lon="3.82713">
        <ele>185.1</ele>
        <time>2017-07-05T11:12:59Z</time>
      </trkpt>
      <trkpt lat="43.65315" lon="3.8271">
        <ele>185.1</ele>
        <time>2017-07-05T11:13:01Z</time>
      </trkpt>
      <trkpt lat="43.65308" lon="3.82704">
        <ele>185.1</ele>
        <time>2017-07-05T11:13:02Z</time>
      </trkpt>
      <trkpt lat="43.653" lon="3.82694">
        <ele>185.8</ele>
        <time>2017-07-05T11:13:04Z</time>
      </trkpt>
      <trkpt lat="43.65291" lon="3.82684">
        <ele>186</ele>
        <time>2017-07-05T11:13:06Z</time>
      </trkpt>
      <trkpt lat="43.65285" lon="3.82676">
        <ele>186.8</ele>
        <time>2017-07-05T11:13:08Z</time>
      </trkpt>
      <trkpt lat="43.65277" lon="3.82668">
        <ele>187.1</ele>
        <time>2017-07-05T11:13:10Z</time>
      </trkpt>
      <trkpt lat="43.65267" lon="3.82659">
        <ele>187.7</ele>
        <time>2017-07-05T11:13:13Z</time>
      </trkpt>
      <trkpt lat="43.65258" lon="3.82651">
        <ele>188.1</ele>
        <time>2017-07-05T11:13:15Z</time>
      </trkpt>
      <trkpt lat="43.6525" lon="3.82644">
        <ele>187.4</ele>
        <time>2017-07-05T11:13:17Z</time>
      </trkpt>
      <trkpt lat="43.65243" lon="3.82632">
        <ele>187.1</ele>
        <time>2017-07-05T11:13:19Z</time>
      </trkpt>
      <trkpt lat="43.65232" lon="3.82622">
        <ele>186.1</ele>
        <time>2017-07-05T11:13:21Z</time>
      </trkpt>
      <trkpt lat="43.65226" lon="3.82617">
        <ele>185.2</ele>
        <time>2017-07-05T11:13:22Z</time>
      </trkpt>
      <trkpt lat="43.65218" lon="3.82611">
        <ele>185</ele>
        <time>2017-07-05T11:13:23Z</time>
      </trkpt>
      <trkpt lat="43.65211" lon="3.82605">
        <ele>185</ele>
        <time>2017-07-05T11:13:24Z</time>
      </trkpt>
      <trkpt lat="43.65204" lon="3.82597">
        <ele>184</ele>
        <time>2017-07-05T11:13:25Z</time>
      </trkpt>
      <trkpt lat="43.65196" lon="3.8259">
        <ele>183.6</ele>
        <time>2017-07-05T11:13:26Z</time>
      </trkpt>
      <trkpt lat="43.65191" lon="3.8258">
        <ele>182.5</ele>
        <time>2017-07-05T11:13:27Z</time>
      </trkpt>
      <trkpt lat="43.65186" lon="3.82569">
        <ele>181.3</ele>
        <time>2017-07-05T11:13:28Z</time>
      </trkpt>
      <trkpt lat="43.6518" lon="3.82556">
        <ele>179.2</ele>
        <time>2017-07-05T11:13:30Z</time>
      </trkpt>
      <trkpt lat="43.65174" lon="3.82542">
        <ele>175.8</ele>
        <time>2017-07-05T11:13:32Z</time>
      </trkpt>
      <trkpt lat="43.65164" lon="3.82532">
        <ele>174.1</ele>
        <time>2017-07-05T11:13:34Z</time>
      </trkpt>
      <trkpt lat="43.65158" lon="3.82517">
        <ele>170.9</ele>
        <time>2017-07-05T11:13:37Z</time>
      </trkpt>
      <trkpt lat="43.65153" lon="3.82506">
        <ele>168.8</ele>
        <time>2017-07-05T11:13:38Z</time>
      </trkpt>
      <trkpt lat="43.65153" lon="3.82489">
        <ele>168.6</ele>
        <time>2017-07-05T11:13:40Z</time>
      </trkpt>
      <trkpt lat="43.65158" lon="3.82477">
        <ele>167.2</ele>
        <time>2017-07-05T11:13:42Z</time>
      </trkpt>
      <trkpt lat="43.65161" lon="3.82468">
        <ele>165.8</ele>
        <time>2017-07-05T11:13:44Z</time>
      </trkpt>
      <trkpt lat="43.65163" lon="3.82454">
        <ele>164.6</ele>
        <time>2017-07-05T11:13:46Z</time>
      </trkpt>
      <trkpt lat="43.65162" lon="3.82444">
        <ele>164.7</ele>
        <time>2017-07-05T11:13:48Z</time>
      </trkpt>
      <trkpt lat="43.65159" lon="3.82432">
        <ele>165.6</ele>
        <time>2017-07-05T11:13:50Z</time>
      </trkpt>
      <trkpt lat="43.65156" lon="3.8242">
        <ele>165.7</ele>
        <time>2017-07-05T11:13:53Z</time>
      </trkpt>
      <trkpt lat="43.65149" lon="3.82409">
        <ele>165.8</ele>
        <time>2017-07-05T11:13:56Z</time>
      </trkpt>
      <trkpt lat="43.65143" lon="3.824">
        <ele>165.8</ele>
        <time>2017-07-05T11:13:59Z</time>
      </trkpt>
      <trkpt lat="43.65137" lon="3.8239">
        <ele>165.8</ele>
        <time>2017-07-05T11:14:02Z</time>
      </trkpt>
      <trkpt lat="43.65133" lon="3.8238">
        <ele>166.1</ele>
        <time>2017-07-05T11:14:05Z</time>
      </trkpt>
      <trkpt lat="43.65126" lon="3.82369">
        <ele>166.2</ele>
        <time>2017-07-05T11:14:08Z</time>
      </trkpt>
      <trkpt lat="43.65119" lon="3.82363">
        <ele>166.1</ele>
        <time>2017-07-05T11:14:11Z</time>
      </trkpt>
      <trkpt lat="43.65111" lon="3.8236">
        <ele>166.5</ele>
        <time>2017-07-05T11:14:14Z</time>
      </trkpt>
      <trkpt lat="43.65104" lon="3.82358">
        <ele>166.6</ele>
        <time>2017-07-05T11:14:16Z</time>
      </trkpt>
      <trkpt lat="43.65097" lon="3.82354">
        <ele>167.4</ele>
        <time>2017-07-05T11:14:18Z</time>
      </trkpt>
      <trkpt lat="43.65089" lon="3.82351">
        <ele>168.6</ele>
        <time>2017-07-05T11:14:21Z</time>
      </trkpt>
      <trkpt lat="43.65092" lon="3.82339">
        <ele>168.6</ele>
        <time>2017-07-05T11:14:25Z</time>
      </trkpt>
      <trkpt lat="43.6509" lon="3.82324">
        <ele>167.5</ele>
        <time>2017-07-05T11:14:27Z</time>
      </trkpt>
      <trkpt lat="43.65092" lon="3.82312">
        <ele>166.8</ele>
        <time>2017-07-05T11:14:29Z</time>
      </trkpt>
      <trkpt lat="43.65092" lon="3.82301">
        <ele>166.6</ele>
        <time>2017-07-05T11:14:31Z</time>
      </trkpt>
      <trkpt lat="43.65094" lon="3.82289">
        <ele>166.1</ele>
        <time>2017-07-05T11:14:34Z</time>
      </trkpt>
      <trkpt lat="43.65098" lon="3.82276">
        <ele>161.7</ele>
        <time>2017-07-05T11:14:37Z</time>
      </trkpt>
      <trkpt lat="43.65102" lon="3.82265">
        <ele>158.7</ele>
        <time>2017-07-05T11:14:39Z</time>
      </trkpt>
      <trkpt lat="43.65104" lon="3.82254">
        <ele>158.2</ele>
        <time>2017-07-05T11:14:41Z</time>
      </trkpt>
      <trkpt lat="43.65095" lon="3.82251">
        <ele>157</ele>
        <time>2017-07-05T11:14:45Z</time>
      </trkpt>
      <trkpt lat="43.65086" lon="3.82249">
        <ele>155.9</ele>
        <time>2017-07-05T11:14:49Z</time>
      </trkpt>
      <trkpt lat="43.65079" lon="3.82245">
        <ele>153.8</ele>
        <time>2017-07-05T11:14:51Z</time>
      </trkpt>
      <trkpt lat="43.65071" lon="3.82244">
        <ele>150.3</ele>
        <time>2017-07-05T11:14:53Z</time>
      </trkpt>
      <trkpt lat="43.65063" lon="3.82244">
        <ele>149.8</ele>
        <time>2017-07-05T11:14:55Z</time>
      </trkpt>
      <trkpt lat="43.65056" lon="3.82246">
        <ele>148.7</ele>
        <time>2017-07-05T11:14:57Z</time>
      </trkpt>
      <trkpt lat="43.65048" lon="3.82248">
        <ele>147.8</ele>
        <time>2017-07-05T11:14:59Z</time>
      </trkpt>
      <trkpt lat="43.65038" lon="3.82251">
        <ele>146.9</ele>
        <time>2017-07-05T11:15:02Z</time>
      </trkpt>
      <trkpt lat="43.65027" lon="3.82251">
        <ele>146.7</ele>
        <time>2017-07-05T11:15:05Z</time>
      </trkpt>
      <trkpt lat="43.65019" lon="3.8225">
        <ele>146.8</ele>
        <time>2017-07-05T11:15:09Z</time>
      </trkpt>
      <trkpt lat="43.65014" lon="3.82239">
        <ele>147.2</ele>
        <time>2017-07-05T11:15:11Z</time>
      </trkpt>
      <trkpt lat="43.65009" lon="3.82226">
        <ele>146.7</ele>
        <time>2017-07-05T11:15:13Z</time>
      </trkpt>
      <trkpt lat="43.65005" lon="3.82213">
        <ele>144.5</ele>
        <time>2017-07-05T11:15:15Z</time>
      </trkpt>
      <trkpt lat="43.64996" lon="3.82203">
        <ele>142.3</ele>
        <time>2017-07-05T11:15:17Z</time>
      </trkpt>
      <trkpt lat="43.64986" lon="3.82194">
        <ele>141.2</ele>
        <time>2017-07-05T11:15:19Z</time>
      </trkpt>
      <trkpt lat="43.64979" lon="3.82183">
        <ele>140.3</ele>
        <time>2017-07-05T11:15:21Z</time>
      </trkpt>
      <trkpt lat="43.6497" lon="3.82183">
        <ele>140</ele>
        <time>2017-07-05T11:15:24Z</time>
      </trkpt>
      <trkpt lat="43.64963" lon="3.8219">
        <ele>139.8</ele>
        <time>2017-07-05T11:15:27Z</time>
      </trkpt>
      <trkpt lat="43.64954" lon="3.82194">
        <ele>139.4</ele>
        <time>2017-07-05T11:15:30Z</time>
      </trkpt>
      <trkpt lat="43.64947" lon="3.82198">
        <ele>139.2</ele>
        <time>2017-07-05T11:15:32Z</time>
      </trkpt>
      <trkpt lat="43.64938" lon="3.82203">
        <ele>137.6</ele>
        <time>2017-07-05T11:15:34Z</time>
      </trkpt>
      <trkpt lat="43.64931" lon="3.8221">
        <ele>135.4</ele>
        <time>2017-07-05T11:15:36Z</time>
      </trkpt>
      <trkpt lat="43.64924" lon="3.82214">
        <ele>135.4</ele>
        <time>2017-07-05T11:15:38Z</time>
      </trkpt>
      <trkpt lat="43.64916" lon="3.8222">
        <ele>135.1</ele>
        <time>2017-07-05T11:15:40Z</time>
      </trkpt>
      <trkpt lat="43.64908" lon="3.82225">
        <ele>135.6</ele>
        <time>2017-07-05T11:15:42Z</time>
      </trkpt>
      <trkpt lat="43.649" lon="3.82231">
        <ele>135.6</ele>
        <time>2017-07-05T11:15:44Z</time>
      </trkpt>
      <trkpt lat="43.64893" lon="3.82237">
        <ele>135.9</ele>
        <time>2017-07-05T11:15:46Z</time>
      </trkpt>
      <trkpt lat="43.64884" lon="3.82244">
        <ele>135.9</ele>
        <time>2017-07-05T11:15:49Z</time>
      </trkpt>
      <trkpt lat="43.64878" lon="3.82251">
        <ele>135.8</ele>
        <time>2017-07-05T11:15:52Z</time>
      </trkpt>
      <trkpt lat="43.6487" lon="3.82262">
        <ele>136.2</ele>
        <time>2017-07-05T11:15:55Z</time>
      </trkpt>
      <trkpt lat="43.64865" lon="3.82269">
        <ele>136.7</ele>
        <time>2017-07-05T11:15:57Z</time>
      </trkpt>
      <trkpt lat="43.64858" lon="3.82274">
        <ele>136.8</ele>
        <time>2017-07-05T11:15:59Z</time>
      </trkpt>
      <trkpt lat="43.64851" lon="3.82279">
        <ele>136.8</ele>
        <time>2017-07-05T11:16:01Z</time>
      </trkpt>
      <trkpt lat="43.64843" lon="3.82283">
        <ele>137.1</ele>
        <time>2017-07-05T11:16:03Z</time>
      </trkpt>
      <trkpt lat="43.64836" lon="3.82288">
        <ele>137</ele>
        <time>2017-07-05T11:16:05Z</time>
      </trkpt>
      <trkpt lat="43.64829" lon="3.82291">
        <ele>137.1</ele>
        <time>2017-07-05T11:16:07Z</time>
      </trkpt>
      <trkpt lat="43.64819" lon="3.82293">
        <ele>137.3</ele>
        <time>2017-07-05T11:16:10Z</time>
      </trkpt>
      <trkpt lat="43.6481" lon="3.82297">
        <ele>137.8</ele>
        <time>2017-07-05T11:16:12Z</time>
      </trkpt>
      <trkpt lat="43.64802" lon="3.823">
        <ele>137.7</ele>
        <time>2017-07-05T11:16:14Z</time>
      </trkpt>
      <trkpt lat="43.64793" lon="3.82308">
        <ele>137.5</ele>
        <time>2017-07-05T11:16:17Z</time>
      </trkpt>
      <trkpt lat="43.64783" lon="3.82313">
        <ele>137.2</ele>
        <time>2017-07-05T11:16:20Z</time>
      </trkpt>
      <trkpt lat="43.64775" lon="3.82317">
        <ele>137.1</ele>
        <time>2017-07-05T11:16:22Z</time>
      </trkpt>
      <trkpt lat="43.64768" lon="3.8232">
        <ele>136.8</ele>
        <time>2017-07-05T11:16:24Z</time>
      </trkpt>
      <trkpt lat="43.64761" lon="3.82324">
        <ele>136.3</ele>
        <time>2017-07-05T11:16:26Z</time>
      </trkpt>
      <trkpt lat="43.64753" lon="3.82326">
        <ele>135</ele>
        <time>2017-07-05T11:16:28Z</time>
      </trkpt>
      <trkpt lat="43.64745" lon="3.82329">
        <ele>134.5</ele>
        <time>2017-07-05T11:16:30Z</time>
      </trkpt>
      <trkpt lat="43.64732" lon="3.82328">
        <ele>134.6</ele>
        <time>2017-07-05T11:16:33Z</time>
      </trkpt>
      <trkpt lat="43.64723" lon="3.82332">
        <ele>134.7</ele>
        <time>2017-07-05T11:16:35Z</time>
      </trkpt>
      <trkpt lat="43.64714" lon="3.82334">
        <ele>134.8</ele>
        <time>2017-07-05T11:16:37Z</time>
      </trkpt>
      <trkpt lat="43.64707" lon="3.82334">
        <ele>134.9</ele>
        <time>2017-07-05T11:16:39Z</time>
      </trkpt>
      <trkpt lat="43.64697" lon="3.8233">
        <ele>134.9</ele>
        <time>2017-07-05T11:16:41Z</time>
      </trkpt>
      <trkpt lat="43.64688" lon="3.82321">
        <ele>134.2</ele>
        <time>2017-07-05T11:16:43Z</time>
      </trkpt>
      <trkpt lat="43.64681" lon="3.82315">
        <ele>134.4</ele>
        <time>2017-07-05T11:16:45Z</time>
      </trkpt>
      <trkpt lat="43.64672" lon="3.82315">
        <ele>134.7</ele>
        <time>2017-07-05T11:16:48Z</time>
      </trkpt>
      <trkpt lat="43.64662" lon="3.82317">
        <ele>135</ele>
        <time>2017-07-05T11:16:51Z</time>
      </trkpt>
      <trkpt lat="43.64652" lon="3.82321">
        <ele>135.6</ele>
        <time>2017-07-05T11:16:54Z</time>
      </trkpt>
      <trkpt lat="43.64645" lon="3.82324">
        <ele>136</ele>
        <time>2017-07-05T11:16:56Z</time>
      </trkpt>
      <trkpt lat="43.64637" lon="3.82326">
        <ele>136.7</ele>
        <time>2017-07-05T11:16:59Z</time>
      </trkpt>
      <trkpt lat="43.64627" lon="3.82329">
        <ele>137.2</ele>
        <time>2017-07-05T11:17:02Z</time>
      </trkpt>
      <trkpt lat="43.64618" lon="3.8233">
        <ele>137.9</ele>
        <time>2017-07-05T11:17:05Z</time>
      </trkpt>
      <trkpt lat="43.64608" lon="3.82329">
        <ele>138.8</ele>
        <time>2017-07-05T11:17:09Z</time>
      </trkpt>
      <trkpt lat="43.64597" lon="3.82327">
        <ele>139.5</ele>
        <time>2017-07-05T11:17:12Z</time>
      </trkpt>
      <trkpt lat="43.64589" lon="3.82326">
        <ele>140</ele>
        <time>2017-07-05T11:17:14Z</time>
      </trkpt>
      <trkpt lat="43.64582" lon="3.82324">
        <ele>140.6</ele>
        <time>2017-07-05T11:17:17Z</time>
      </trkpt>
      <trkpt lat="43.64572" lon="3.8232">
        <ele>143.6</ele>
        <time>2017-07-05T11:17:20Z</time>
      </trkpt>
      <trkpt lat="43.64565" lon="3.82318">
        <ele>146.1</ele>
        <time>2017-07-05T11:17:22Z</time>
      </trkpt>
      <trkpt lat="43.64557" lon="3.82316">
        <ele>149.2</ele>
        <time>2017-07-05T11:17:24Z</time>
      </trkpt>
      <trkpt lat="43.64548" lon="3.82312">
        <ele>150.3</ele>
        <time>2017-07-05T11:17:26Z</time>
      </trkpt>
      <trkpt lat="43.64537" lon="3.8231">
        <ele>151.4</ele>
        <time>2017-07-05T11:17:28Z</time>
      </trkpt>
      <trkpt lat="43.64527" lon="3.82308">
        <ele>150.8</ele>
        <time>2017-07-05T11:17:30Z</time>
      </trkpt>
      <trkpt lat="43.64517" lon="3.82306">
        <ele>150.2</ele>
        <time>2017-07-05T11:17:32Z</time>
      </trkpt>
      <trkpt lat="43.64506" lon="3.82302">
        <ele>150.2</ele>
        <time>2017-07-05T11:17:34Z</time>
      </trkpt>
      <trkpt lat="43.64497" lon="3.82295">
        <ele>150.4</ele>
        <time>2017-07-05T11:17:36Z</time>
      </trkpt>
      <trkpt lat="43.64486" lon="3.8229">
        <ele>150.4</ele>
        <time>2017-07-05T11:17:38Z</time>
      </trkpt>
      <trkpt lat="43.64475" lon="3.82295">
        <ele>150.3</ele>
        <time>2017-07-05T11:17:40Z</time>
      </trkpt>
      <trkpt lat="43.64468" lon="3.8229">
        <ele>150.7</ele>
        <time>2017-07-05T11:17:42Z</time>
      </trkpt>
      <trkpt lat="43.64461" lon="3.82281">
        <ele>150.2</ele>
        <time>2017-07-05T11:17:45Z</time>
      </trkpt>
      <trkpt lat="43.64453" lon="3.82279">
        <ele>150.4</ele>
        <time>2017-07-05T11:17:47Z</time>
      </trkpt>
      <trkpt lat="43.64444" lon="3.82271">
        <ele>150.4</ele>
        <time>2017-07-05T11:17:50Z</time>
      </trkpt>
      <trkpt lat="43.64437" lon="3.82265">
        <ele>150</ele>
        <time>2017-07-05T11:17:52Z</time>
      </trkpt>
      <trkpt lat="43.6443" lon="3.82258">
        <ele>149.4</ele>
        <time>2017-07-05T11:17:54Z</time>
      </trkpt>
      <trkpt lat="43.64426" lon="3.82248">
        <ele>148.4</ele>
        <time>2017-07-05T11:17:56Z</time>
      </trkpt>
      <trkpt lat="43.64419" lon="3.82238">
        <ele>148</ele>
        <time>2017-07-05T11:17:59Z</time>
      </trkpt>
      <trkpt lat="43.64412" lon="3.82244">
        <ele>148.8</ele>
        <time>2017-07-05T11:18:01Z</time>
      </trkpt>
      <trkpt lat="43.64404" lon="3.82251">
        <ele>148.7</ele>
        <time>2017-07-05T11:18:04Z</time>
      </trkpt>
      <trkpt lat="43.64397" lon="3.82257">
        <ele>148.7</ele>
        <time>2017-07-05T11:18:06Z</time>
      </trkpt>
      <trkpt lat="43.64388" lon="3.82261">
        <ele>148.6</ele>
        <time>2017-07-05T11:18:08Z</time>
      </trkpt>
      <trkpt lat="43.64378" lon="3.82262">
        <ele>148.7</ele>
        <time>2017-07-05T11:18:10Z</time>
      </trkpt>
      <trkpt lat="43.64371" lon="3.82269">
        <ele>149.9</ele>
        <time>2017-07-05T11:18:12Z</time>
      </trkpt>
      <trkpt lat="43.64361" lon="3.82273">
        <ele>150.3</ele>
        <time>2017-07-05T11:18:14Z</time>
      </trkpt>
      <trkpt lat="43.64354" lon="3.82279">
        <ele>149.9</ele>
        <time>2017-07-05T11:18:16Z</time>
      </trkpt>
      <trkpt lat="43.64348" lon="3.82285">
        <ele>149.9</ele>
        <time>2017-07-05T11:18:18Z</time>
      </trkpt>
      <trkpt lat="43.6434" lon="3.82293">
        <ele>150.2</ele>
        <time>2017-07-05T11:18:21Z</time>
      </trkpt>
      <trkpt lat="43.64329" lon="3.82297">
        <ele>150.6</ele>
        <time>2017-07-05T11:18:23Z</time>
      </trkpt>
      <trkpt lat="43.64321" lon="3.823">
        <ele>151.6</ele>
        <time>2017-07-05T11:18:25Z</time>
      </trkpt>
      <trkpt lat="43.64309" lon="3.82304">
        <ele>152.4</ele>
        <time>2017-07-05T11:18:27Z</time>
      </trkpt>
      <trkpt lat="43.64298" lon="3.82301">
        <ele>152.5</ele>
        <time>2017-07-05T11:18:29Z</time>
      </trkpt>
      <trkpt lat="43.6429" lon="3.82312">
        <ele>151.9</ele>
        <time>2017-07-05T11:18:32Z</time>
      </trkpt>
      <trkpt lat="43.64281" lon="3.82317">
        <ele>152.9</ele>
        <time>2017-07-05T11:18:34Z</time>
      </trkpt>
      <trkpt lat="43.64271" lon="3.82316">
        <ele>153.6</ele>
        <time>2017-07-05T11:18:36Z</time>
      </trkpt>
      <trkpt lat="43.64263" lon="3.82311">
        <ele>153.7</ele>
        <time>2017-07-05T11:18:38Z</time>
      </trkpt>
      <trkpt lat="43.64253" lon="3.8231">
        <ele>153.7</ele>
        <time>2017-07-05T11:18:40Z</time>
      </trkpt>
      <trkpt lat="43.64245" lon="3.82312">
        <ele>153.1</ele>
        <time>2017-07-05T11:18:42Z</time>
      </trkpt>
      <trkpt lat="43.64233" lon="3.82315">
        <ele>153.2</ele>
        <time>2017-07-05T11:18:45Z</time>
      </trkpt>
      <trkpt lat="43.64226" lon="3.82314">
        <ele>153.2</ele>
        <time>2017-07-05T11:18:47Z</time>
      </trkpt>
      <trkpt lat="43.64217" lon="3.82314">
        <ele>153.3</ele>
        <time>2017-07-05T11:18:50Z</time>
      </trkpt>
      <trkpt lat="43.64209" lon="3.82318">
        <ele>153.5</ele>
        <time>2017-07-05T11:18:53Z</time>
      </trkpt>
      <trkpt lat="43.642" lon="3.82324">
        <ele>153.9</ele>
        <time>2017-07-05T11:18:56Z</time>
      </trkpt>
      <trkpt lat="43.64192" lon="3.82334">
        <ele>154.1</ele>
        <time>2017-07-05T11:18:59Z</time>
      </trkpt>
      <trkpt lat="43.64189" lon="3.82345">
        <ele>154.5</ele>
        <time>2017-07-05T11:19:02Z</time>
      </trkpt>
      <trkpt lat="43.64185" lon="3.82354">
        <ele>154.9</ele>
        <time>2017-07-05T11:19:05Z</time>
      </trkpt>
      <trkpt lat="43.64181" lon="3.82366">
        <ele>155.1</ele>
        <time>2017-07-05T11:19:08Z</time>
      </trkpt>
      <trkpt lat="43.64174" lon="3.82372">
        <ele>155.1</ele>
        <time>2017-07-05T11:19:11Z</time>
      </trkpt>
      <trkpt lat="43.6417" lon="3.82381">
        <ele>155.2</ele>
        <time>2017-07-05T11:19:13Z</time>
      </trkpt>
      <trkpt lat="43.64167" lon="3.8239">
        <ele>155.4</ele>
        <time>2017-07-05T11:19:15Z</time>
      </trkpt>
      <trkpt lat="43.64163" lon="3.82402">
        <ele>155.4</ele>
        <time>2017-07-05T11:19:17Z</time>
      </trkpt>
      <trkpt lat="43.64159" lon="3.82414">
        <ele>154.1</ele>
        <time>2017-07-05T11:19:19Z</time>
      </trkpt>
      <trkpt lat="43.64156" lon="3.82426">
        <ele>151.8</ele>
        <time>2017-07-05T11:19:21Z</time>
      </trkpt>
      <trkpt lat="43.64153" lon="3.82438">
        <ele>151.8</ele>
        <time>2017-07-05T11:19:24Z</time>
      </trkpt>
      <trkpt lat="43.6415" lon="3.82448">
        <ele>151.9</ele>
        <time>2017-07-05T11:19:27Z</time>
      </trkpt>
      <trkpt lat="43.64148" lon="3.82462">
        <ele>152.4</ele>
        <time>2017-07-05T11:19:29Z</time>
      </trkpt>
      <trkpt lat="43.64141" lon="3.82471">
        <ele>152.1</ele>
        <time>2017-07-05T11:19:31Z</time>
      </trkpt>
      <trkpt lat="43.64137" lon="3.82481">
        <ele>151.2</ele>
        <time>2017-07-05T11:19:33Z</time>
      </trkpt>
      <trkpt lat="43.64131" lon="3.82498">
        <ele>149.7</ele>
        <time>2017-07-05T11:19:35Z</time>
      </trkpt>
      <trkpt lat="43.64126" lon="3.82507">
        <ele>148.2</ele>
        <time>2017-07-05T11:19:37Z</time>
      </trkpt>
      <trkpt lat="43.64122" lon="3.82517">
        <ele>148</ele>
        <time>2017-07-05T11:19:39Z</time>
      </trkpt>
      <trkpt lat="43.64117" lon="3.82528">
        <ele>146.9</ele>
        <time>2017-07-05T11:19:40Z</time>
      </trkpt>
      <trkpt lat="43.64114" lon="3.82539">
        <ele>147.4</ele>
        <time>2017-07-05T11:19:41Z</time>
      </trkpt>
      <trkpt lat="43.6411" lon="3.82548">
        <ele>147.6</ele>
        <time>2017-07-05T11:19:42Z</time>
      </trkpt>
      <trkpt lat="43.64107" lon="3.82558">
        <ele>146.7</ele>
        <time>2017-07-05T11:19:43Z</time>
      </trkpt>
      <trkpt lat="43.64103" lon="3.82568">
        <ele>145.7</ele>
        <time>2017-07-05T11:19:44Z</time>
      </trkpt>
      <trkpt lat="43.641" lon="3.82576">
        <ele>145.2</ele>
        <time>2017-07-05T11:19:45Z</time>
      </trkpt>
      <trkpt lat="43.64093" lon="3.82593">
        <ele>144.3</ele>
        <time>2017-07-05T11:19:47Z</time>
      </trkpt>
      <trkpt lat="43.64088" lon="3.8261">
        <ele>144.9</ele>
        <time>2017-07-05T11:19:49Z</time>
      </trkpt>
      <trkpt lat="43.64087" lon="3.8263">
        <ele>144.2</ele>
        <time>2017-07-05T11:19:51Z</time>
      </trkpt>
      <trkpt lat="43.64086" lon="3.82642">
        <ele>144.5</ele>
        <time>2017-07-05T11:19:52Z</time>
      </trkpt>
      <trkpt lat="43.64081" lon="3.82655">
        <ele>144.5</ele>
        <time>2017-07-05T11:19:53Z</time>
      </trkpt>
      <trkpt lat="43.64075" lon="3.82664">
        <ele>144</ele>
        <time>2017-07-05T11:19:54Z</time>
      </trkpt>
      <trkpt lat="43.64069" lon="3.82674">
        <ele>143.5</ele>
        <time>2017-07-05T11:19:55Z</time>
      </trkpt>
      <trkpt lat="43.64064" lon="3.82683">
        <ele>142.1</ele>
        <time>2017-07-05T11:19:56Z</time>
      </trkpt>
      <trkpt lat="43.64062" lon="3.82692">
        <ele>141.5</ele>
        <time>2017-07-05T11:19:57Z</time>
      </trkpt>
      <trkpt lat="43.64059" lon="3.82705">
        <ele>141.2</ele>
        <time>2017-07-05T11:19:58Z</time>
      </trkpt>
      <trkpt lat="43.64053" lon="3.82715">
        <ele>140.5</ele>
        <time>2017-07-05T11:19:59Z</time>
      </trkpt>
      <trkpt lat="43.64047" lon="3.82725">
        <ele>140.1</ele>
        <time>2017-07-05T11:20:00Z</time>
      </trkpt>
      <trkpt lat="43.64041" lon="3.82734">
        <ele>139.1</ele>
        <time>2017-07-05T11:20:01Z</time>
      </trkpt>
      <trkpt lat="43.64036" lon="3.82743">
        <ele>138.1</ele>
        <time>2017-07-05T11:20:02Z</time>
      </trkpt>
      <trkpt lat="43.64034" lon="3.82755">
        <ele>137.2</ele>
        <time>2017-07-05T11:20:03Z</time>
      </trkpt>
      <trkpt lat="43.64029" lon="3.82765">
        <ele>136.9</ele>
        <time>2017-07-05T11:20:04Z</time>
      </trkpt>
      <trkpt lat="43.64021" lon="3.82779">
        <ele>135.9</ele>
        <time>2017-07-05T11:20:06Z</time>
      </trkpt>
      <trkpt lat="43.64012" lon="3.82792">
        <ele>134.5</ele>
        <time>2017-07-05T11:20:08Z</time>
      </trkpt>
      <trkpt lat="43.64005" lon="3.82797">
        <ele>134.4</ele>
        <time>2017-07-05T11:20:09Z</time>
      </trkpt>
      <trkpt lat="43.63993" lon="3.82799">
        <ele>134.4</ele>
        <time>2017-07-05T11:20:11Z</time>
      </trkpt>
      <trkpt lat="43.6398" lon="3.82802">
        <ele>134.8</ele>
        <time>2017-07-05T11:20:13Z</time>
      </trkpt>
      <trkpt lat="43.63967" lon="3.82806">
        <ele>135.4</ele>
        <time>2017-07-05T11:20:15Z</time>
      </trkpt>
      <trkpt lat="43.63956" lon="3.82815">
        <ele>134.1</ele>
        <time>2017-07-05T11:20:17Z</time>
      </trkpt>
      <trkpt lat="43.63945" lon="3.82822">
        <ele>132.7</ele>
        <time>2017-07-05T11:20:19Z</time>
      </trkpt>
      <trkpt lat="43.63933" lon="3.82828">
        <ele>132.4</ele>
        <time>2017-07-05T11:20:21Z</time>
      </trkpt>
      <trkpt lat="43.63921" lon="3.82827">
        <ele>132.8</ele>
        <time>2017-07-05T11:20:23Z</time>
      </trkpt>
      <trkpt lat="43.63913" lon="3.82823">
        <ele>132.9</ele>
        <time>2017-07-05T11:20:25Z</time>
      </trkpt>
      <trkpt lat="43.63904" lon="3.82815">
        <ele>133</ele>
        <time>2017-07-05T11:20:27Z</time>
      </trkpt>
      <trkpt lat="43.63897" lon="3.82812">
        <ele>132.9</ele>
        <time>2017-07-05T11:20:29Z</time>
      </trkpt>
      <trkpt lat="43.63889" lon="3.82802">
        <ele>132.7</ele>
        <time>2017-07-05T11:20:32Z</time>
      </trkpt>
      <trkpt lat="43.63883" lon="3.82788">
        <ele>132.6</ele>
        <time>2017-07-05T11:20:34Z</time>
      </trkpt>
      <trkpt lat="43.63875" lon="3.82785">
        <ele>132.4</ele>
        <time>2017-07-05T11:20:37Z</time>
      </trkpt>
      <trkpt lat="43.63868" lon="3.82791">
        <ele>132.2</ele>
        <time>2017-07-05T11:20:39Z</time>
      </trkpt>
      <trkpt lat="43.6386" lon="3.82797">
        <ele>132</ele>
        <time>2017-07-05T11:20:41Z</time>
      </trkpt>
      <trkpt lat="43.6385" lon="3.82804">
        <ele>131.5</ele>
        <time>2017-07-05T11:20:43Z</time>
      </trkpt>
      <trkpt lat="43.63841" lon="3.82806">
        <ele>130.6</ele>
        <time>2017-07-05T11:20:45Z</time>
      </trkpt>
      <trkpt lat="43.63831" lon="3.82804">
        <ele>130.5</ele>
        <time>2017-07-05T11:20:47Z</time>
      </trkpt>
      <trkpt lat="43.63821" lon="3.82807">
        <ele>130.5</ele>
        <time>2017-07-05T11:20:49Z</time>
      </trkpt>
      <trkpt lat="43.63809" lon="3.82812">
        <ele>130.2</ele>
        <time>2017-07-05T11:20:51Z</time>
      </trkpt>
      <trkpt lat="43.63799" lon="3.82817">
        <ele>129.7</ele>
        <time>2017-07-05T11:20:53Z</time>
      </trkpt>
      <trkpt lat="43.63787" lon="3.82821">
        <ele>128.7</ele>
        <time>2017-07-05T11:20:56Z</time>
      </trkpt>
      <trkpt lat="43.6378" lon="3.82833">
        <ele>128.6</ele>
        <time>2017-07-05T11:20:59Z</time>
      </trkpt>
      <trkpt lat="43.63784" lon="3.82846">
        <ele>128.3</ele>
        <time>2017-07-05T11:21:02Z</time>
      </trkpt>
      <trkpt lat="43.6378" lon="3.82857">
        <ele>127.5</ele>
        <time>2017-07-05T11:21:04Z</time>
      </trkpt>
      <trkpt lat="43.6377" lon="3.82857">
        <ele>127.5</ele>
        <time>2017-07-05T11:21:06Z</time>
      </trkpt>
      <trkpt lat="43.63766" lon="3.82857">
        <ele>127.3</ele>
        <time>2017-07-05T11:21:13Z</time>
      </trkpt>
    </trkseg>
  </trk>
</gpx>